<?xml version="1.0" encoding="UTF-8" standalone="no" ?>
<gpx xmlns="http://www.topografix.com/GPX/1/1" xmlns:xsi="http://www.w3.org/2001/XMLSchema-instance" xsi:schemaLocation="http://www.topografix.com/GPX/1/1 http://www.topografix.com/GPX/1/1/gpx.xsd" version="1.1" creator="VisuGPX - https://www.visugpx.com">
  <metadata>
    <name>Chartreuse - Tour percée</name>
  </metadata>
  <trk>
    <name><![CDATA[Chartreuse - Tour percée_1]]></name>
    <trkseg>
      <trkpt lat="45.35497" lon="5.91891">
        <ele>929.73</ele>
        <time>2021-06-13T07:33:05Z</time>
      </trkpt>
      <trkpt lat="45.35498" lon="5.9189">
        <ele>934.06</ele>
        <time>2021-06-13T07:33:06Z</time>
      </trkpt>
      <trkpt lat="45.35498" lon="5.9189">
        <ele>937.9</ele>
        <time>2021-06-13T07:33:07Z</time>
      </trkpt>
      <trkpt lat="45.35498" lon="5.9189">
        <ele>942.23</ele>
        <time>2021-06-13T07:33:08Z</time>
      </trkpt>
      <trkpt lat="45.35498" lon="5.91889">
        <ele>946.07</ele>
        <time>2021-06-13T07:33:09Z</time>
      </trkpt>
      <trkpt lat="45.35498" lon="5.91889">
        <ele>949.92</ele>
        <time>2021-06-13T07:33:10Z</time>
      </trkpt>
      <trkpt lat="45.35498" lon="5.9189">
        <ele>953.77</ele>
        <time>2021-06-13T07:33:11Z</time>
      </trkpt>
      <trkpt lat="45.35499" lon="5.91889">
        <ele>957.13</ele>
        <time>2021-06-13T07:33:12Z</time>
      </trkpt>
      <trkpt lat="45.35499" lon="5.91889">
        <ele>963.86</ele>
        <time>2021-06-13T07:33:13Z</time>
      </trkpt>
      <trkpt lat="45.35499" lon="5.9189">
        <ele>963.86</ele>
        <time>2021-06-13T07:33:14Z</time>
      </trkpt>
      <trkpt lat="45.35499" lon="5.9189">
        <ele>966.74</ele>
        <time>2021-06-13T07:33:15Z</time>
      </trkpt>
      <trkpt lat="45.35499" lon="5.9189">
        <ele>970.11</ele>
        <time>2021-06-13T07:33:16Z</time>
      </trkpt>
      <trkpt lat="45.35499" lon="5.91889">
        <ele>975.88</ele>
        <time>2021-06-13T07:33:18Z</time>
      </trkpt>
      <trkpt lat="45.35499" lon="5.91889">
        <ele>981.16</ele>
        <time>2021-06-13T07:33:20Z</time>
      </trkpt>
      <trkpt lat="45.35499" lon="5.91889">
        <ele>985.97</ele>
        <time>2021-06-13T07:33:22Z</time>
      </trkpt>
      <trkpt lat="45.35498" lon="5.91889">
        <ele>990.78</ele>
        <time>2021-06-13T07:33:24Z</time>
      </trkpt>
      <trkpt lat="45.35498" lon="5.91889">
        <ele>995.58</ele>
        <time>2021-06-13T07:33:26Z</time>
      </trkpt>
      <trkpt lat="45.35499" lon="5.91889">
        <ele>999.43</ele>
        <time>2021-06-13T07:33:28Z</time>
      </trkpt>
      <trkpt lat="45.35499" lon="5.91889">
        <ele>1003.27</ele>
        <time>2021-06-13T07:33:30Z</time>
      </trkpt>
      <trkpt lat="45.35499" lon="5.9189">
        <ele>1007.12</ele>
        <time>2021-06-13T07:33:32Z</time>
      </trkpt>
      <trkpt lat="45.355" lon="5.91891">
        <ele>1010.48</ele>
        <time>2021-06-13T07:33:34Z</time>
      </trkpt>
      <trkpt lat="45.355" lon="5.9189">
        <ele>1013.37</ele>
        <time>2021-06-13T07:33:36Z</time>
      </trkpt>
      <trkpt lat="45.35499" lon="5.91889">
        <ele>1017.21</ele>
        <time>2021-06-13T07:33:39Z</time>
      </trkpt>
      <trkpt lat="45.35499" lon="5.91889">
        <ele>1023.46</ele>
        <time>2021-06-13T07:33:42Z</time>
      </trkpt>
      <trkpt lat="45.35499" lon="5.91889">
        <ele>1026.83</ele>
        <time>2021-06-13T07:33:45Z</time>
      </trkpt>
      <trkpt lat="45.355" lon="5.91889">
        <ele>1029.71</ele>
        <time>2021-06-13T07:33:48Z</time>
      </trkpt>
      <trkpt lat="45.35501" lon="5.91888">
        <ele>1033.55</ele>
        <time>2021-06-13T07:33:52Z</time>
      </trkpt>
      <trkpt lat="45.35504" lon="5.91887">
        <ele>1036.44</ele>
        <time>2021-06-13T07:33:56Z</time>
      </trkpt>
      <trkpt lat="45.35503" lon="5.91888">
        <ele>1039.8</ele>
        <time>2021-06-13T07:34:01Z</time>
      </trkpt>
      <trkpt lat="45.355" lon="5.9189">
        <ele>1042.69</ele>
        <time>2021-06-13T07:34:08Z</time>
      </trkpt>
      <trkpt lat="45.35499" lon="5.91888">
        <ele>1046.05</ele>
        <time>2021-06-13T07:34:16Z</time>
      </trkpt>
      <trkpt lat="45.35499" lon="5.91888">
        <ele>1048.94</ele>
        <time>2021-06-13T07:34:30Z</time>
      </trkpt>
      <trkpt lat="45.35499" lon="5.9189">
        <ele>1052.3</ele>
        <time>2021-06-13T07:34:56Z</time>
      </trkpt>
      <trkpt lat="45.35499" lon="5.91889">
        <ele>1052.3</ele>
        <time>2021-06-13T07:35:10Z</time>
      </trkpt>
      <trkpt lat="45.35499" lon="5.91889">
        <ele>1052.78</ele>
        <time>2021-06-13T07:35:25Z</time>
      </trkpt>
      <trkpt lat="45.35498" lon="5.91889">
        <ele>1052.78</ele>
        <time>2021-06-13T07:35:44Z</time>
      </trkpt>
      <trkpt lat="45.35497" lon="5.91885">
        <ele>1052.78</ele>
        <time>2021-06-13T07:35:59Z</time>
      </trkpt>
      <trkpt lat="45.35489" lon="5.91863">
        <ele>1053.26</ele>
        <time>2021-06-13T07:36:14Z</time>
      </trkpt>
      <trkpt lat="45.35487" lon="5.9186">
        <ele>1053.74</ele>
        <time>2021-06-13T07:36:17Z</time>
      </trkpt>
      <trkpt lat="45.35488" lon="5.91856">
        <ele>1053.74</ele>
        <time>2021-06-13T07:36:19Z</time>
      </trkpt>
      <trkpt lat="45.35493" lon="5.9185">
        <ele>1054.22</ele>
        <time>2021-06-13T07:36:24Z</time>
      </trkpt>
      <trkpt lat="45.35501" lon="5.91838">
        <ele>1055.67</ele>
        <time>2021-06-13T07:36:37Z</time>
      </trkpt>
      <trkpt lat="45.35501" lon="5.91833">
        <ele>1055.67</ele>
        <time>2021-06-13T07:36:40Z</time>
      </trkpt>
      <trkpt lat="45.35501" lon="5.91831">
        <ele>1055.67</ele>
        <time>2021-06-13T07:36:42Z</time>
      </trkpt>
      <trkpt lat="45.355" lon="5.91827">
        <ele>1056.15</ele>
        <time>2021-06-13T07:36:44Z</time>
      </trkpt>
      <trkpt lat="45.35497" lon="5.91808">
        <ele>1056.15</ele>
        <time>2021-06-13T07:36:58Z</time>
      </trkpt>
      <trkpt lat="45.35498" lon="5.91806">
        <ele>1057.59</ele>
        <time>2021-06-13T07:37:03Z</time>
      </trkpt>
      <trkpt lat="45.35496" lon="5.91805">
        <ele>1059.03</ele>
        <time>2021-06-13T07:37:19Z</time>
      </trkpt>
      <trkpt lat="45.35496" lon="5.91805">
        <ele>1059.03</ele>
        <time>2021-06-13T07:37:33Z</time>
      </trkpt>
      <trkpt lat="45.35497" lon="5.91822">
        <ele>1058.07</ele>
        <time>2021-06-13T07:37:51Z</time>
      </trkpt>
      <trkpt lat="45.355" lon="5.91819">
        <ele>1058.55</ele>
        <time>2021-06-13T07:38:07Z</time>
      </trkpt>
      <trkpt lat="45.35501" lon="5.91813">
        <ele>1058.07</ele>
        <time>2021-06-13T07:38:24Z</time>
      </trkpt>
      <trkpt lat="45.35501" lon="5.91813">
        <ele>1059.03</ele>
        <time>2021-06-13T07:38:45Z</time>
      </trkpt>
      <trkpt lat="45.35501" lon="5.91811">
        <ele>1059.03</ele>
        <time>2021-06-13T07:39:04Z</time>
      </trkpt>
      <trkpt lat="45.35501" lon="5.9181">
        <ele>1058.07</ele>
        <time>2021-06-13T07:39:30Z</time>
      </trkpt>
      <trkpt lat="45.35501" lon="5.91808">
        <ele>1059.03</ele>
        <time>2021-06-13T07:39:58Z</time>
      </trkpt>
      <trkpt lat="45.35498" lon="5.91807">
        <ele>1057.59</ele>
        <time>2021-06-13T07:40:26Z</time>
      </trkpt>
      <trkpt lat="45.35487" lon="5.91802">
        <ele>1057.59</ele>
        <time>2021-06-13T07:40:38Z</time>
      </trkpt>
      <trkpt lat="45.35487" lon="5.918">
        <ele>1057.59</ele>
        <time>2021-06-13T07:40:41Z</time>
      </trkpt>
      <trkpt lat="45.35487" lon="5.91793">
        <ele>1058.07</ele>
        <time>2021-06-13T07:40:45Z</time>
      </trkpt>
      <trkpt lat="45.35484" lon="5.9177">
        <ele>1058.55</ele>
        <time>2021-06-13T07:40:59Z</time>
      </trkpt>
      <trkpt lat="45.35484" lon="5.91769">
        <ele>1058.55</ele>
        <time>2021-06-13T07:41:00Z</time>
      </trkpt>
      <trkpt lat="45.35484" lon="5.91766">
        <ele>1058.55</ele>
        <time>2021-06-13T07:41:02Z</time>
      </trkpt>
      <trkpt lat="45.35483" lon="5.91764">
        <ele>1059.03</ele>
        <time>2021-06-13T07:41:04Z</time>
      </trkpt>
      <trkpt lat="45.35481" lon="5.91761">
        <ele>1059.03</ele>
        <time>2021-06-13T07:41:06Z</time>
      </trkpt>
      <trkpt lat="45.35478" lon="5.91741">
        <ele>1059.51</ele>
        <time>2021-06-13T07:41:20Z</time>
      </trkpt>
      <trkpt lat="45.35474" lon="5.91722">
        <ele>1059.99</ele>
        <time>2021-06-13T07:41:33Z</time>
      </trkpt>
      <trkpt lat="45.35468" lon="5.91699">
        <ele>1059.03</ele>
        <time>2021-06-13T07:41:48Z</time>
      </trkpt>
      <trkpt lat="45.35465" lon="5.91681">
        <ele>1060.95</ele>
        <time>2021-06-13T07:42:01Z</time>
      </trkpt>
      <trkpt lat="45.35456" lon="5.9165">
        <ele>1061.43</ele>
        <time>2021-06-13T07:42:20Z</time>
      </trkpt>
      <trkpt lat="45.35449" lon="5.91622">
        <ele>1063.84</ele>
        <time>2021-06-13T07:42:38Z</time>
      </trkpt>
      <trkpt lat="45.35441" lon="5.91605">
        <ele>1064.8</ele>
        <time>2021-06-13T07:42:51Z</time>
      </trkpt>
      <trkpt lat="45.35421" lon="5.91583">
        <ele>1066.72</ele>
        <time>2021-06-13T07:43:12Z</time>
      </trkpt>
      <trkpt lat="45.35409" lon="5.91559">
        <ele>1068.16</ele>
        <time>2021-06-13T07:43:31Z</time>
      </trkpt>
      <trkpt lat="45.35401" lon="5.91534">
        <ele>1069.6</ele>
        <time>2021-06-13T07:43:48Z</time>
      </trkpt>
      <trkpt lat="45.35389" lon="5.9151">
        <ele>1072.01</ele>
        <time>2021-06-13T07:44:08Z</time>
      </trkpt>
      <trkpt lat="45.35379" lon="5.91487">
        <ele>1073.93</ele>
        <time>2021-06-13T07:44:24Z</time>
      </trkpt>
      <trkpt lat="45.35376" lon="5.91459">
        <ele>1075.85</ele>
        <time>2021-06-13T07:44:43Z</time>
      </trkpt>
      <trkpt lat="45.35378" lon="5.91441">
        <ele>1077.29</ele>
        <time>2021-06-13T07:44:56Z</time>
      </trkpt>
      <trkpt lat="45.35376" lon="5.91415">
        <ele>1078.74</ele>
        <time>2021-06-13T07:45:13Z</time>
      </trkpt>
      <trkpt lat="45.35373" lon="5.91397">
        <ele>1080.18</ele>
        <time>2021-06-13T07:45:29Z</time>
      </trkpt>
      <trkpt lat="45.35366" lon="5.91368">
        <ele>1082.1</ele>
        <time>2021-06-13T07:45:49Z</time>
      </trkpt>
      <trkpt lat="45.35358" lon="5.91345">
        <ele>1083.06</ele>
        <time>2021-06-13T07:46:03Z</time>
      </trkpt>
      <trkpt lat="45.35347" lon="5.91322">
        <ele>1084.5</ele>
        <time>2021-06-13T07:46:22Z</time>
      </trkpt>
      <trkpt lat="45.35338" lon="5.91299">
        <ele>1085.95</ele>
        <time>2021-06-13T07:46:39Z</time>
      </trkpt>
      <trkpt lat="45.35341" lon="5.9129">
        <ele>1086.91</ele>
        <time>2021-06-13T07:46:46Z</time>
      </trkpt>
      <trkpt lat="45.35346" lon="5.91288">
        <ele>1087.87</ele>
        <time>2021-06-13T07:46:54Z</time>
      </trkpt>
      <trkpt lat="45.3536" lon="5.91295">
        <ele>1089.31</ele>
        <time>2021-06-13T07:47:08Z</time>
      </trkpt>
      <trkpt lat="45.35369" lon="5.91309">
        <ele>1089.79</ele>
        <time>2021-06-13T07:47:21Z</time>
      </trkpt>
      <trkpt lat="45.35376" lon="5.91325">
        <ele>1091.23</ele>
        <time>2021-06-13T07:47:35Z</time>
      </trkpt>
      <trkpt lat="45.35386" lon="5.91341">
        <ele>1092.2</ele>
        <time>2021-06-13T07:47:50Z</time>
      </trkpt>
      <trkpt lat="45.35402" lon="5.91358">
        <ele>1094.12</ele>
        <time>2021-06-13T07:48:09Z</time>
      </trkpt>
      <trkpt lat="45.35409" lon="5.91364">
        <ele>1094.6</ele>
        <time>2021-06-13T07:48:17Z</time>
      </trkpt>
      <trkpt lat="45.35416" lon="5.91371">
        <ele>1095.08</ele>
        <time>2021-06-13T07:48:24Z</time>
      </trkpt>
      <trkpt lat="45.35419" lon="5.91373">
        <ele>1095.08</ele>
        <time>2021-06-13T07:48:26Z</time>
      </trkpt>
      <trkpt lat="45.35429" lon="5.91389">
        <ele>1097</ele>
        <time>2021-06-13T07:48:43Z</time>
      </trkpt>
      <trkpt lat="45.3543" lon="5.9139">
        <ele>1097</ele>
        <time>2021-06-13T07:48:44Z</time>
      </trkpt>
      <trkpt lat="45.3544" lon="5.91399">
        <ele>1097.96</ele>
        <time>2021-06-13T07:48:57Z</time>
      </trkpt>
      <trkpt lat="45.35452" lon="5.91413">
        <ele>1099.89</ele>
        <time>2021-06-13T07:49:13Z</time>
      </trkpt>
      <trkpt lat="45.35461" lon="5.91422">
        <ele>1101.33</ele>
        <time>2021-06-13T07:49:25Z</time>
      </trkpt>
      <trkpt lat="45.35475" lon="5.91436">
        <ele>1103.73</ele>
        <time>2021-06-13T07:49:45Z</time>
      </trkpt>
      <trkpt lat="45.35484" lon="5.91445">
        <ele>1105.17</ele>
        <time>2021-06-13T07:49:59Z</time>
      </trkpt>
      <trkpt lat="45.35498" lon="5.91448">
        <ele>1106.61</ele>
        <time>2021-06-13T07:50:13Z</time>
      </trkpt>
      <trkpt lat="45.35501" lon="5.9145">
        <ele>1107.1</ele>
        <time>2021-06-13T07:50:20Z</time>
      </trkpt>
      <trkpt lat="45.35505" lon="5.91453">
        <ele>1107.58</ele>
        <time>2021-06-13T07:50:24Z</time>
      </trkpt>
      <trkpt lat="45.35521" lon="5.9146">
        <ele>1108.54</ele>
        <time>2021-06-13T07:50:38Z</time>
      </trkpt>
      <trkpt lat="45.35526" lon="5.91466">
        <ele>1110.46</ele>
        <time>2021-06-13T07:50:50Z</time>
      </trkpt>
      <trkpt lat="45.35533" lon="5.9147">
        <ele>1110.94</ele>
        <time>2021-06-13T07:50:56Z</time>
      </trkpt>
      <trkpt lat="45.35542" lon="5.91472">
        <ele>1110.94</ele>
        <time>2021-06-13T07:51:01Z</time>
      </trkpt>
      <trkpt lat="45.35551" lon="5.91476">
        <ele>1111.9</ele>
        <time>2021-06-13T07:51:09Z</time>
      </trkpt>
      <trkpt lat="45.35552" lon="5.91479">
        <ele>1111.42</ele>
        <time>2021-06-13T07:51:11Z</time>
      </trkpt>
      <trkpt lat="45.35558" lon="5.91485">
        <ele>1111.42</ele>
        <time>2021-06-13T07:51:18Z</time>
      </trkpt>
      <trkpt lat="45.3556" lon="5.91486">
        <ele>1112.86</ele>
        <time>2021-06-13T07:51:21Z</time>
      </trkpt>
      <trkpt lat="45.35572" lon="5.9148">
        <ele>1113.82</ele>
        <time>2021-06-13T07:51:32Z</time>
      </trkpt>
      <trkpt lat="45.35573" lon="5.91479">
        <ele>1113.82</ele>
        <time>2021-06-13T07:51:34Z</time>
      </trkpt>
      <trkpt lat="45.35577" lon="5.9147">
        <ele>1114.79</ele>
        <time>2021-06-13T07:51:42Z</time>
      </trkpt>
      <trkpt lat="45.35575" lon="5.91458">
        <ele>1116.23</ele>
        <time>2021-06-13T07:51:55Z</time>
      </trkpt>
      <trkpt lat="45.35574" lon="5.91456">
        <ele>1116.23</ele>
        <time>2021-06-13T07:51:59Z</time>
      </trkpt>
      <trkpt lat="45.35571" lon="5.91448">
        <ele>1117.19</ele>
        <time>2021-06-13T07:52:10Z</time>
      </trkpt>
      <trkpt lat="45.35571" lon="5.91447">
        <ele>1116.71</ele>
        <time>2021-06-13T07:52:18Z</time>
      </trkpt>
      <trkpt lat="45.3557" lon="5.91442">
        <ele>1117.19</ele>
        <time>2021-06-13T07:52:30Z</time>
      </trkpt>
      <trkpt lat="45.35572" lon="5.91443">
        <ele>1118.15</ele>
        <time>2021-06-13T07:52:47Z</time>
      </trkpt>
      <trkpt lat="45.35572" lon="5.91443">
        <ele>1117.67</ele>
        <time>2021-06-13T07:53:13Z</time>
      </trkpt>
      <trkpt lat="45.35571" lon="5.91443">
        <ele>1117.67</ele>
        <time>2021-06-13T07:53:36Z</time>
      </trkpt>
      <trkpt lat="45.35571" lon="5.9144">
        <ele>1117.67</ele>
        <time>2021-06-13T07:53:49Z</time>
      </trkpt>
      <trkpt lat="45.35572" lon="5.91445">
        <ele>1117.67</ele>
        <time>2021-06-13T07:53:56Z</time>
      </trkpt>
      <trkpt lat="45.35567" lon="5.91449">
        <ele>1117.67</ele>
        <time>2021-06-13T07:54:05Z</time>
      </trkpt>
      <trkpt lat="45.35567" lon="5.91449">
        <ele>1116.71</ele>
        <time>2021-06-13T07:54:26Z</time>
      </trkpt>
      <trkpt lat="45.35567" lon="5.91449">
        <ele>1116.71</ele>
        <time>2021-06-13T07:54:50Z</time>
      </trkpt>
      <trkpt lat="45.35567" lon="5.91444">
        <ele>1117.19</ele>
        <time>2021-06-13T07:55:11Z</time>
      </trkpt>
      <trkpt lat="45.35559" lon="5.91429">
        <ele>1117.67</ele>
        <time>2021-06-13T07:55:23Z</time>
      </trkpt>
      <trkpt lat="45.35544" lon="5.91413">
        <ele>1119.59</ele>
        <time>2021-06-13T07:55:41Z</time>
      </trkpt>
      <trkpt lat="45.35535" lon="5.91396">
        <ele>1121.03</ele>
        <time>2021-06-13T07:55:56Z</time>
      </trkpt>
      <trkpt lat="45.35533" lon="5.91394">
        <ele>1121.03</ele>
        <time>2021-06-13T07:55:59Z</time>
      </trkpt>
      <trkpt lat="45.35523" lon="5.91374">
        <ele>1122.48</ele>
        <time>2021-06-13T07:56:16Z</time>
      </trkpt>
      <trkpt lat="45.35521" lon="5.91358">
        <ele>1123.44</ele>
        <time>2021-06-13T07:56:31Z</time>
      </trkpt>
      <trkpt lat="45.35522" lon="5.91355">
        <ele>1123.44</ele>
        <time>2021-06-13T07:56:50Z</time>
      </trkpt>
      <trkpt lat="45.35535" lon="5.91355">
        <ele>1125.36</ele>
        <time>2021-06-13T07:57:05Z</time>
      </trkpt>
      <trkpt lat="45.35551" lon="5.91356">
        <ele>1127.76</ele>
        <time>2021-06-13T07:57:23Z</time>
      </trkpt>
      <trkpt lat="45.3557" lon="5.9136">
        <ele>1129.69</ele>
        <time>2021-06-13T07:57:44Z</time>
      </trkpt>
      <trkpt lat="45.35589" lon="5.91364">
        <ele>1131.61</ele>
        <time>2021-06-13T07:58:03Z</time>
      </trkpt>
      <trkpt lat="45.35604" lon="5.91358">
        <ele>1133.53</ele>
        <time>2021-06-13T07:58:21Z</time>
      </trkpt>
      <trkpt lat="45.35612" lon="5.91352">
        <ele>1135.94</ele>
        <time>2021-06-13T07:58:38Z</time>
      </trkpt>
      <trkpt lat="45.35625" lon="5.91353">
        <ele>1138.34</ele>
        <time>2021-06-13T07:58:56Z</time>
      </trkpt>
      <trkpt lat="45.35642" lon="5.91354">
        <ele>1140.74</ele>
        <time>2021-06-13T07:59:18Z</time>
      </trkpt>
      <trkpt lat="45.35651" lon="5.91353">
        <ele>1144.11</ele>
        <time>2021-06-13T07:59:35Z</time>
      </trkpt>
      <trkpt lat="45.35657" lon="5.91341">
        <ele>1146.51</ele>
        <time>2021-06-13T07:59:54Z</time>
      </trkpt>
      <trkpt lat="45.3567" lon="5.91341">
        <ele>1148.91</ele>
        <time>2021-06-13T08:00:11Z</time>
      </trkpt>
      <trkpt lat="45.35686" lon="5.9134">
        <ele>1150.84</ele>
        <time>2021-06-13T08:00:30Z</time>
      </trkpt>
      <trkpt lat="45.35686" lon="5.9134">
        <ele>1150.35</ele>
        <time>2021-06-13T08:00:50Z</time>
      </trkpt>
      <trkpt lat="45.35686" lon="5.9134">
        <ele>1150.35</ele>
        <time>2021-06-13T08:01:05Z</time>
      </trkpt>
      <trkpt lat="45.35687" lon="5.9134">
        <ele>1150.35</ele>
        <time>2021-06-13T08:01:07Z</time>
      </trkpt>
      <trkpt lat="45.35701" lon="5.91335">
        <ele>1152.76</ele>
        <time>2021-06-13T08:01:21Z</time>
      </trkpt>
      <trkpt lat="45.35709" lon="5.91331">
        <ele>1153.72</ele>
        <time>2021-06-13T08:01:30Z</time>
      </trkpt>
      <trkpt lat="45.35738" lon="5.91322">
        <ele>1156.6</ele>
        <time>2021-06-13T08:01:50Z</time>
      </trkpt>
      <trkpt lat="45.35754" lon="5.9132">
        <ele>1159.97</ele>
        <time>2021-06-13T08:02:04Z</time>
      </trkpt>
      <trkpt lat="45.35763" lon="5.91318">
        <ele>1162.37</ele>
        <time>2021-06-13T08:02:17Z</time>
      </trkpt>
      <trkpt lat="45.35772" lon="5.91308">
        <ele>1164.77</ele>
        <time>2021-06-13T08:02:34Z</time>
      </trkpt>
      <trkpt lat="45.35783" lon="5.9132">
        <ele>1164.29</ele>
        <time>2021-06-13T08:02:47Z</time>
      </trkpt>
      <trkpt lat="45.35787" lon="5.91332">
        <ele>1161.89</ele>
        <time>2021-06-13T08:03:05Z</time>
      </trkpt>
      <trkpt lat="45.35782" lon="5.9134">
        <ele>1161.41</ele>
        <time>2021-06-13T08:03:17Z</time>
      </trkpt>
      <trkpt lat="45.35775" lon="5.91336">
        <ele>1161.89</ele>
        <time>2021-06-13T08:03:32Z</time>
      </trkpt>
      <trkpt lat="45.35775" lon="5.91334">
        <ele>1161.89</ele>
        <time>2021-06-13T08:03:51Z</time>
      </trkpt>
      <trkpt lat="45.35774" lon="5.9133">
        <ele>1161.89</ele>
        <time>2021-06-13T08:04:11Z</time>
      </trkpt>
      <trkpt lat="45.35776" lon="5.91338">
        <ele>1161.41</ele>
        <time>2021-06-13T08:04:30Z</time>
      </trkpt>
      <trkpt lat="45.35784" lon="5.91339">
        <ele>1160.45</ele>
        <time>2021-06-13T08:04:49Z</time>
      </trkpt>
      <trkpt lat="45.35789" lon="5.91372">
        <ele>1160.93</ele>
        <time>2021-06-13T08:05:20Z</time>
      </trkpt>
      <trkpt lat="45.35776" lon="5.91338">
        <ele>1162.85</ele>
        <time>2021-06-13T08:05:38Z</time>
      </trkpt>
      <trkpt lat="45.3578" lon="5.91316">
        <ele>1166.22</ele>
        <time>2021-06-13T08:05:52Z</time>
      </trkpt>
      <trkpt lat="45.35791" lon="5.91307">
        <ele>1168.14</ele>
        <time>2021-06-13T08:06:12Z</time>
      </trkpt>
      <trkpt lat="45.35807" lon="5.91307">
        <ele>1168.14</ele>
        <time>2021-06-13T08:06:24Z</time>
      </trkpt>
      <trkpt lat="45.35807" lon="5.91306">
        <ele>1168.14</ele>
        <time>2021-06-13T08:06:26Z</time>
      </trkpt>
      <trkpt lat="45.35811" lon="5.91305">
        <ele>1170.54</ele>
        <time>2021-06-13T08:06:30Z</time>
      </trkpt>
      <trkpt lat="45.3582" lon="5.91295">
        <ele>1171.98</ele>
        <time>2021-06-13T08:06:43Z</time>
      </trkpt>
      <trkpt lat="45.35826" lon="5.91291">
        <ele>1173.43</ele>
        <time>2021-06-13T08:06:49Z</time>
      </trkpt>
      <trkpt lat="45.35829" lon="5.91279">
        <ele>1176.31</ele>
        <time>2021-06-13T08:07:05Z</time>
      </trkpt>
      <trkpt lat="45.35834" lon="5.91271">
        <ele>1179.67</ele>
        <time>2021-06-13T08:07:21Z</time>
      </trkpt>
      <trkpt lat="45.35838" lon="5.91264">
        <ele>1182.08</ele>
        <time>2021-06-13T08:07:39Z</time>
      </trkpt>
      <trkpt lat="45.3585" lon="5.91257">
        <ele>1184.48</ele>
        <time>2021-06-13T08:07:58Z</time>
      </trkpt>
      <trkpt lat="45.3587" lon="5.9125">
        <ele>1185.92</ele>
        <time>2021-06-13T08:08:16Z</time>
      </trkpt>
      <trkpt lat="45.35872" lon="5.91235">
        <ele>1187.85</ele>
        <time>2021-06-13T08:08:33Z</time>
      </trkpt>
      <trkpt lat="45.35877" lon="5.91227">
        <ele>1191.21</ele>
        <time>2021-06-13T08:08:52Z</time>
      </trkpt>
      <trkpt lat="45.35891" lon="5.91221">
        <ele>1193.61</ele>
        <time>2021-06-13T08:09:08Z</time>
      </trkpt>
      <trkpt lat="45.35908" lon="5.91213">
        <ele>1196.5</ele>
        <time>2021-06-13T08:09:29Z</time>
      </trkpt>
      <trkpt lat="45.3591" lon="5.91202">
        <ele>1198.42</ele>
        <time>2021-06-13T08:09:51Z</time>
      </trkpt>
      <trkpt lat="45.35918" lon="5.91198">
        <ele>1199.86</ele>
        <time>2021-06-13T08:10:12Z</time>
      </trkpt>
      <trkpt lat="45.35917" lon="5.91205">
        <ele>1199.86</ele>
        <time>2021-06-13T08:10:30Z</time>
      </trkpt>
      <trkpt lat="45.35917" lon="5.912">
        <ele>1201.3</ele>
        <time>2021-06-13T08:10:50Z</time>
      </trkpt>
      <trkpt lat="45.35906" lon="5.91194">
        <ele>1203.23</ele>
        <time>2021-06-13T08:11:06Z</time>
      </trkpt>
      <trkpt lat="45.35913" lon="5.91192">
        <ele>1205.15</ele>
        <time>2021-06-13T08:11:22Z</time>
      </trkpt>
      <trkpt lat="45.35913" lon="5.91192">
        <ele>1208.51</ele>
        <time>2021-06-13T08:11:41Z</time>
      </trkpt>
      <trkpt lat="45.35925" lon="5.91166">
        <ele>1211.4</ele>
        <time>2021-06-13T08:11:58Z</time>
      </trkpt>
      <trkpt lat="45.35954" lon="5.91154">
        <ele>1213.8</ele>
        <time>2021-06-13T08:12:14Z</time>
      </trkpt>
      <trkpt lat="45.35957" lon="5.91146">
        <ele>1216.69</ele>
        <time>2021-06-13T08:12:30Z</time>
      </trkpt>
      <trkpt lat="45.35954" lon="5.91143">
        <ele>1220.05</ele>
        <time>2021-06-13T08:12:49Z</time>
      </trkpt>
      <trkpt lat="45.3595" lon="5.91144">
        <ele>1221.97</ele>
        <time>2021-06-13T08:13:00Z</time>
      </trkpt>
      <trkpt lat="45.35948" lon="5.91144">
        <ele>1222.93</ele>
        <time>2021-06-13T08:13:14Z</time>
      </trkpt>
      <trkpt lat="45.35939" lon="5.91145">
        <ele>1224.38</ele>
        <time>2021-06-13T08:13:31Z</time>
      </trkpt>
      <trkpt lat="45.35917" lon="5.9114">
        <ele>1226.3</ele>
        <time>2021-06-13T08:13:50Z</time>
      </trkpt>
      <trkpt lat="45.3591" lon="5.91141">
        <ele>1229.18</ele>
        <time>2021-06-13T08:14:06Z</time>
      </trkpt>
      <trkpt lat="45.35898" lon="5.91133">
        <ele>1232.07</ele>
        <time>2021-06-13T08:14:24Z</time>
      </trkpt>
      <trkpt lat="45.35889" lon="5.91126">
        <ele>1234.95</ele>
        <time>2021-06-13T08:14:43Z</time>
      </trkpt>
      <trkpt lat="45.35889" lon="5.91124">
        <ele>1237.83</ele>
        <time>2021-06-13T08:15:02Z</time>
      </trkpt>
      <trkpt lat="45.35887" lon="5.91121">
        <ele>1240.72</ele>
        <time>2021-06-13T08:15:19Z</time>
      </trkpt>
      <trkpt lat="45.35881" lon="5.91107">
        <ele>1242.64</ele>
        <time>2021-06-13T08:15:32Z</time>
      </trkpt>
      <trkpt lat="45.35876" lon="5.911">
        <ele>1245.04</ele>
        <time>2021-06-13T08:15:48Z</time>
      </trkpt>
      <trkpt lat="45.35866" lon="5.91078">
        <ele>1247.93</ele>
        <time>2021-06-13T08:16:04Z</time>
      </trkpt>
      <trkpt lat="45.35856" lon="5.9105">
        <ele>1250.33</ele>
        <time>2021-06-13T08:16:19Z</time>
      </trkpt>
      <trkpt lat="45.35852" lon="5.91038">
        <ele>1252.74</ele>
        <time>2021-06-13T08:16:37Z</time>
      </trkpt>
      <trkpt lat="45.35848" lon="5.91033">
        <ele>1253.7</ele>
        <time>2021-06-13T08:16:43Z</time>
      </trkpt>
      <trkpt lat="45.35847" lon="5.91028">
        <ele>1255.14</ele>
        <time>2021-06-13T08:16:48Z</time>
      </trkpt>
      <trkpt lat="45.35841" lon="5.91014">
        <ele>1257.06</ele>
        <time>2021-06-13T08:17:03Z</time>
      </trkpt>
      <trkpt lat="45.35839" lon="5.90999">
        <ele>1260.43</ele>
        <time>2021-06-13T08:17:21Z</time>
      </trkpt>
      <trkpt lat="45.35839" lon="5.9099">
        <ele>1261.87</ele>
        <time>2021-06-13T08:17:30Z</time>
      </trkpt>
      <trkpt lat="45.35842" lon="5.90977">
        <ele>1264.75</ele>
        <time>2021-06-13T08:17:43Z</time>
      </trkpt>
      <trkpt lat="45.35839" lon="5.90969">
        <ele>1265.71</ele>
        <time>2021-06-13T08:17:58Z</time>
      </trkpt>
      <trkpt lat="45.35839" lon="5.90967">
        <ele>1265.71</ele>
        <time>2021-06-13T08:18:19Z</time>
      </trkpt>
      <trkpt lat="45.35832" lon="5.90968">
        <ele>1264.75</ele>
        <time>2021-06-13T08:18:32Z</time>
      </trkpt>
      <trkpt lat="45.3583" lon="5.9097">
        <ele>1264.75</ele>
        <time>2021-06-13T08:18:48Z</time>
      </trkpt>
      <trkpt lat="45.3583" lon="5.9097">
        <ele>1264.27</ele>
        <time>2021-06-13T08:19:10Z</time>
      </trkpt>
      <trkpt lat="45.35825" lon="5.90967">
        <ele>1266.19</ele>
        <time>2021-06-13T08:19:20Z</time>
      </trkpt>
      <trkpt lat="45.35826" lon="5.90966">
        <ele>1269.08</ele>
        <time>2021-06-13T08:19:38Z</time>
      </trkpt>
      <trkpt lat="45.35825" lon="5.90955">
        <ele>1270.52</ele>
        <time>2021-06-13T08:19:52Z</time>
      </trkpt>
      <trkpt lat="45.35826" lon="5.90954">
        <ele>1271.96</ele>
        <time>2021-06-13T08:19:54Z</time>
      </trkpt>
      <trkpt lat="45.35825" lon="5.90953">
        <ele>1271.96</ele>
        <time>2021-06-13T08:20:11Z</time>
      </trkpt>
      <trkpt lat="45.35824" lon="5.90951">
        <ele>1271.48</ele>
        <time>2021-06-13T08:20:30Z</time>
      </trkpt>
      <trkpt lat="45.35824" lon="5.90951">
        <ele>1271.48</ele>
        <time>2021-06-13T08:20:58Z</time>
      </trkpt>
      <trkpt lat="45.35821" lon="5.90943">
        <ele>1272.44</ele>
        <time>2021-06-13T08:21:15Z</time>
      </trkpt>
      <trkpt lat="45.3583" lon="5.90935">
        <ele>1274.36</ele>
        <time>2021-06-13T08:21:28Z</time>
      </trkpt>
      <trkpt lat="45.35831" lon="5.90936">
        <ele>1274.85</ele>
        <time>2021-06-13T08:21:41Z</time>
      </trkpt>
      <trkpt lat="45.35834" lon="5.90943">
        <ele>1274.85</ele>
        <time>2021-06-13T08:21:56Z</time>
      </trkpt>
      <trkpt lat="45.35836" lon="5.90945">
        <ele>1272.92</ele>
        <time>2021-06-13T08:21:58Z</time>
      </trkpt>
      <trkpt lat="45.35838" lon="5.90958">
        <ele>1270.52</ele>
        <time>2021-06-13T08:22:12Z</time>
      </trkpt>
      <trkpt lat="45.35836" lon="5.90967">
        <ele>1269.08</ele>
        <time>2021-06-13T08:22:24Z</time>
      </trkpt>
      <trkpt lat="45.35838" lon="5.90969">
        <ele>1270.04</ele>
        <time>2021-06-13T08:22:43Z</time>
      </trkpt>
      <trkpt lat="45.35838" lon="5.90962">
        <ele>1271</ele>
        <time>2021-06-13T08:23:05Z</time>
      </trkpt>
      <trkpt lat="45.3582" lon="5.90961">
        <ele>1269.56</ele>
        <time>2021-06-13T08:23:19Z</time>
      </trkpt>
      <trkpt lat="45.35817" lon="5.90952">
        <ele>1270.52</ele>
        <time>2021-06-13T08:23:33Z</time>
      </trkpt>
      <trkpt lat="45.3582" lon="5.90934">
        <ele>1273.4</ele>
        <time>2021-06-13T08:23:45Z</time>
      </trkpt>
      <trkpt lat="45.35828" lon="5.9093">
        <ele>1275.81</ele>
        <time>2021-06-13T08:24:01Z</time>
      </trkpt>
      <trkpt lat="45.35829" lon="5.90929">
        <ele>1275.81</ele>
        <time>2021-06-13T08:24:17Z</time>
      </trkpt>
      <trkpt lat="45.35828" lon="5.90928">
        <ele>1277.25</ele>
        <time>2021-06-13T08:24:32Z</time>
      </trkpt>
      <trkpt lat="45.35819" lon="5.90919">
        <ele>1279.65</ele>
        <time>2021-06-13T08:24:48Z</time>
      </trkpt>
      <trkpt lat="45.35816" lon="5.90917">
        <ele>1281.09</ele>
        <time>2021-06-13T08:25:04Z</time>
      </trkpt>
      <trkpt lat="45.35815" lon="5.90909">
        <ele>1281.57</ele>
        <time>2021-06-13T08:25:17Z</time>
      </trkpt>
      <trkpt lat="45.35815" lon="5.90906">
        <ele>1281.57</ele>
        <time>2021-06-13T08:25:32Z</time>
      </trkpt>
      <trkpt lat="45.3581" lon="5.90894">
        <ele>1283.98</ele>
        <time>2021-06-13T08:25:53Z</time>
      </trkpt>
      <trkpt lat="45.35806" lon="5.90882">
        <ele>1286.86</ele>
        <time>2021-06-13T08:26:08Z</time>
      </trkpt>
      <trkpt lat="45.35806" lon="5.90868">
        <ele>1289.75</ele>
        <time>2021-06-13T08:26:23Z</time>
      </trkpt>
      <trkpt lat="45.35807" lon="5.90857">
        <ele>1292.63</ele>
        <time>2021-06-13T08:26:39Z</time>
      </trkpt>
      <trkpt lat="45.35807" lon="5.90848">
        <ele>1294.55</ele>
        <time>2021-06-13T08:26:51Z</time>
      </trkpt>
      <trkpt lat="45.35808" lon="5.90837">
        <ele>1296.96</ele>
        <time>2021-06-13T08:27:06Z</time>
      </trkpt>
      <trkpt lat="45.35812" lon="5.90827">
        <ele>1299.84</ele>
        <time>2021-06-13T08:27:23Z</time>
      </trkpt>
      <trkpt lat="45.35815" lon="5.90821">
        <ele>1302.72</ele>
        <time>2021-06-13T08:27:39Z</time>
      </trkpt>
      <trkpt lat="45.35816" lon="5.90816">
        <ele>1303.69</ele>
        <time>2021-06-13T08:27:45Z</time>
      </trkpt>
      <trkpt lat="45.35817" lon="5.90801">
        <ele>1306.09</ele>
        <time>2021-06-13T08:28:00Z</time>
      </trkpt>
      <trkpt lat="45.35819" lon="5.90793">
        <ele>1308.01</ele>
        <time>2021-06-13T08:28:13Z</time>
      </trkpt>
      <trkpt lat="45.35815" lon="5.90784">
        <ele>1310.9</ele>
        <time>2021-06-13T08:28:30Z</time>
      </trkpt>
      <trkpt lat="45.35815" lon="5.90775">
        <ele>1313.3</ele>
        <time>2021-06-13T08:28:44Z</time>
      </trkpt>
      <trkpt lat="45.35817" lon="5.90773">
        <ele>1315.22</ele>
        <time>2021-06-13T08:28:57Z</time>
      </trkpt>
      <trkpt lat="45.35805" lon="5.90764">
        <ele>1317.62</ele>
        <time>2021-06-13T08:29:10Z</time>
      </trkpt>
      <trkpt lat="45.35797" lon="5.9076">
        <ele>1319.07</ele>
        <time>2021-06-13T08:29:25Z</time>
      </trkpt>
      <trkpt lat="45.35781" lon="5.90753">
        <ele>1320.03</ele>
        <time>2021-06-13T08:29:44Z</time>
      </trkpt>
      <trkpt lat="45.35772" lon="5.90743">
        <ele>1322.43</ele>
        <time>2021-06-13T08:30:02Z</time>
      </trkpt>
      <trkpt lat="45.35768" lon="5.90737">
        <ele>1324.83</ele>
        <time>2021-06-13T08:30:18Z</time>
      </trkpt>
      <trkpt lat="45.35759" lon="5.90725">
        <ele>1328.2</ele>
        <time>2021-06-13T08:30:35Z</time>
      </trkpt>
      <trkpt lat="45.35755" lon="5.90717">
        <ele>1330.6</ele>
        <time>2021-06-13T08:30:47Z</time>
      </trkpt>
      <trkpt lat="45.35749" lon="5.90708">
        <ele>1332.52</ele>
        <time>2021-06-13T08:31:03Z</time>
      </trkpt>
      <trkpt lat="45.35744" lon="5.90698">
        <ele>1334.45</ele>
        <time>2021-06-13T08:31:18Z</time>
      </trkpt>
      <trkpt lat="45.35741" lon="5.90681">
        <ele>1336.85</ele>
        <time>2021-06-13T08:31:34Z</time>
      </trkpt>
      <trkpt lat="45.35738" lon="5.90665">
        <ele>1339.73</ele>
        <time>2021-06-13T08:31:52Z</time>
      </trkpt>
      <trkpt lat="45.35738" lon="5.90655">
        <ele>1342.62</ele>
        <time>2021-06-13T08:32:05Z</time>
      </trkpt>
      <trkpt lat="45.35735" lon="5.90651">
        <ele>1343.58</ele>
        <time>2021-06-13T08:32:14Z</time>
      </trkpt>
      <trkpt lat="45.35727" lon="5.90636">
        <ele>1345.5</ele>
        <time>2021-06-13T08:32:28Z</time>
      </trkpt>
      <trkpt lat="45.35726" lon="5.90629">
        <ele>1346.94</ele>
        <time>2021-06-13T08:32:41Z</time>
      </trkpt>
      <trkpt lat="45.35723" lon="5.90617">
        <ele>1348.87</ele>
        <time>2021-06-13T08:32:55Z</time>
      </trkpt>
      <trkpt lat="45.35722" lon="5.90608">
        <ele>1350.79</ele>
        <time>2021-06-13T08:33:07Z</time>
      </trkpt>
      <trkpt lat="45.35716" lon="5.90602">
        <ele>1352.71</ele>
        <time>2021-06-13T08:33:20Z</time>
      </trkpt>
      <trkpt lat="45.35704" lon="5.9059">
        <ele>1355.12</ele>
        <time>2021-06-13T08:33:35Z</time>
      </trkpt>
      <trkpt lat="45.35693" lon="5.90581">
        <ele>1357.52</ele>
        <time>2021-06-13T08:33:49Z</time>
      </trkpt>
      <trkpt lat="45.35689" lon="5.90578">
        <ele>1358.48</ele>
        <time>2021-06-13T08:33:55Z</time>
      </trkpt>
      <trkpt lat="45.35685" lon="5.90572">
        <ele>1360.88</ele>
        <time>2021-06-13T08:34:09Z</time>
      </trkpt>
      <trkpt lat="45.35679" lon="5.90565">
        <ele>1361.84</ele>
        <time>2021-06-13T08:34:23Z</time>
      </trkpt>
      <trkpt lat="45.35677" lon="5.90561">
        <ele>1363.29</ele>
        <time>2021-06-13T08:34:40Z</time>
      </trkpt>
      <trkpt lat="45.35681" lon="5.90551">
        <ele>1365.21</ele>
        <time>2021-06-13T08:35:02Z</time>
      </trkpt>
      <trkpt lat="45.35683" lon="5.90547">
        <ele>1366.65</ele>
        <time>2021-06-13T08:35:20Z</time>
      </trkpt>
      <trkpt lat="45.35679" lon="5.90541">
        <ele>1366.65</ele>
        <time>2021-06-13T08:35:45Z</time>
      </trkpt>
      <trkpt lat="45.35685" lon="5.90541">
        <ele>1367.13</ele>
        <time>2021-06-13T08:36:04Z</time>
      </trkpt>
      <trkpt lat="45.35681" lon="5.90542">
        <ele>1366.65</ele>
        <time>2021-06-13T08:36:25Z</time>
      </trkpt>
      <trkpt lat="45.3568" lon="5.90544">
        <ele>1365.69</ele>
        <time>2021-06-13T08:36:49Z</time>
      </trkpt>
      <trkpt lat="45.3568" lon="5.90546">
        <ele>1364.73</ele>
        <time>2021-06-13T08:36:53Z</time>
      </trkpt>
      <trkpt lat="45.35677" lon="5.9055">
        <ele>1363.77</ele>
        <time>2021-06-13T08:36:55Z</time>
      </trkpt>
      <trkpt lat="45.35666" lon="5.90543">
        <ele>1366.65</ele>
        <time>2021-06-13T08:37:09Z</time>
      </trkpt>
      <trkpt lat="45.35663" lon="5.90533">
        <ele>1369.05</ele>
        <time>2021-06-13T08:37:25Z</time>
      </trkpt>
      <trkpt lat="45.35658" lon="5.90527">
        <ele>1370.5</ele>
        <time>2021-06-13T08:37:44Z</time>
      </trkpt>
      <trkpt lat="45.35658" lon="5.90527">
        <ele>1370.98</ele>
        <time>2021-06-13T08:38:10Z</time>
      </trkpt>
      <trkpt lat="45.35658" lon="5.90527">
        <ele>1370.98</ele>
        <time>2021-06-13T08:38:34Z</time>
      </trkpt>
      <trkpt lat="45.35657" lon="5.90526">
        <ele>1371.94</ele>
        <time>2021-06-13T08:39:04Z</time>
      </trkpt>
      <trkpt lat="45.35657" lon="5.90525">
        <ele>1371.94</ele>
        <time>2021-06-13T08:39:10Z</time>
      </trkpt>
      <trkpt lat="45.35654" lon="5.90511">
        <ele>1374.34</ele>
        <time>2021-06-13T08:39:24Z</time>
      </trkpt>
      <trkpt lat="45.35653" lon="5.90505">
        <ele>1374.34</ele>
        <time>2021-06-13T08:39:40Z</time>
      </trkpt>
      <trkpt lat="45.35653" lon="5.90501">
        <ele>1375.78</ele>
        <time>2021-06-13T08:39:42Z</time>
      </trkpt>
      <trkpt lat="45.35652" lon="5.90487">
        <ele>1377.71</ele>
        <time>2021-06-13T08:39:54Z</time>
      </trkpt>
      <trkpt lat="45.3565" lon="5.90469">
        <ele>1380.11</ele>
        <time>2021-06-13T08:40:10Z</time>
      </trkpt>
      <trkpt lat="45.35648" lon="5.90457">
        <ele>1382.03</ele>
        <time>2021-06-13T08:40:22Z</time>
      </trkpt>
      <trkpt lat="45.35645" lon="5.90443">
        <ele>1385.4</ele>
        <time>2021-06-13T08:40:37Z</time>
      </trkpt>
      <trkpt lat="45.35638" lon="5.90433">
        <ele>1386.84</ele>
        <time>2021-06-13T08:40:52Z</time>
      </trkpt>
      <trkpt lat="45.3563" lon="5.90414">
        <ele>1388.28</ele>
        <time>2021-06-13T08:41:09Z</time>
      </trkpt>
      <trkpt lat="45.35624" lon="5.904">
        <ele>1391.17</ele>
        <time>2021-06-13T08:41:26Z</time>
      </trkpt>
      <trkpt lat="45.35615" lon="5.9039">
        <ele>1392.61</ele>
        <time>2021-06-13T08:41:41Z</time>
      </trkpt>
      <trkpt lat="45.35606" lon="5.90382">
        <ele>1394.05</ele>
        <time>2021-06-13T08:41:54Z</time>
      </trkpt>
      <trkpt lat="45.35601" lon="5.90375">
        <ele>1395.49</ele>
        <time>2021-06-13T08:42:08Z</time>
      </trkpt>
      <trkpt lat="45.35591" lon="5.90365">
        <ele>1398.37</ele>
        <time>2021-06-13T08:42:27Z</time>
      </trkpt>
      <trkpt lat="45.35589" lon="5.90361">
        <ele>1400.78</ele>
        <time>2021-06-13T08:42:41Z</time>
      </trkpt>
      <trkpt lat="45.3557" lon="5.9035">
        <ele>1402.7</ele>
        <time>2021-06-13T08:42:55Z</time>
      </trkpt>
      <trkpt lat="45.35562" lon="5.90341">
        <ele>1406.07</ele>
        <time>2021-06-13T08:43:12Z</time>
      </trkpt>
      <trkpt lat="45.35543" lon="5.90341">
        <ele>1409.43</ele>
        <time>2021-06-13T08:43:30Z</time>
      </trkpt>
      <trkpt lat="45.35539" lon="5.9034">
        <ele>1411.35</ele>
        <time>2021-06-13T08:43:46Z</time>
      </trkpt>
      <trkpt lat="45.35533" lon="5.90336">
        <ele>1413.28</ele>
        <time>2021-06-13T08:44:10Z</time>
      </trkpt>
      <trkpt lat="45.35519" lon="5.90333">
        <ele>1416.16</ele>
        <time>2021-06-13T08:44:25Z</time>
      </trkpt>
      <trkpt lat="45.3552" lon="5.90319">
        <ele>1419.04</ele>
        <time>2021-06-13T08:44:42Z</time>
      </trkpt>
      <trkpt lat="45.35519" lon="5.90311">
        <ele>1421.93</ele>
        <time>2021-06-13T08:44:57Z</time>
      </trkpt>
      <trkpt lat="45.35519" lon="5.90308">
        <ele>1425.29</ele>
        <time>2021-06-13T08:45:15Z</time>
      </trkpt>
      <trkpt lat="45.35525" lon="5.90295">
        <ele>1427.7</ele>
        <time>2021-06-13T08:45:32Z</time>
      </trkpt>
      <trkpt lat="45.35519" lon="5.90283">
        <ele>1430.58</ele>
        <time>2021-06-13T08:45:49Z</time>
      </trkpt>
      <trkpt lat="45.35507" lon="5.9028">
        <ele>1432.5</ele>
        <time>2021-06-13T08:46:04Z</time>
      </trkpt>
      <trkpt lat="45.35499" lon="5.90285">
        <ele>1434.91</ele>
        <time>2021-06-13T08:46:19Z</time>
      </trkpt>
      <trkpt lat="45.35497" lon="5.90286">
        <ele>1435.87</ele>
        <time>2021-06-13T08:46:26Z</time>
      </trkpt>
      <trkpt lat="45.35485" lon="5.90291">
        <ele>1438.27</ele>
        <time>2021-06-13T08:46:39Z</time>
      </trkpt>
      <trkpt lat="45.35475" lon="5.90289">
        <ele>1440.67</ele>
        <time>2021-06-13T08:46:55Z</time>
      </trkpt>
      <trkpt lat="45.35474" lon="5.90288">
        <ele>1441.15</ele>
        <time>2021-06-13T08:46:56Z</time>
      </trkpt>
      <trkpt lat="45.35474" lon="5.90283">
        <ele>1442.11</ele>
        <time>2021-06-13T08:47:09Z</time>
      </trkpt>
      <trkpt lat="45.35474" lon="5.90288">
        <ele>1441.63</ele>
        <time>2021-06-13T08:47:23Z</time>
      </trkpt>
      <trkpt lat="45.35474" lon="5.90288">
        <ele>1441.63</ele>
        <time>2021-06-13T08:47:51Z</time>
      </trkpt>
      <trkpt lat="45.35475" lon="5.90286">
        <ele>1441.63</ele>
        <time>2021-06-13T08:48:08Z</time>
      </trkpt>
      <trkpt lat="45.35475" lon="5.90285">
        <ele>1440.67</ele>
        <time>2021-06-13T08:48:15Z</time>
      </trkpt>
      <trkpt lat="45.35475" lon="5.90285">
        <ele>1440.67</ele>
        <time>2021-06-13T08:48:32Z</time>
      </trkpt>
      <trkpt lat="45.35475" lon="5.90284">
        <ele>1441.15</ele>
        <time>2021-06-13T08:48:57Z</time>
      </trkpt>
      <trkpt lat="45.35475" lon="5.90285">
        <ele>1441.15</ele>
        <time>2021-06-13T08:49:21Z</time>
      </trkpt>
      <trkpt lat="45.35475" lon="5.90285">
        <ele>1441.15</ele>
        <time>2021-06-13T08:49:53Z</time>
      </trkpt>
      <trkpt lat="45.35475" lon="5.90285">
        <ele>1441.15</ele>
        <time>2021-06-13T08:50:25Z</time>
      </trkpt>
      <trkpt lat="45.35475" lon="5.90285">
        <ele>1442.6</ele>
        <time>2021-06-13T08:50:40Z</time>
      </trkpt>
      <trkpt lat="45.35475" lon="5.90286">
        <ele>1442.6</ele>
        <time>2021-06-13T08:50:45Z</time>
      </trkpt>
      <trkpt lat="45.35475" lon="5.90284">
        <ele>1442.6</ele>
        <time>2021-06-13T08:50:55Z</time>
      </trkpt>
      <trkpt lat="45.35475" lon="5.90285">
        <ele>1442.6</ele>
        <time>2021-06-13T08:51:12Z</time>
      </trkpt>
      <trkpt lat="45.35475" lon="5.90286">
        <ele>1442.6</ele>
        <time>2021-06-13T08:51:32Z</time>
      </trkpt>
      <trkpt lat="45.35473" lon="5.90286">
        <ele>1442.6</ele>
        <time>2021-06-13T08:51:47Z</time>
      </trkpt>
      <trkpt lat="45.35473" lon="5.90286">
        <ele>1442.6</ele>
        <time>2021-06-13T08:52:11Z</time>
      </trkpt>
      <trkpt lat="45.35474" lon="5.90287">
        <ele>1443.08</ele>
        <time>2021-06-13T08:52:42Z</time>
      </trkpt>
      <trkpt lat="45.35474" lon="5.90287">
        <ele>1443.08</ele>
        <time>2021-06-13T08:52:59Z</time>
      </trkpt>
      <trkpt lat="45.35473" lon="5.90287">
        <ele>1443.08</ele>
        <time>2021-06-13T08:53:16Z</time>
      </trkpt>
      <trkpt lat="45.35473" lon="5.90287">
        <ele>1443.56</ele>
        <time>2021-06-13T08:53:43Z</time>
      </trkpt>
      <trkpt lat="45.35473" lon="5.90287">
        <ele>1443.56</ele>
        <time>2021-06-13T08:54:06Z</time>
      </trkpt>
      <trkpt lat="45.35473" lon="5.90287">
        <ele>1443.56</ele>
        <time>2021-06-13T08:54:29Z</time>
      </trkpt>
      <trkpt lat="45.35475" lon="5.90284">
        <ele>1444.04</ele>
        <time>2021-06-13T08:54:32Z</time>
      </trkpt>
      <trkpt lat="45.35478" lon="5.90279">
        <ele>1444.04</ele>
        <time>2021-06-13T08:54:38Z</time>
      </trkpt>
      <trkpt lat="45.35481" lon="5.9028">
        <ele>1444.04</ele>
        <time>2021-06-13T08:54:45Z</time>
      </trkpt>
      <trkpt lat="45.35483" lon="5.90274">
        <ele>1444.04</ele>
        <time>2021-06-13T08:54:48Z</time>
      </trkpt>
      <trkpt lat="45.35488" lon="5.90262">
        <ele>1444.04</ele>
        <time>2021-06-13T08:54:57Z</time>
      </trkpt>
      <trkpt lat="45.35499" lon="5.90246">
        <ele>1445.48</ele>
        <time>2021-06-13T08:55:13Z</time>
      </trkpt>
      <trkpt lat="45.35508" lon="5.90238">
        <ele>1446.44</ele>
        <time>2021-06-13T08:55:25Z</time>
      </trkpt>
      <trkpt lat="45.35525" lon="5.90231">
        <ele>1446.92</ele>
        <time>2021-06-13T08:55:42Z</time>
      </trkpt>
      <trkpt lat="45.35538" lon="5.90231">
        <ele>1448.36</ele>
        <time>2021-06-13T08:55:58Z</time>
      </trkpt>
      <trkpt lat="45.35536" lon="5.90233">
        <ele>1448.36</ele>
        <time>2021-06-13T08:56:09Z</time>
      </trkpt>
      <trkpt lat="45.35532" lon="5.90232">
        <ele>1448.36</ele>
        <time>2021-06-13T08:56:13Z</time>
      </trkpt>
      <trkpt lat="45.35529" lon="5.90232">
        <ele>1447.88</ele>
        <time>2021-06-13T08:56:16Z</time>
      </trkpt>
      <trkpt lat="45.35527" lon="5.90233">
        <ele>1447.88</ele>
        <time>2021-06-13T08:56:18Z</time>
      </trkpt>
      <trkpt lat="45.35518" lon="5.90234">
        <ele>1447.4</ele>
        <time>2021-06-13T08:56:26Z</time>
      </trkpt>
      <trkpt lat="45.35517" lon="5.90235">
        <ele>1447.4</ele>
        <time>2021-06-13T08:56:28Z</time>
      </trkpt>
      <trkpt lat="45.35509" lon="5.90237">
        <ele>1446.44</ele>
        <time>2021-06-13T08:56:35Z</time>
      </trkpt>
      <trkpt lat="45.35501" lon="5.90244">
        <ele>1446.44</ele>
        <time>2021-06-13T08:56:44Z</time>
      </trkpt>
      <trkpt lat="45.35499" lon="5.90246">
        <ele>1445.96</ele>
        <time>2021-06-13T08:56:46Z</time>
      </trkpt>
      <trkpt lat="45.35495" lon="5.90254">
        <ele>1445.48</ele>
        <time>2021-06-13T08:56:52Z</time>
      </trkpt>
      <trkpt lat="45.35491" lon="5.90259">
        <ele>1445</ele>
        <time>2021-06-13T08:56:56Z</time>
      </trkpt>
      <trkpt lat="45.35487" lon="5.90267">
        <ele>1444.52</ele>
        <time>2021-06-13T08:57:01Z</time>
      </trkpt>
      <trkpt lat="45.35477" lon="5.90285">
        <ele>1444.52</ele>
        <time>2021-06-13T08:57:17Z</time>
      </trkpt>
      <trkpt lat="45.35471" lon="5.90289">
        <ele>1445</ele>
        <time>2021-06-13T08:57:29Z</time>
      </trkpt>
      <trkpt lat="45.35469" lon="5.90288">
        <ele>1445</ele>
        <time>2021-06-13T08:57:41Z</time>
      </trkpt>
      <trkpt lat="45.35473" lon="5.9028">
        <ele>1446.92</ele>
        <time>2021-06-13T08:57:53Z</time>
      </trkpt>
      <trkpt lat="45.35474" lon="5.90265">
        <ele>1449.81</ele>
        <time>2021-06-13T08:58:07Z</time>
      </trkpt>
      <trkpt lat="45.35472" lon="5.90253">
        <ele>1452.69</ele>
        <time>2021-06-13T08:58:19Z</time>
      </trkpt>
      <trkpt lat="45.35471" lon="5.9024">
        <ele>1454.61</ele>
        <time>2021-06-13T08:58:32Z</time>
      </trkpt>
      <trkpt lat="45.35471" lon="5.90232">
        <ele>1455.09</ele>
        <time>2021-06-13T08:58:37Z</time>
      </trkpt>
      <trkpt lat="45.35475" lon="5.90217">
        <ele>1457.02</ele>
        <time>2021-06-13T08:58:51Z</time>
      </trkpt>
      <trkpt lat="45.35475" lon="5.90211">
        <ele>1457.5</ele>
        <time>2021-06-13T08:58:56Z</time>
      </trkpt>
      <trkpt lat="45.35475" lon="5.90206">
        <ele>1457.5</ele>
        <time>2021-06-13T08:58:59Z</time>
      </trkpt>
      <trkpt lat="45.35479" lon="5.90194">
        <ele>1458.94</ele>
        <time>2021-06-13T08:59:14Z</time>
      </trkpt>
      <trkpt lat="45.35483" lon="5.90181">
        <ele>1460.38</ele>
        <time>2021-06-13T08:59:27Z</time>
      </trkpt>
      <trkpt lat="45.35486" lon="5.90175">
        <ele>1461.34</ele>
        <time>2021-06-13T08:59:42Z</time>
      </trkpt>
      <trkpt lat="45.3549" lon="5.90164">
        <ele>1462.3</ele>
        <time>2021-06-13T08:59:56Z</time>
      </trkpt>
      <trkpt lat="45.35498" lon="5.90156">
        <ele>1464.23</ele>
        <time>2021-06-13T09:00:10Z</time>
      </trkpt>
      <trkpt lat="45.35512" lon="5.90146">
        <ele>1467.59</ele>
        <time>2021-06-13T09:00:27Z</time>
      </trkpt>
      <trkpt lat="45.35515" lon="5.90144">
        <ele>1468.55</ele>
        <time>2021-06-13T09:00:41Z</time>
      </trkpt>
      <trkpt lat="45.35511" lon="5.90137">
        <ele>1471.92</ele>
        <time>2021-06-13T09:00:58Z</time>
      </trkpt>
      <trkpt lat="45.35505" lon="5.90131">
        <ele>1469.03</ele>
        <time>2021-06-13T09:01:13Z</time>
      </trkpt>
      <trkpt lat="45.35505" lon="5.9013">
        <ele>1469.03</ele>
        <time>2021-06-13T09:01:33Z</time>
      </trkpt>
      <trkpt lat="45.35503" lon="5.90128">
        <ele>1469.99</ele>
        <time>2021-06-13T09:01:58Z</time>
      </trkpt>
      <trkpt lat="45.35503" lon="5.90128">
        <ele>1469.03</ele>
        <time>2021-06-13T09:02:26Z</time>
      </trkpt>
      <trkpt lat="45.35507" lon="5.90126">
        <ele>1470.95</ele>
        <time>2021-06-13T09:02:45Z</time>
      </trkpt>
      <trkpt lat="45.35513" lon="5.90142">
        <ele>1469.99</ele>
        <time>2021-06-13T09:03:02Z</time>
      </trkpt>
      <trkpt lat="45.35518" lon="5.90149">
        <ele>1469.51</ele>
        <time>2021-06-13T09:03:10Z</time>
      </trkpt>
      <trkpt lat="45.3552" lon="5.90157">
        <ele>1469.51</ele>
        <time>2021-06-13T09:03:17Z</time>
      </trkpt>
      <trkpt lat="45.35522" lon="5.90159">
        <ele>1469.51</ele>
        <time>2021-06-13T09:03:19Z</time>
      </trkpt>
      <trkpt lat="45.35531" lon="5.90161">
        <ele>1471.44</ele>
        <time>2021-06-13T09:03:30Z</time>
      </trkpt>
      <trkpt lat="45.35542" lon="5.90161">
        <ele>1473.84</ele>
        <time>2021-06-13T09:03:43Z</time>
      </trkpt>
      <trkpt lat="45.35549" lon="5.90162">
        <ele>1476.24</ele>
        <time>2021-06-13T09:03:56Z</time>
      </trkpt>
      <trkpt lat="45.35558" lon="5.90159">
        <ele>1479.13</ele>
        <time>2021-06-13T09:04:11Z</time>
      </trkpt>
      <trkpt lat="45.35566" lon="5.90158">
        <ele>1482.01</ele>
        <time>2021-06-13T09:04:28Z</time>
      </trkpt>
      <trkpt lat="45.35569" lon="5.90157">
        <ele>1483.45</ele>
        <time>2021-06-13T09:04:46Z</time>
      </trkpt>
      <trkpt lat="45.3558" lon="5.90156">
        <ele>1486.82</ele>
        <time>2021-06-13T09:05:03Z</time>
      </trkpt>
      <trkpt lat="45.35591" lon="5.90152">
        <ele>1489.7</ele>
        <time>2021-06-13T09:05:22Z</time>
      </trkpt>
      <trkpt lat="45.35595" lon="5.90154">
        <ele>1491.14</ele>
        <time>2021-06-13T09:05:41Z</time>
      </trkpt>
      <trkpt lat="45.35604" lon="5.90154">
        <ele>1493.55</ele>
        <time>2021-06-13T09:05:58Z</time>
      </trkpt>
      <trkpt lat="45.35612" lon="5.90154">
        <ele>1495.47</ele>
        <time>2021-06-13T09:06:14Z</time>
      </trkpt>
      <trkpt lat="45.3562" lon="5.9015">
        <ele>1498.35</ele>
        <time>2021-06-13T09:06:27Z</time>
      </trkpt>
      <trkpt lat="45.35628" lon="5.9015">
        <ele>1500.76</ele>
        <time>2021-06-13T09:06:43Z</time>
      </trkpt>
      <trkpt lat="45.35631" lon="5.90153">
        <ele>1501.24</ele>
        <time>2021-06-13T09:06:57Z</time>
      </trkpt>
      <trkpt lat="45.35632" lon="5.90154">
        <ele>1504.12</ele>
        <time>2021-06-13T09:07:03Z</time>
      </trkpt>
      <trkpt lat="45.35632" lon="5.90154">
        <ele>1504.12</ele>
        <time>2021-06-13T09:07:04Z</time>
      </trkpt>
      <trkpt lat="45.35638" lon="5.90154">
        <ele>1507</ele>
        <time>2021-06-13T09:07:19Z</time>
      </trkpt>
      <trkpt lat="45.35648" lon="5.90154">
        <ele>1509.89</ele>
        <time>2021-06-13T09:07:35Z</time>
      </trkpt>
      <trkpt lat="45.35656" lon="5.90152">
        <ele>1511.81</ele>
        <time>2021-06-13T09:07:48Z</time>
      </trkpt>
      <trkpt lat="45.35667" lon="5.90151">
        <ele>1514.69</ele>
        <time>2021-06-13T09:08:02Z</time>
      </trkpt>
      <trkpt lat="45.3567" lon="5.90148">
        <ele>1516.14</ele>
        <time>2021-06-13T09:08:16Z</time>
      </trkpt>
      <trkpt lat="45.35673" lon="5.90148">
        <ele>1517.1</ele>
        <time>2021-06-13T09:08:37Z</time>
      </trkpt>
      <trkpt lat="45.35674" lon="5.90147">
        <ele>1518.06</ele>
        <time>2021-06-13T09:08:40Z</time>
      </trkpt>
      <trkpt lat="45.35678" lon="5.90147">
        <ele>1519.5</ele>
        <time>2021-06-13T09:08:57Z</time>
      </trkpt>
      <trkpt lat="45.35684" lon="5.90144">
        <ele>1521.42</ele>
        <time>2021-06-13T09:09:11Z</time>
      </trkpt>
      <trkpt lat="45.3569" lon="5.90138">
        <ele>1524.79</ele>
        <time>2021-06-13T09:09:24Z</time>
      </trkpt>
      <trkpt lat="45.3569" lon="5.90138">
        <ele>1524.79</ele>
        <time>2021-06-13T09:09:48Z</time>
      </trkpt>
      <trkpt lat="45.35689" lon="5.90137">
        <ele>1524.79</ele>
        <time>2021-06-13T09:10:15Z</time>
      </trkpt>
      <trkpt lat="45.35685" lon="5.90139">
        <ele>1524.79</ele>
        <time>2021-06-13T09:10:40Z</time>
      </trkpt>
      <trkpt lat="45.35691" lon="5.90146">
        <ele>1523.83</ele>
        <time>2021-06-13T09:10:53Z</time>
      </trkpt>
      <trkpt lat="45.35691" lon="5.90146">
        <ele>1523.83</ele>
        <time>2021-06-13T09:11:20Z</time>
      </trkpt>
      <trkpt lat="45.35696" lon="5.90145">
        <ele>1526.71</ele>
        <time>2021-06-13T09:11:31Z</time>
      </trkpt>
      <trkpt lat="45.35702" lon="5.90143">
        <ele>1527.19</ele>
        <time>2021-06-13T09:11:45Z</time>
      </trkpt>
      <trkpt lat="45.35701" lon="5.90143">
        <ele>1529.59</ele>
        <time>2021-06-13T09:11:53Z</time>
      </trkpt>
      <trkpt lat="45.357" lon="5.9014">
        <ele>1531.52</ele>
        <time>2021-06-13T09:12:11Z</time>
      </trkpt>
      <trkpt lat="45.35703" lon="5.90138">
        <ele>1534.4</ele>
        <time>2021-06-13T09:12:25Z</time>
      </trkpt>
      <trkpt lat="45.35708" lon="5.90136">
        <ele>1537.29</ele>
        <time>2021-06-13T09:12:40Z</time>
      </trkpt>
      <trkpt lat="45.35712" lon="5.90132">
        <ele>1540.65</ele>
        <time>2021-06-13T09:12:56Z</time>
      </trkpt>
      <trkpt lat="45.35713" lon="5.90131">
        <ele>1543.53</ele>
        <time>2021-06-13T09:13:14Z</time>
      </trkpt>
      <trkpt lat="45.35727" lon="5.9012">
        <ele>1546.9</ele>
        <time>2021-06-13T09:13:30Z</time>
      </trkpt>
      <trkpt lat="45.35738" lon="5.90115">
        <ele>1547.38</ele>
        <time>2021-06-13T09:13:46Z</time>
      </trkpt>
      <trkpt lat="45.35739" lon="5.90116">
        <ele>1550.26</ele>
        <time>2021-06-13T09:14:03Z</time>
      </trkpt>
      <trkpt lat="45.35744" lon="5.90114">
        <ele>1553.15</ele>
        <time>2021-06-13T09:14:20Z</time>
      </trkpt>
      <trkpt lat="45.35749" lon="5.9011">
        <ele>1556.03</ele>
        <time>2021-06-13T09:14:36Z</time>
      </trkpt>
      <trkpt lat="45.35754" lon="5.90108">
        <ele>1558.92</ele>
        <time>2021-06-13T09:14:51Z</time>
      </trkpt>
      <trkpt lat="45.35758" lon="5.90104">
        <ele>1561.8</ele>
        <time>2021-06-13T09:15:08Z</time>
      </trkpt>
      <trkpt lat="45.35761" lon="5.90102">
        <ele>1563.72</ele>
        <time>2021-06-13T09:15:22Z</time>
      </trkpt>
      <trkpt lat="45.35761" lon="5.90102">
        <ele>1563.72</ele>
        <time>2021-06-13T09:15:51Z</time>
      </trkpt>
      <trkpt lat="45.35764" lon="5.90101">
        <ele>1566.61</ele>
        <time>2021-06-13T09:16:15Z</time>
      </trkpt>
      <trkpt lat="45.35765" lon="5.901">
        <ele>1568.53</ele>
        <time>2021-06-13T09:16:37Z</time>
      </trkpt>
      <trkpt lat="45.3578" lon="5.90098">
        <ele>1571.89</ele>
        <time>2021-06-13T09:16:53Z</time>
      </trkpt>
      <trkpt lat="45.35789" lon="5.901">
        <ele>1573.82</ele>
        <time>2021-06-13T09:17:14Z</time>
      </trkpt>
      <trkpt lat="45.35793" lon="5.90096">
        <ele>1574.3</ele>
        <time>2021-06-13T09:17:37Z</time>
      </trkpt>
      <trkpt lat="45.35797" lon="5.90099">
        <ele>1576.22</ele>
        <time>2021-06-13T09:17:54Z</time>
      </trkpt>
      <trkpt lat="45.35809" lon="5.90103">
        <ele>1578.14</ele>
        <time>2021-06-13T09:18:13Z</time>
      </trkpt>
      <trkpt lat="45.35809" lon="5.90102">
        <ele>1578.14</ele>
        <time>2021-06-13T09:18:34Z</time>
      </trkpt>
      <trkpt lat="45.35809" lon="5.90104">
        <ele>1578.14</ele>
        <time>2021-06-13T09:18:55Z</time>
      </trkpt>
      <trkpt lat="45.35809" lon="5.90104">
        <ele>1578.14</ele>
        <time>2021-06-13T09:19:17Z</time>
      </trkpt>
      <trkpt lat="45.35811" lon="5.90104">
        <ele>1578.14</ele>
        <time>2021-06-13T09:19:38Z</time>
      </trkpt>
      <trkpt lat="45.35816" lon="5.90106">
        <ele>1580.54</ele>
        <time>2021-06-13T09:19:55Z</time>
      </trkpt>
      <trkpt lat="45.35816" lon="5.90105">
        <ele>1580.06</ele>
        <time>2021-06-13T09:20:18Z</time>
      </trkpt>
      <trkpt lat="45.35819" lon="5.90108">
        <ele>1581.03</ele>
        <time>2021-06-13T09:20:33Z</time>
      </trkpt>
      <trkpt lat="45.35824" lon="5.90108">
        <ele>1583.91</ele>
        <time>2021-06-13T09:20:51Z</time>
      </trkpt>
      <trkpt lat="45.35828" lon="5.90104">
        <ele>1586.31</ele>
        <time>2021-06-13T09:21:14Z</time>
      </trkpt>
      <trkpt lat="45.35839" lon="5.90102">
        <ele>1589.2</ele>
        <time>2021-06-13T09:21:29Z</time>
      </trkpt>
      <trkpt lat="45.35844" lon="5.90094">
        <ele>1592.08</ele>
        <time>2021-06-13T09:21:43Z</time>
      </trkpt>
      <trkpt lat="45.35849" lon="5.90094">
        <ele>1594.48</ele>
        <time>2021-06-13T09:21:57Z</time>
      </trkpt>
      <trkpt lat="45.35853" lon="5.90097">
        <ele>1597.85</ele>
        <time>2021-06-13T09:22:15Z</time>
      </trkpt>
      <trkpt lat="45.35865" lon="5.90097">
        <ele>1600.73</ele>
        <time>2021-06-13T09:22:34Z</time>
      </trkpt>
      <trkpt lat="45.35876" lon="5.90098">
        <ele>1603.62</ele>
        <time>2021-06-13T09:22:51Z</time>
      </trkpt>
      <trkpt lat="45.35886" lon="5.90096">
        <ele>1606.5</ele>
        <time>2021-06-13T09:23:08Z</time>
      </trkpt>
      <trkpt lat="45.35891" lon="5.90096">
        <ele>1608.9</ele>
        <time>2021-06-13T09:23:23Z</time>
      </trkpt>
      <trkpt lat="45.35892" lon="5.90095">
        <ele>1608.9</ele>
        <time>2021-06-13T09:23:46Z</time>
      </trkpt>
      <trkpt lat="45.35899" lon="5.90096">
        <ele>1609.86</ele>
        <time>2021-06-13T09:24:07Z</time>
      </trkpt>
      <trkpt lat="45.359" lon="5.90096">
        <ele>1610.35</ele>
        <time>2021-06-13T09:24:25Z</time>
      </trkpt>
      <trkpt lat="45.359" lon="5.90096">
        <ele>1610.35</ele>
        <time>2021-06-13T09:24:54Z</time>
      </trkpt>
      <trkpt lat="45.35909" lon="5.90099">
        <ele>1612.75</ele>
        <time>2021-06-13T09:25:12Z</time>
      </trkpt>
      <trkpt lat="45.35917" lon="5.90103">
        <ele>1615.15</ele>
        <time>2021-06-13T09:25:27Z</time>
      </trkpt>
      <trkpt lat="45.35923" lon="5.90107">
        <ele>1617.07</ele>
        <time>2021-06-13T09:25:43Z</time>
      </trkpt>
      <trkpt lat="45.35927" lon="5.90106">
        <ele>1618.52</ele>
        <time>2021-06-13T09:26:02Z</time>
      </trkpt>
      <trkpt lat="45.35932" lon="5.90105">
        <ele>1620.44</ele>
        <time>2021-06-13T09:26:19Z</time>
      </trkpt>
      <trkpt lat="45.35934" lon="5.90105">
        <ele>1621.4</ele>
        <time>2021-06-13T09:26:40Z</time>
      </trkpt>
      <trkpt lat="45.35937" lon="5.90107">
        <ele>1622.36</ele>
        <time>2021-06-13T09:27:02Z</time>
      </trkpt>
      <trkpt lat="45.35943" lon="5.90111">
        <ele>1623.32</ele>
        <time>2021-06-13T09:27:10Z</time>
      </trkpt>
      <trkpt lat="45.35955" lon="5.90115">
        <ele>1626.21</ele>
        <time>2021-06-13T09:27:25Z</time>
      </trkpt>
      <trkpt lat="45.35966" lon="5.90122">
        <ele>1628.13</ele>
        <time>2021-06-13T09:27:44Z</time>
      </trkpt>
      <trkpt lat="45.35972" lon="5.90125">
        <ele>1629.57</ele>
        <time>2021-06-13T09:27:56Z</time>
      </trkpt>
      <trkpt lat="45.3598" lon="5.90125">
        <ele>1631.49</ele>
        <time>2021-06-13T09:28:15Z</time>
      </trkpt>
      <trkpt lat="45.35989" lon="5.9013">
        <ele>1633.42</ele>
        <time>2021-06-13T09:28:31Z</time>
      </trkpt>
      <trkpt lat="45.35995" lon="5.9013">
        <ele>1634.38</ele>
        <time>2021-06-13T09:28:44Z</time>
      </trkpt>
      <trkpt lat="45.35999" lon="5.90136">
        <ele>1634.38</ele>
        <time>2021-06-13T09:28:58Z</time>
      </trkpt>
      <trkpt lat="45.36001" lon="5.9014">
        <ele>1635.34</ele>
        <time>2021-06-13T09:29:14Z</time>
      </trkpt>
      <trkpt lat="45.3601" lon="5.90146">
        <ele>1635.82</ele>
        <time>2021-06-13T09:29:30Z</time>
      </trkpt>
      <trkpt lat="45.36016" lon="5.90152">
        <ele>1634.38</ele>
        <time>2021-06-13T09:29:46Z</time>
      </trkpt>
      <trkpt lat="45.36025" lon="5.90156">
        <ele>1635.34</ele>
        <time>2021-06-13T09:29:58Z</time>
      </trkpt>
      <trkpt lat="45.3603" lon="5.90164">
        <ele>1635.34</ele>
        <time>2021-06-13T09:30:11Z</time>
      </trkpt>
      <trkpt lat="45.36042" lon="5.90172">
        <ele>1636.3</ele>
        <time>2021-06-13T09:30:29Z</time>
      </trkpt>
      <trkpt lat="45.36046" lon="5.90171">
        <ele>1637.74</ele>
        <time>2021-06-13T09:30:50Z</time>
      </trkpt>
      <trkpt lat="45.36053" lon="5.90178">
        <ele>1636.78</ele>
        <time>2021-06-13T09:31:06Z</time>
      </trkpt>
      <trkpt lat="45.3606" lon="5.90189">
        <ele>1636.78</ele>
        <time>2021-06-13T09:31:23Z</time>
      </trkpt>
      <trkpt lat="45.36069" lon="5.902">
        <ele>1636.78</ele>
        <time>2021-06-13T09:31:40Z</time>
      </trkpt>
      <trkpt lat="45.3608" lon="5.90207">
        <ele>1636.78</ele>
        <time>2021-06-13T09:31:57Z</time>
      </trkpt>
      <trkpt lat="45.36081" lon="5.90207">
        <ele>1636.78</ele>
        <time>2021-06-13T09:32:14Z</time>
      </trkpt>
      <trkpt lat="45.36083" lon="5.90215">
        <ele>1636.3</ele>
        <time>2021-06-13T09:32:35Z</time>
      </trkpt>
      <trkpt lat="45.36088" lon="5.90224">
        <ele>1633.9</ele>
        <time>2021-06-13T09:32:50Z</time>
      </trkpt>
      <trkpt lat="45.36093" lon="5.90231">
        <ele>1632.46</ele>
        <time>2021-06-13T09:33:05Z</time>
      </trkpt>
      <trkpt lat="45.36099" lon="5.90231">
        <ele>1633.9</ele>
        <time>2021-06-13T09:33:22Z</time>
      </trkpt>
      <trkpt lat="45.36107" lon="5.90238">
        <ele>1635.34</ele>
        <time>2021-06-13T09:33:41Z</time>
      </trkpt>
      <trkpt lat="45.3611" lon="5.9024">
        <ele>1635.82</ele>
        <time>2021-06-13T09:34:01Z</time>
      </trkpt>
      <trkpt lat="45.36111" lon="5.9024">
        <ele>1635.82</ele>
        <time>2021-06-13T09:34:22Z</time>
      </trkpt>
      <trkpt lat="45.36116" lon="5.90243">
        <ele>1635.82</ele>
        <time>2021-06-13T09:34:40Z</time>
      </trkpt>
      <trkpt lat="45.36125" lon="5.90252">
        <ele>1635.82</ele>
        <time>2021-06-13T09:34:54Z</time>
      </trkpt>
      <trkpt lat="45.36127" lon="5.90257">
        <ele>1638.22</ele>
        <time>2021-06-13T09:35:08Z</time>
      </trkpt>
      <trkpt lat="45.36146" lon="5.90263">
        <ele>1639.67</ele>
        <time>2021-06-13T09:35:24Z</time>
      </trkpt>
      <trkpt lat="45.36153" lon="5.90276">
        <ele>1640.15</ele>
        <time>2021-06-13T09:35:39Z</time>
      </trkpt>
      <trkpt lat="45.36155" lon="5.90278">
        <ele>1640.15</ele>
        <time>2021-06-13T09:35:54Z</time>
      </trkpt>
      <trkpt lat="45.36159" lon="5.90281">
        <ele>1640.63</ele>
        <time>2021-06-13T09:36:10Z</time>
      </trkpt>
      <trkpt lat="45.36168" lon="5.90284">
        <ele>1640.15</ele>
        <time>2021-06-13T09:36:30Z</time>
      </trkpt>
      <trkpt lat="45.36176" lon="5.90285">
        <ele>1640.15</ele>
        <time>2021-06-13T09:36:45Z</time>
      </trkpt>
      <trkpt lat="45.36182" lon="5.90285">
        <ele>1639.19</ele>
        <time>2021-06-13T09:37:06Z</time>
      </trkpt>
      <trkpt lat="45.36186" lon="5.90296">
        <ele>1636.78</ele>
        <time>2021-06-13T09:37:17Z</time>
      </trkpt>
      <trkpt lat="45.36192" lon="5.90302">
        <ele>1636.3</ele>
        <time>2021-06-13T09:37:31Z</time>
      </trkpt>
      <trkpt lat="45.36203" lon="5.90309">
        <ele>1636.3</ele>
        <time>2021-06-13T09:37:46Z</time>
      </trkpt>
      <trkpt lat="45.36207" lon="5.90316">
        <ele>1636.78</ele>
        <time>2021-06-13T09:37:56Z</time>
      </trkpt>
      <trkpt lat="45.36211" lon="5.9032">
        <ele>1636.3</ele>
        <time>2021-06-13T09:38:01Z</time>
      </trkpt>
      <trkpt lat="45.36215" lon="5.90324">
        <ele>1634.86</ele>
        <time>2021-06-13T09:38:14Z</time>
      </trkpt>
      <trkpt lat="45.36215" lon="5.90324">
        <ele>1635.82</ele>
        <time>2021-06-13T09:38:35Z</time>
      </trkpt>
      <trkpt lat="45.36215" lon="5.90326">
        <ele>1634.38</ele>
        <time>2021-06-13T09:38:58Z</time>
      </trkpt>
      <trkpt lat="45.36221" lon="5.9033">
        <ele>1633.9</ele>
        <time>2021-06-13T09:39:09Z</time>
      </trkpt>
      <trkpt lat="45.36227" lon="5.9033">
        <ele>1633.9</ele>
        <time>2021-06-13T09:39:30Z</time>
      </trkpt>
      <trkpt lat="45.36227" lon="5.90334">
        <ele>1633.42</ele>
        <time>2021-06-13T09:39:44Z</time>
      </trkpt>
      <trkpt lat="45.36234" lon="5.90346">
        <ele>1631.98</ele>
        <time>2021-06-13T09:40:02Z</time>
      </trkpt>
      <trkpt lat="45.36235" lon="5.90348">
        <ele>1631.49</ele>
        <time>2021-06-13T09:40:04Z</time>
      </trkpt>
      <trkpt lat="45.36241" lon="5.90349">
        <ele>1633.42</ele>
        <time>2021-06-13T09:40:17Z</time>
      </trkpt>
      <trkpt lat="45.36249" lon="5.90355">
        <ele>1633.42</ele>
        <time>2021-06-13T09:40:30Z</time>
      </trkpt>
      <trkpt lat="45.36257" lon="5.90358">
        <ele>1632.94</ele>
        <time>2021-06-13T09:40:46Z</time>
      </trkpt>
      <trkpt lat="45.36268" lon="5.90365">
        <ele>1632.94</ele>
        <time>2021-06-13T09:41:01Z</time>
      </trkpt>
      <trkpt lat="45.36276" lon="5.90371">
        <ele>1633.42</ele>
        <time>2021-06-13T09:41:17Z</time>
      </trkpt>
      <trkpt lat="45.36288" lon="5.90376">
        <ele>1633.42</ele>
        <time>2021-06-13T09:41:30Z</time>
      </trkpt>
      <trkpt lat="45.363" lon="5.90385">
        <ele>1633.42</ele>
        <time>2021-06-13T09:41:44Z</time>
      </trkpt>
      <trkpt lat="45.36308" lon="5.90391">
        <ele>1634.86</ele>
        <time>2021-06-13T09:41:58Z</time>
      </trkpt>
      <trkpt lat="45.36308" lon="5.90391">
        <ele>1634.86</ele>
        <time>2021-06-13T09:42:20Z</time>
      </trkpt>
      <trkpt lat="45.36306" lon="5.90392">
        <ele>1634.86</ele>
        <time>2021-06-13T09:42:41Z</time>
      </trkpt>
      <trkpt lat="45.3631" lon="5.90396">
        <ele>1635.34</ele>
        <time>2021-06-13T09:42:58Z</time>
      </trkpt>
      <trkpt lat="45.36316" lon="5.90405">
        <ele>1633.42</ele>
        <time>2021-06-13T09:43:13Z</time>
      </trkpt>
      <trkpt lat="45.36318" lon="5.90407">
        <ele>1632.94</ele>
        <time>2021-06-13T09:43:16Z</time>
      </trkpt>
      <trkpt lat="45.36327" lon="5.90404">
        <ele>1631.49</ele>
        <time>2021-06-13T09:43:35Z</time>
      </trkpt>
      <trkpt lat="45.3633" lon="5.9041">
        <ele>1631.01</ele>
        <time>2021-06-13T09:43:48Z</time>
      </trkpt>
      <trkpt lat="45.3633" lon="5.9041">
        <ele>1631.49</ele>
        <time>2021-06-13T09:43:54Z</time>
      </trkpt>
      <trkpt lat="45.3633" lon="5.9041">
        <ele>1630.53</ele>
        <time>2021-06-13T09:43:55Z</time>
      </trkpt>
      <trkpt lat="45.36332" lon="5.90415">
        <ele>1630.53</ele>
        <time>2021-06-13T09:44:12Z</time>
      </trkpt>
      <trkpt lat="45.36336" lon="5.90417">
        <ele>1631.49</ele>
        <time>2021-06-13T09:44:27Z</time>
      </trkpt>
      <trkpt lat="45.3634" lon="5.90425">
        <ele>1631.98</ele>
        <time>2021-06-13T09:44:43Z</time>
      </trkpt>
      <trkpt lat="45.36343" lon="5.90422">
        <ele>1631.98</ele>
        <time>2021-06-13T09:45:03Z</time>
      </trkpt>
      <trkpt lat="45.36343" lon="5.90423">
        <ele>1631.98</ele>
        <time>2021-06-13T09:45:12Z</time>
      </trkpt>
      <trkpt lat="45.36343" lon="5.90427">
        <ele>1631.01</ele>
        <time>2021-06-13T09:45:21Z</time>
      </trkpt>
      <trkpt lat="45.36343" lon="5.90425">
        <ele>1631.01</ele>
        <time>2021-06-13T09:45:50Z</time>
      </trkpt>
      <trkpt lat="45.36346" lon="5.90421">
        <ele>1631.01</ele>
        <time>2021-06-13T09:46:11Z</time>
      </trkpt>
      <trkpt lat="45.36345" lon="5.90423">
        <ele>1632.46</ele>
        <time>2021-06-13T09:46:23Z</time>
      </trkpt>
      <trkpt lat="45.36344" lon="5.90427">
        <ele>1631.98</ele>
        <time>2021-06-13T09:46:49Z</time>
      </trkpt>
      <trkpt lat="45.36344" lon="5.90427">
        <ele>1631.98</ele>
        <time>2021-06-13T09:47:04Z</time>
      </trkpt>
      <trkpt lat="45.36344" lon="5.90429">
        <ele>1631.98</ele>
        <time>2021-06-13T09:47:21Z</time>
      </trkpt>
      <trkpt lat="45.36345" lon="5.90425">
        <ele>1631.98</ele>
        <time>2021-06-13T09:47:39Z</time>
      </trkpt>
      <trkpt lat="45.3635" lon="5.90427">
        <ele>1631.49</ele>
        <time>2021-06-13T09:47:52Z</time>
      </trkpt>
      <trkpt lat="45.36353" lon="5.90429">
        <ele>1631.49</ele>
        <time>2021-06-13T09:48:11Z</time>
      </trkpt>
      <trkpt lat="45.36356" lon="5.90431">
        <ele>1631.01</ele>
        <time>2021-06-13T09:48:28Z</time>
      </trkpt>
      <trkpt lat="45.36367" lon="5.90436">
        <ele>1632.46</ele>
        <time>2021-06-13T09:48:47Z</time>
      </trkpt>
      <trkpt lat="45.36377" lon="5.90425">
        <ele>1632.46</ele>
        <time>2021-06-13T09:49:01Z</time>
      </trkpt>
      <trkpt lat="45.36386" lon="5.90422">
        <ele>1632.46</ele>
        <time>2021-06-13T09:49:15Z</time>
      </trkpt>
      <trkpt lat="45.36392" lon="5.90425">
        <ele>1634.38</ele>
        <time>2021-06-13T09:49:34Z</time>
      </trkpt>
      <trkpt lat="45.36391" lon="5.90431">
        <ele>1634.86</ele>
        <time>2021-06-13T09:49:53Z</time>
      </trkpt>
      <trkpt lat="45.3639" lon="5.9043">
        <ele>1634.86</ele>
        <time>2021-06-13T09:50:16Z</time>
      </trkpt>
      <trkpt lat="45.36393" lon="5.90433">
        <ele>1635.34</ele>
        <time>2021-06-13T09:50:34Z</time>
      </trkpt>
      <trkpt lat="45.36394" lon="5.90438">
        <ele>1635.34</ele>
        <time>2021-06-13T09:50:52Z</time>
      </trkpt>
      <trkpt lat="45.36393" lon="5.90446">
        <ele>1635.82</ele>
        <time>2021-06-13T09:51:14Z</time>
      </trkpt>
      <trkpt lat="45.36399" lon="5.90453">
        <ele>1634.86</ele>
        <time>2021-06-13T09:51:31Z</time>
      </trkpt>
      <trkpt lat="45.36398" lon="5.90451">
        <ele>1634.86</ele>
        <time>2021-06-13T09:51:53Z</time>
      </trkpt>
      <trkpt lat="45.36393" lon="5.90449">
        <ele>1635.82</ele>
        <time>2021-06-13T09:52:08Z</time>
      </trkpt>
      <trkpt lat="45.36394" lon="5.90438">
        <ele>1636.3</ele>
        <time>2021-06-13T09:52:19Z</time>
      </trkpt>
      <trkpt lat="45.36393" lon="5.90433">
        <ele>1636.3</ele>
        <time>2021-06-13T09:52:35Z</time>
      </trkpt>
      <trkpt lat="45.36393" lon="5.90432">
        <ele>1635.82</ele>
        <time>2021-06-13T09:52:52Z</time>
      </trkpt>
      <trkpt lat="45.36393" lon="5.90433">
        <ele>1635.34</ele>
        <time>2021-06-13T09:53:15Z</time>
      </trkpt>
      <trkpt lat="45.36392" lon="5.90432">
        <ele>1635.34</ele>
        <time>2021-06-13T09:53:33Z</time>
      </trkpt>
      <trkpt lat="45.36393" lon="5.90431">
        <ele>1635.34</ele>
        <time>2021-06-13T09:53:53Z</time>
      </trkpt>
      <trkpt lat="45.36392" lon="5.90432">
        <ele>1636.3</ele>
        <time>2021-06-13T09:54:13Z</time>
      </trkpt>
      <trkpt lat="45.36391" lon="5.90435">
        <ele>1636.3</ele>
        <time>2021-06-13T09:54:30Z</time>
      </trkpt>
      <trkpt lat="45.36389" lon="5.90435">
        <ele>1634.86</ele>
        <time>2021-06-13T09:54:50Z</time>
      </trkpt>
      <trkpt lat="45.36384" lon="5.90433">
        <ele>1633.42</ele>
        <time>2021-06-13T09:54:57Z</time>
      </trkpt>
      <trkpt lat="45.3638" lon="5.90427">
        <ele>1631.98</ele>
        <time>2021-06-13T09:55:08Z</time>
      </trkpt>
      <trkpt lat="45.3638" lon="5.9043">
        <ele>1630.05</ele>
        <time>2021-06-13T09:55:21Z</time>
      </trkpt>
      <trkpt lat="45.36375" lon="5.90435">
        <ele>1627.65</ele>
        <time>2021-06-13T09:55:34Z</time>
      </trkpt>
      <trkpt lat="45.36376" lon="5.90437">
        <ele>1625.73</ele>
        <time>2021-06-13T09:55:49Z</time>
      </trkpt>
      <trkpt lat="45.36377" lon="5.90441">
        <ele>1623.8</ele>
        <time>2021-06-13T09:55:57Z</time>
      </trkpt>
      <trkpt lat="45.36376" lon="5.90443">
        <ele>1622.84</ele>
        <time>2021-06-13T09:56:08Z</time>
      </trkpt>
      <trkpt lat="45.36377" lon="5.90447">
        <ele>1620.44</ele>
        <time>2021-06-13T09:56:21Z</time>
      </trkpt>
      <trkpt lat="45.36377" lon="5.90451">
        <ele>1617.56</ele>
        <time>2021-06-13T09:56:33Z</time>
      </trkpt>
      <trkpt lat="45.36381" lon="5.90457">
        <ele>1615.63</ele>
        <time>2021-06-13T09:56:47Z</time>
      </trkpt>
      <trkpt lat="45.36381" lon="5.90462">
        <ele>1615.15</ele>
        <time>2021-06-13T09:57:11Z</time>
      </trkpt>
      <trkpt lat="45.36388" lon="5.90465">
        <ele>1616.11</ele>
        <time>2021-06-13T09:57:26Z</time>
      </trkpt>
      <trkpt lat="45.36392" lon="5.90466">
        <ele>1618.04</ele>
        <time>2021-06-13T09:57:37Z</time>
      </trkpt>
      <trkpt lat="45.36396" lon="5.90465">
        <ele>1619</ele>
        <time>2021-06-13T09:57:41Z</time>
      </trkpt>
      <trkpt lat="45.36399" lon="5.90464">
        <ele>1619.48</ele>
        <time>2021-06-13T09:57:54Z</time>
      </trkpt>
      <trkpt lat="45.36399" lon="5.90464">
        <ele>1619.48</ele>
        <time>2021-06-13T09:58:21Z</time>
      </trkpt>
      <trkpt lat="45.36412" lon="5.90455">
        <ele>1621.4</ele>
        <time>2021-06-13T09:58:38Z</time>
      </trkpt>
      <trkpt lat="45.36412" lon="5.90455">
        <ele>1621.4</ele>
        <time>2021-06-13T09:58:39Z</time>
      </trkpt>
      <trkpt lat="45.36421" lon="5.90463">
        <ele>1618.52</ele>
        <time>2021-06-13T09:58:56Z</time>
      </trkpt>
      <trkpt lat="45.36425" lon="5.90468">
        <ele>1617.56</ele>
        <time>2021-06-13T09:59:13Z</time>
      </trkpt>
      <trkpt lat="45.36423" lon="5.90469">
        <ele>1618.04</ele>
        <time>2021-06-13T09:59:31Z</time>
      </trkpt>
      <trkpt lat="45.36428" lon="5.90462">
        <ele>1618.04</ele>
        <time>2021-06-13T09:59:51Z</time>
      </trkpt>
      <trkpt lat="45.36432" lon="5.90469">
        <ele>1615.15</ele>
        <time>2021-06-13T10:00:07Z</time>
      </trkpt>
      <trkpt lat="45.3645" lon="5.90457">
        <ele>1612.27</ele>
        <time>2021-06-13T10:00:24Z</time>
      </trkpt>
      <trkpt lat="45.3646" lon="5.90456">
        <ele>1610.83</ele>
        <time>2021-06-13T10:00:42Z</time>
      </trkpt>
      <trkpt lat="45.3646" lon="5.90459">
        <ele>1609.86</ele>
        <time>2021-06-13T10:01:01Z</time>
      </trkpt>
      <trkpt lat="45.36467" lon="5.90469">
        <ele>1607.94</ele>
        <time>2021-06-13T10:01:14Z</time>
      </trkpt>
      <trkpt lat="45.36472" lon="5.90468">
        <ele>1606.98</ele>
        <time>2021-06-13T10:01:27Z</time>
      </trkpt>
      <trkpt lat="45.36476" lon="5.90471">
        <ele>1606.5</ele>
        <time>2021-06-13T10:01:50Z</time>
      </trkpt>
      <trkpt lat="45.36482" lon="5.90479">
        <ele>1606.5</ele>
        <time>2021-06-13T10:02:06Z</time>
      </trkpt>
      <trkpt lat="45.36486" lon="5.9048">
        <ele>1606.5</ele>
        <time>2021-06-13T10:02:10Z</time>
      </trkpt>
      <trkpt lat="45.36492" lon="5.90493">
        <ele>1607.94</ele>
        <time>2021-06-13T10:02:28Z</time>
      </trkpt>
      <trkpt lat="45.36494" lon="5.90493">
        <ele>1607.94</ele>
        <time>2021-06-13T10:02:32Z</time>
      </trkpt>
      <trkpt lat="45.36494" lon="5.90493">
        <ele>1608.42</ele>
        <time>2021-06-13T10:02:47Z</time>
      </trkpt>
      <trkpt lat="45.365" lon="5.90489">
        <ele>1606.98</ele>
        <time>2021-06-13T10:03:05Z</time>
      </trkpt>
      <trkpt lat="45.3651" lon="5.90487">
        <ele>1604.58</ele>
        <time>2021-06-13T10:03:18Z</time>
      </trkpt>
      <trkpt lat="45.3652" lon="5.90485">
        <ele>1603.14</ele>
        <time>2021-06-13T10:03:32Z</time>
      </trkpt>
      <trkpt lat="45.36524" lon="5.90484">
        <ele>1603.14</ele>
        <time>2021-06-13T10:03:37Z</time>
      </trkpt>
      <trkpt lat="45.36527" lon="5.90483">
        <ele>1602.66</ele>
        <time>2021-06-13T10:03:40Z</time>
      </trkpt>
      <trkpt lat="45.3653" lon="5.90487">
        <ele>1601.69</ele>
        <time>2021-06-13T10:03:44Z</time>
      </trkpt>
      <trkpt lat="45.36536" lon="5.9049">
        <ele>1601.21</ele>
        <time>2021-06-13T10:04:00Z</time>
      </trkpt>
      <trkpt lat="45.36546" lon="5.90491">
        <ele>1600.25</ele>
        <time>2021-06-13T10:04:15Z</time>
      </trkpt>
      <trkpt lat="45.36554" lon="5.90483">
        <ele>1599.77</ele>
        <time>2021-06-13T10:04:29Z</time>
      </trkpt>
      <trkpt lat="45.36562" lon="5.90479">
        <ele>1599.77</ele>
        <time>2021-06-13T10:04:38Z</time>
      </trkpt>
      <trkpt lat="45.36574" lon="5.90476">
        <ele>1599.77</ele>
        <time>2021-06-13T10:04:53Z</time>
      </trkpt>
      <trkpt lat="45.36574" lon="5.90475">
        <ele>1599.77</ele>
        <time>2021-06-13T10:05:12Z</time>
      </trkpt>
      <trkpt lat="45.36576" lon="5.90474">
        <ele>1599.29</ele>
        <time>2021-06-13T10:05:22Z</time>
      </trkpt>
      <trkpt lat="45.36588" lon="5.90474">
        <ele>1598.33</ele>
        <time>2021-06-13T10:05:34Z</time>
      </trkpt>
      <trkpt lat="45.36596" lon="5.90479">
        <ele>1599.29</ele>
        <time>2021-06-13T10:05:48Z</time>
      </trkpt>
      <trkpt lat="45.36603" lon="5.90478">
        <ele>1598.81</ele>
        <time>2021-06-13T10:06:03Z</time>
      </trkpt>
      <trkpt lat="45.36613" lon="5.90479">
        <ele>1598.33</ele>
        <time>2021-06-13T10:06:18Z</time>
      </trkpt>
      <trkpt lat="45.36619" lon="5.90482">
        <ele>1596.89</ele>
        <time>2021-06-13T10:06:33Z</time>
      </trkpt>
      <trkpt lat="45.36624" lon="5.90478">
        <ele>1597.37</ele>
        <time>2021-06-13T10:06:51Z</time>
      </trkpt>
      <trkpt lat="45.36627" lon="5.90476">
        <ele>1597.37</ele>
        <time>2021-06-13T10:07:10Z</time>
      </trkpt>
      <trkpt lat="45.3663" lon="5.90482">
        <ele>1596.89</ele>
        <time>2021-06-13T10:07:22Z</time>
      </trkpt>
      <trkpt lat="45.36635" lon="5.90485">
        <ele>1595.93</ele>
        <time>2021-06-13T10:07:36Z</time>
      </trkpt>
      <trkpt lat="45.36641" lon="5.90482">
        <ele>1594.96</ele>
        <time>2021-06-13T10:07:50Z</time>
      </trkpt>
      <trkpt lat="45.36645" lon="5.90484">
        <ele>1594.48</ele>
        <time>2021-06-13T10:08:06Z</time>
      </trkpt>
      <trkpt lat="45.36647" lon="5.90488">
        <ele>1592.56</ele>
        <time>2021-06-13T10:08:21Z</time>
      </trkpt>
      <trkpt lat="45.36651" lon="5.90486">
        <ele>1593.52</ele>
        <time>2021-06-13T10:08:35Z</time>
      </trkpt>
      <trkpt lat="45.36655" lon="5.9048">
        <ele>1594.96</ele>
        <time>2021-06-13T10:08:50Z</time>
      </trkpt>
      <trkpt lat="45.36655" lon="5.9048">
        <ele>1594.96</ele>
        <time>2021-06-13T10:09:07Z</time>
      </trkpt>
      <trkpt lat="45.36654" lon="5.90483">
        <ele>1594.96</ele>
        <time>2021-06-13T10:09:24Z</time>
      </trkpt>
      <trkpt lat="45.36655" lon="5.90482">
        <ele>1594.96</ele>
        <time>2021-06-13T10:09:40Z</time>
      </trkpt>
      <trkpt lat="45.36655" lon="5.90482">
        <ele>1594.48</ele>
        <time>2021-06-13T10:09:59Z</time>
      </trkpt>
      <trkpt lat="45.36655" lon="5.90486">
        <ele>1594.48</ele>
        <time>2021-06-13T10:10:18Z</time>
      </trkpt>
      <trkpt lat="45.36656" lon="5.90485">
        <ele>1594.96</ele>
        <time>2021-06-13T10:10:36Z</time>
      </trkpt>
      <trkpt lat="45.36657" lon="5.90486">
        <ele>1593.52</ele>
        <time>2021-06-13T10:10:52Z</time>
      </trkpt>
      <trkpt lat="45.36658" lon="5.90487">
        <ele>1593.52</ele>
        <time>2021-06-13T10:11:11Z</time>
      </trkpt>
      <trkpt lat="45.36656" lon="5.90494">
        <ele>1594.48</ele>
        <time>2021-06-13T10:11:30Z</time>
      </trkpt>
      <trkpt lat="45.36655" lon="5.90497">
        <ele>1594</ele>
        <time>2021-06-13T10:11:48Z</time>
      </trkpt>
      <trkpt lat="45.36656" lon="5.90497">
        <ele>1593.52</ele>
        <time>2021-06-13T10:12:03Z</time>
      </trkpt>
      <trkpt lat="45.36656" lon="5.90499">
        <ele>1593.52</ele>
        <time>2021-06-13T10:12:21Z</time>
      </trkpt>
      <trkpt lat="45.36656" lon="5.90499">
        <ele>1593.52</ele>
        <time>2021-06-13T10:12:43Z</time>
      </trkpt>
      <trkpt lat="45.36656" lon="5.905">
        <ele>1593.52</ele>
        <time>2021-06-13T10:13:02Z</time>
      </trkpt>
      <trkpt lat="45.36656" lon="5.90489">
        <ele>1593.52</ele>
        <time>2021-06-13T10:13:20Z</time>
      </trkpt>
      <trkpt lat="45.36657" lon="5.90488">
        <ele>1594</ele>
        <time>2021-06-13T10:13:42Z</time>
      </trkpt>
      <trkpt lat="45.36659" lon="5.90487">
        <ele>1594</ele>
        <time>2021-06-13T10:14:01Z</time>
      </trkpt>
      <trkpt lat="45.36661" lon="5.90491">
        <ele>1594.48</ele>
        <time>2021-06-13T10:14:17Z</time>
      </trkpt>
      <trkpt lat="45.36664" lon="5.90492">
        <ele>1594.48</ele>
        <time>2021-06-13T10:14:35Z</time>
      </trkpt>
      <trkpt lat="45.36665" lon="5.90491">
        <ele>1593.52</ele>
        <time>2021-06-13T10:14:50Z</time>
      </trkpt>
      <trkpt lat="45.36666" lon="5.90491">
        <ele>1592.56</ele>
        <time>2021-06-13T10:15:04Z</time>
      </trkpt>
      <trkpt lat="45.36668" lon="5.9049">
        <ele>1592.56</ele>
        <time>2021-06-13T10:15:19Z</time>
      </trkpt>
      <trkpt lat="45.36666" lon="5.90494">
        <ele>1592.08</ele>
        <time>2021-06-13T10:15:30Z</time>
      </trkpt>
      <trkpt lat="45.36667" lon="5.90498">
        <ele>1592.56</ele>
        <time>2021-06-13T10:15:50Z</time>
      </trkpt>
      <trkpt lat="45.36668" lon="5.90498">
        <ele>1592.56</ele>
        <time>2021-06-13T10:16:02Z</time>
      </trkpt>
      <trkpt lat="45.36677" lon="5.90493">
        <ele>1594</ele>
        <time>2021-06-13T10:16:14Z</time>
      </trkpt>
      <trkpt lat="45.36685" lon="5.90496">
        <ele>1595.45</ele>
        <time>2021-06-13T10:16:27Z</time>
      </trkpt>
      <trkpt lat="45.36695" lon="5.90499">
        <ele>1593.52</ele>
        <time>2021-06-13T10:16:40Z</time>
      </trkpt>
      <trkpt lat="45.36696" lon="5.90501">
        <ele>1593.04</ele>
        <time>2021-06-13T10:16:57Z</time>
      </trkpt>
      <trkpt lat="45.36699" lon="5.90502">
        <ele>1592.08</ele>
        <time>2021-06-13T10:17:18Z</time>
      </trkpt>
      <trkpt lat="45.36704" lon="5.90503">
        <ele>1590.64</ele>
        <time>2021-06-13T10:17:32Z</time>
      </trkpt>
      <trkpt lat="45.36713" lon="5.90503">
        <ele>1588.24</ele>
        <time>2021-06-13T10:17:44Z</time>
      </trkpt>
      <trkpt lat="45.36715" lon="5.90502">
        <ele>1587.27</ele>
        <time>2021-06-13T10:17:48Z</time>
      </trkpt>
      <trkpt lat="45.36729" lon="5.90501">
        <ele>1585.35</ele>
        <time>2021-06-13T10:18:02Z</time>
      </trkpt>
      <trkpt lat="45.36734" lon="5.90502">
        <ele>1585.35</ele>
        <time>2021-06-13T10:18:13Z</time>
      </trkpt>
      <trkpt lat="45.36741" lon="5.90503">
        <ele>1585.83</ele>
        <time>2021-06-13T10:18:27Z</time>
      </trkpt>
      <trkpt lat="45.36749" lon="5.90502">
        <ele>1586.79</ele>
        <time>2021-06-13T10:18:40Z</time>
      </trkpt>
      <trkpt lat="45.36758" lon="5.90499">
        <ele>1589.2</ele>
        <time>2021-06-13T10:18:53Z</time>
      </trkpt>
      <trkpt lat="45.36762" lon="5.90501">
        <ele>1590.64</ele>
        <time>2021-06-13T10:19:08Z</time>
      </trkpt>
      <trkpt lat="45.36762" lon="5.90501">
        <ele>1590.64</ele>
        <time>2021-06-13T10:19:27Z</time>
      </trkpt>
      <trkpt lat="45.3677" lon="5.90501">
        <ele>1592.56</ele>
        <time>2021-06-13T10:19:38Z</time>
      </trkpt>
      <trkpt lat="45.36778" lon="5.90502">
        <ele>1594</ele>
        <time>2021-06-13T10:19:52Z</time>
      </trkpt>
      <trkpt lat="45.36782" lon="5.90503">
        <ele>1596.89</ele>
        <time>2021-06-13T10:20:04Z</time>
      </trkpt>
      <trkpt lat="45.36787" lon="5.90506">
        <ele>1597.85</ele>
        <time>2021-06-13T10:20:15Z</time>
      </trkpt>
      <trkpt lat="45.36793" lon="5.90504">
        <ele>1599.77</ele>
        <time>2021-06-13T10:20:28Z</time>
      </trkpt>
      <trkpt lat="45.36792" lon="5.90505">
        <ele>1599.77</ele>
        <time>2021-06-13T10:20:48Z</time>
      </trkpt>
      <trkpt lat="45.36792" lon="5.90504">
        <ele>1599.29</ele>
        <time>2021-06-13T10:21:06Z</time>
      </trkpt>
      <trkpt lat="45.36793" lon="5.90505">
        <ele>1599.77</ele>
        <time>2021-06-13T10:21:27Z</time>
      </trkpt>
      <trkpt lat="45.36793" lon="5.90506">
        <ele>1599.29</ele>
        <time>2021-06-13T10:21:50Z</time>
      </trkpt>
      <trkpt lat="45.36795" lon="5.90506">
        <ele>1599.77</ele>
        <time>2021-06-13T10:22:16Z</time>
      </trkpt>
      <trkpt lat="45.368" lon="5.90503">
        <ele>1601.21</ele>
        <time>2021-06-13T10:22:26Z</time>
      </trkpt>
      <trkpt lat="45.36804" lon="5.90494">
        <ele>1604.1</ele>
        <time>2021-06-13T10:22:40Z</time>
      </trkpt>
      <trkpt lat="45.36806" lon="5.90493">
        <ele>1606.5</ele>
        <time>2021-06-13T10:22:57Z</time>
      </trkpt>
      <trkpt lat="45.36811" lon="5.90494">
        <ele>1607.46</ele>
        <time>2021-06-13T10:23:08Z</time>
      </trkpt>
      <trkpt lat="45.36813" lon="5.90497">
        <ele>1607.94</ele>
        <time>2021-06-13T10:23:22Z</time>
      </trkpt>
      <trkpt lat="45.36817" lon="5.90498">
        <ele>1608.9</ele>
        <time>2021-06-13T10:23:34Z</time>
      </trkpt>
      <trkpt lat="45.36818" lon="5.90496">
        <ele>1610.35</ele>
        <time>2021-06-13T10:23:48Z</time>
      </trkpt>
      <trkpt lat="45.3682" lon="5.90495">
        <ele>1611.31</ele>
        <time>2021-06-13T10:24:05Z</time>
      </trkpt>
      <trkpt lat="45.36821" lon="5.90495">
        <ele>1612.27</ele>
        <time>2021-06-13T10:24:22Z</time>
      </trkpt>
      <trkpt lat="45.36822" lon="5.90494">
        <ele>1615.63</ele>
        <time>2021-06-13T10:24:32Z</time>
      </trkpt>
      <trkpt lat="45.36822" lon="5.90494">
        <ele>1615.15</ele>
        <time>2021-06-13T10:24:33Z</time>
      </trkpt>
      <trkpt lat="45.36823" lon="5.90493">
        <ele>1616.59</ele>
        <time>2021-06-13T10:24:38Z</time>
      </trkpt>
      <trkpt lat="45.36824" lon="5.9049">
        <ele>1617.56</ele>
        <time>2021-06-13T10:24:51Z</time>
      </trkpt>
      <trkpt lat="45.36824" lon="5.90487">
        <ele>1619</ele>
        <time>2021-06-13T10:25:06Z</time>
      </trkpt>
      <trkpt lat="45.36819" lon="5.90478">
        <ele>1620.44</ele>
        <time>2021-06-13T10:25:21Z</time>
      </trkpt>
      <trkpt lat="45.36822" lon="5.90475">
        <ele>1622.36</ele>
        <time>2021-06-13T10:25:36Z</time>
      </trkpt>
      <trkpt lat="45.36824" lon="5.9047">
        <ele>1624.28</ele>
        <time>2021-06-13T10:25:50Z</time>
      </trkpt>
      <trkpt lat="45.36825" lon="5.90468">
        <ele>1626.21</ele>
        <time>2021-06-13T10:26:10Z</time>
      </trkpt>
      <trkpt lat="45.36826" lon="5.90462">
        <ele>1627.17</ele>
        <time>2021-06-13T10:26:20Z</time>
      </trkpt>
      <trkpt lat="45.36827" lon="5.90455">
        <ele>1628.61</ele>
        <time>2021-06-13T10:26:37Z</time>
      </trkpt>
      <trkpt lat="45.36827" lon="5.90455">
        <ele>1630.05</ele>
        <time>2021-06-13T10:26:50Z</time>
      </trkpt>
      <trkpt lat="45.36827" lon="5.90452">
        <ele>1631.01</ele>
        <time>2021-06-13T10:27:08Z</time>
      </trkpt>
      <trkpt lat="45.36824" lon="5.90444">
        <ele>1632.46</ele>
        <time>2021-06-13T10:27:20Z</time>
      </trkpt>
      <trkpt lat="45.36826" lon="5.90442">
        <ele>1633.42</ele>
        <time>2021-06-13T10:27:38Z</time>
      </trkpt>
      <trkpt lat="45.36834" lon="5.90449">
        <ele>1633.42</ele>
        <time>2021-06-13T10:28:02Z</time>
      </trkpt>
      <trkpt lat="45.36836" lon="5.9045">
        <ele>1632.94</ele>
        <time>2021-06-13T10:28:19Z</time>
      </trkpt>
      <trkpt lat="45.36833" lon="5.90438">
        <ele>1636.3</ele>
        <time>2021-06-13T10:28:35Z</time>
      </trkpt>
      <trkpt lat="45.36832" lon="5.90432">
        <ele>1638.22</ele>
        <time>2021-06-13T10:28:46Z</time>
      </trkpt>
      <trkpt lat="45.36835" lon="5.9043">
        <ele>1639.67</ele>
        <time>2021-06-13T10:29:04Z</time>
      </trkpt>
      <trkpt lat="45.36835" lon="5.90418">
        <ele>1641.59</ele>
        <time>2021-06-13T10:29:18Z</time>
      </trkpt>
      <trkpt lat="45.36832" lon="5.90413">
        <ele>1643.99</ele>
        <time>2021-06-13T10:29:35Z</time>
      </trkpt>
      <trkpt lat="45.36828" lon="5.90413">
        <ele>1645.91</ele>
        <time>2021-06-13T10:29:52Z</time>
      </trkpt>
      <trkpt lat="45.36827" lon="5.90412">
        <ele>1646.88</ele>
        <time>2021-06-13T10:30:12Z</time>
      </trkpt>
      <trkpt lat="45.36827" lon="5.90412">
        <ele>1648.8</ele>
        <time>2021-06-13T10:30:27Z</time>
      </trkpt>
      <trkpt lat="45.36827" lon="5.90412">
        <ele>1649.76</ele>
        <time>2021-06-13T10:30:43Z</time>
      </trkpt>
      <trkpt lat="45.36827" lon="5.90412">
        <ele>1652.64</ele>
        <time>2021-06-13T10:30:59Z</time>
      </trkpt>
      <trkpt lat="45.36828" lon="5.90403">
        <ele>1654.09</ele>
        <time>2021-06-13T10:31:15Z</time>
      </trkpt>
      <trkpt lat="45.3683" lon="5.90399">
        <ele>1655.05</ele>
        <time>2021-06-13T10:31:36Z</time>
      </trkpt>
      <trkpt lat="45.36827" lon="5.90397">
        <ele>1656.01</ele>
        <time>2021-06-13T10:31:58Z</time>
      </trkpt>
      <trkpt lat="45.36818" lon="5.90389">
        <ele>1658.89</ele>
        <time>2021-06-13T10:32:12Z</time>
      </trkpt>
      <trkpt lat="45.36813" lon="5.90382">
        <ele>1661.3</ele>
        <time>2021-06-13T10:32:26Z</time>
      </trkpt>
      <trkpt lat="45.3681" lon="5.90382">
        <ele>1661.78</ele>
        <time>2021-06-13T10:32:51Z</time>
      </trkpt>
      <trkpt lat="45.36804" lon="5.90385">
        <ele>1664.66</ele>
        <time>2021-06-13T10:33:07Z</time>
      </trkpt>
      <trkpt lat="45.36805" lon="5.90384">
        <ele>1666.1</ele>
        <time>2021-06-13T10:33:25Z</time>
      </trkpt>
      <trkpt lat="45.36817" lon="5.90383">
        <ele>1666.1</ele>
        <time>2021-06-13T10:33:44Z</time>
      </trkpt>
      <trkpt lat="45.36821" lon="5.90381">
        <ele>1667.06</ele>
        <time>2021-06-13T10:34:03Z</time>
      </trkpt>
      <trkpt lat="45.36809" lon="5.90367">
        <ele>1667.54</ele>
        <time>2021-06-13T10:34:23Z</time>
      </trkpt>
      <trkpt lat="45.36883" lon="5.90416">
        <ele>1667.54</ele>
        <time>2021-06-13T10:34:46Z</time>
      </trkpt>
      <trkpt lat="45.3684" lon="5.90394">
        <ele>1667.06</ele>
        <time>2021-06-13T10:35:09Z</time>
      </trkpt>
      <trkpt lat="45.3683" lon="5.90397">
        <ele>1667.06</ele>
        <time>2021-06-13T10:35:30Z</time>
      </trkpt>
      <trkpt lat="45.36824" lon="5.90398">
        <ele>1666.58</ele>
        <time>2021-06-13T10:35:32Z</time>
      </trkpt>
      <trkpt lat="45.36829" lon="5.90399">
        <ele>1665.14</ele>
        <time>2021-06-13T10:35:47Z</time>
      </trkpt>
      <trkpt lat="45.36825" lon="5.90404">
        <ele>1668.99</ele>
        <time>2021-06-13T10:35:56Z</time>
      </trkpt>
      <trkpt lat="45.36824" lon="5.90411">
        <ele>1668.51</ele>
        <time>2021-06-13T10:36:02Z</time>
      </trkpt>
      <trkpt lat="45.36823" lon="5.9041">
        <ele>1666.58</ele>
        <time>2021-06-13T10:36:04Z</time>
      </trkpt>
      <trkpt lat="45.36822" lon="5.90406">
        <ele>1667.06</ele>
        <time>2021-06-13T10:36:15Z</time>
      </trkpt>
      <trkpt lat="45.3682" lon="5.90407">
        <ele>1667.06</ele>
        <time>2021-06-13T10:36:30Z</time>
      </trkpt>
      <trkpt lat="45.36822" lon="5.90408">
        <ele>1667.54</ele>
        <time>2021-06-13T10:36:40Z</time>
      </trkpt>
      <trkpt lat="45.3682" lon="5.90405">
        <ele>1667.54</ele>
        <time>2021-06-13T10:36:55Z</time>
      </trkpt>
      <trkpt lat="45.36819" lon="5.90404">
        <ele>1671.87</ele>
        <time>2021-06-13T10:37:00Z</time>
      </trkpt>
      <trkpt lat="45.36819" lon="5.90404">
        <ele>1672.35</ele>
        <time>2021-06-13T10:37:01Z</time>
      </trkpt>
      <trkpt lat="45.3682" lon="5.90402">
        <ele>1671.87</ele>
        <time>2021-06-13T10:37:16Z</time>
      </trkpt>
      <trkpt lat="45.36821" lon="5.90402">
        <ele>1672.35</ele>
        <time>2021-06-13T10:37:30Z</time>
      </trkpt>
      <trkpt lat="45.36822" lon="5.90401">
        <ele>1674.75</ele>
        <time>2021-06-13T10:37:46Z</time>
      </trkpt>
      <trkpt lat="45.36822" lon="5.90401">
        <ele>1674.75</ele>
        <time>2021-06-13T10:37:49Z</time>
      </trkpt>
      <trkpt lat="45.36822" lon="5.90399">
        <ele>1677.16</ele>
        <time>2021-06-13T10:38:04Z</time>
      </trkpt>
      <trkpt lat="45.36824" lon="5.90402">
        <ele>1677.16</ele>
        <time>2021-06-13T10:38:18Z</time>
      </trkpt>
      <trkpt lat="45.36825" lon="5.90402">
        <ele>1677.16</ele>
        <time>2021-06-13T10:38:33Z</time>
      </trkpt>
      <trkpt lat="45.36825" lon="5.90403">
        <ele>1677.64</ele>
        <time>2021-06-13T10:38:52Z</time>
      </trkpt>
      <trkpt lat="45.36825" lon="5.90403">
        <ele>1678.6</ele>
        <time>2021-06-13T10:39:14Z</time>
      </trkpt>
      <trkpt lat="45.36824" lon="5.90403">
        <ele>1678.6</ele>
        <time>2021-06-13T10:39:38Z</time>
      </trkpt>
      <trkpt lat="45.36824" lon="5.90403">
        <ele>1679.56</ele>
        <time>2021-06-13T10:40:00Z</time>
      </trkpt>
      <trkpt lat="45.36824" lon="5.90403">
        <ele>1679.08</ele>
        <time>2021-06-13T10:40:16Z</time>
      </trkpt>
      <trkpt lat="45.36825" lon="5.90404">
        <ele>1679.56</ele>
        <time>2021-06-13T10:40:38Z</time>
      </trkpt>
      <trkpt lat="45.36825" lon="5.90404">
        <ele>1679.56</ele>
        <time>2021-06-13T10:40:57Z</time>
      </trkpt>
      <trkpt lat="45.36822" lon="5.90404">
        <ele>1680.04</ele>
        <time>2021-06-13T10:41:13Z</time>
      </trkpt>
      <trkpt lat="45.36822" lon="5.90404">
        <ele>1680.52</ele>
        <time>2021-06-13T10:41:34Z</time>
      </trkpt>
      <trkpt lat="45.36822" lon="5.90404">
        <ele>1681</ele>
        <time>2021-06-13T10:41:58Z</time>
      </trkpt>
      <trkpt lat="45.36825" lon="5.90405">
        <ele>1681.48</ele>
        <time>2021-06-13T10:42:16Z</time>
      </trkpt>
      <trkpt lat="45.36825" lon="5.90405">
        <ele>1681.48</ele>
        <time>2021-06-13T10:42:36Z</time>
      </trkpt>
      <trkpt lat="45.36825" lon="5.90405">
        <ele>1681.96</ele>
        <time>2021-06-13T10:42:57Z</time>
      </trkpt>
      <trkpt lat="45.36825" lon="5.90405">
        <ele>1681.96</ele>
        <time>2021-06-13T10:43:11Z</time>
      </trkpt>
      <trkpt lat="45.36825" lon="5.90405">
        <ele>1682.44</ele>
        <time>2021-06-13T10:43:30Z</time>
      </trkpt>
      <trkpt lat="45.36828" lon="5.90405">
        <ele>1683.41</ele>
        <time>2021-06-13T10:43:45Z</time>
      </trkpt>
      <trkpt lat="45.36828" lon="5.90404">
        <ele>1682.93</ele>
        <time>2021-06-13T10:44:06Z</time>
      </trkpt>
      <trkpt lat="45.36832" lon="5.90403">
        <ele>1683.89</ele>
        <time>2021-06-13T10:44:21Z</time>
      </trkpt>
      <trkpt lat="45.36839" lon="5.90411">
        <ele>1686.29</ele>
        <time>2021-06-13T10:44:33Z</time>
      </trkpt>
      <trkpt lat="45.36839" lon="5.90417">
        <ele>1687.25</ele>
        <time>2021-06-13T10:44:43Z</time>
      </trkpt>
      <trkpt lat="45.36839" lon="5.90417">
        <ele>1687.25</ele>
        <time>2021-06-13T10:44:53Z</time>
      </trkpt>
      <trkpt lat="45.3684" lon="5.90417">
        <ele>1687.73</ele>
        <time>2021-06-13T10:45:12Z</time>
      </trkpt>
      <trkpt lat="45.36839" lon="5.90417">
        <ele>1688.21</ele>
        <time>2021-06-13T10:45:27Z</time>
      </trkpt>
      <trkpt lat="45.36842" lon="5.90416">
        <ele>1689.65</ele>
        <time>2021-06-13T10:45:38Z</time>
      </trkpt>
      <trkpt lat="45.36842" lon="5.90416">
        <ele>1691.58</ele>
        <time>2021-06-13T10:45:54Z</time>
      </trkpt>
      <trkpt lat="45.36842" lon="5.90416">
        <ele>1693.02</ele>
        <time>2021-06-13T10:46:08Z</time>
      </trkpt>
      <trkpt lat="45.36843" lon="5.90417">
        <ele>1694.46</ele>
        <time>2021-06-13T10:46:19Z</time>
      </trkpt>
      <trkpt lat="45.36845" lon="5.90418">
        <ele>1696.86</ele>
        <time>2021-06-13T10:46:32Z</time>
      </trkpt>
      <trkpt lat="45.36847" lon="5.9042">
        <ele>1697.83</ele>
        <time>2021-06-13T10:46:45Z</time>
      </trkpt>
      <trkpt lat="45.36849" lon="5.90423">
        <ele>1698.31</ele>
        <time>2021-06-13T10:46:49Z</time>
      </trkpt>
      <trkpt lat="45.36854" lon="5.90431">
        <ele>1700.23</ele>
        <time>2021-06-13T10:47:00Z</time>
      </trkpt>
      <trkpt lat="45.36854" lon="5.90432">
        <ele>1700.23</ele>
        <time>2021-06-13T10:47:23Z</time>
      </trkpt>
      <trkpt lat="45.36855" lon="5.90431">
        <ele>1701.67</ele>
        <time>2021-06-13T10:47:36Z</time>
      </trkpt>
      <trkpt lat="45.36855" lon="5.90431">
        <ele>1702.63</ele>
        <time>2021-06-13T10:47:49Z</time>
      </trkpt>
      <trkpt lat="45.36859" lon="5.90435">
        <ele>1703.59</ele>
        <time>2021-06-13T10:47:58Z</time>
      </trkpt>
      <trkpt lat="45.36862" lon="5.90433">
        <ele>1705.04</ele>
        <time>2021-06-13T10:48:08Z</time>
      </trkpt>
      <trkpt lat="45.36862" lon="5.90433">
        <ele>1705.04</ele>
        <time>2021-06-13T10:48:27Z</time>
      </trkpt>
      <trkpt lat="45.36863" lon="5.90431">
        <ele>1706.48</ele>
        <time>2021-06-13T10:48:41Z</time>
      </trkpt>
      <trkpt lat="45.36867" lon="5.90429">
        <ele>1707.44</ele>
        <time>2021-06-13T10:48:58Z</time>
      </trkpt>
      <trkpt lat="45.36869" lon="5.90428">
        <ele>1708.88</ele>
        <time>2021-06-13T10:49:02Z</time>
      </trkpt>
      <trkpt lat="45.36871" lon="5.90433">
        <ele>1711.76</ele>
        <time>2021-06-13T10:49:15Z</time>
      </trkpt>
      <trkpt lat="45.36872" lon="5.90431">
        <ele>1712.73</ele>
        <time>2021-06-13T10:49:27Z</time>
      </trkpt>
      <trkpt lat="45.36872" lon="5.9043">
        <ele>1714.65</ele>
        <time>2021-06-13T10:49:38Z</time>
      </trkpt>
      <trkpt lat="45.3688" lon="5.90419">
        <ele>1717.05</ele>
        <time>2021-06-13T10:49:50Z</time>
      </trkpt>
      <trkpt lat="45.3688" lon="5.90419">
        <ele>1717.05</ele>
        <time>2021-06-13T10:50:00Z</time>
      </trkpt>
      <trkpt lat="45.36881" lon="5.90414">
        <ele>1719.46</ele>
        <time>2021-06-13T10:50:10Z</time>
      </trkpt>
      <trkpt lat="45.36881" lon="5.90417">
        <ele>1721.38</ele>
        <time>2021-06-13T10:50:21Z</time>
      </trkpt>
      <trkpt lat="45.36882" lon="5.90421">
        <ele>1723.3</ele>
        <time>2021-06-13T10:50:35Z</time>
      </trkpt>
      <trkpt lat="45.36883" lon="5.90428">
        <ele>1725.7</ele>
        <time>2021-06-13T10:50:50Z</time>
      </trkpt>
      <trkpt lat="45.36884" lon="5.9043">
        <ele>1726.18</ele>
        <time>2021-06-13T10:50:53Z</time>
      </trkpt>
      <trkpt lat="45.36889" lon="5.90438">
        <ele>1727.63</ele>
        <time>2021-06-13T10:51:12Z</time>
      </trkpt>
      <trkpt lat="45.36889" lon="5.90437">
        <ele>1729.07</ele>
        <time>2021-06-13T10:51:25Z</time>
      </trkpt>
      <trkpt lat="45.36893" lon="5.9043">
        <ele>1731.47</ele>
        <time>2021-06-13T10:51:38Z</time>
      </trkpt>
      <trkpt lat="45.36897" lon="5.90424">
        <ele>1733.39</ele>
        <time>2021-06-13T10:51:49Z</time>
      </trkpt>
      <trkpt lat="45.36899" lon="5.90426">
        <ele>1735.32</ele>
        <time>2021-06-13T10:51:59Z</time>
      </trkpt>
      <trkpt lat="45.36899" lon="5.90428">
        <ele>1736.28</ele>
        <time>2021-06-13T10:52:01Z</time>
      </trkpt>
      <trkpt lat="45.36901" lon="5.90432">
        <ele>1736.76</ele>
        <time>2021-06-13T10:52:12Z</time>
      </trkpt>
      <trkpt lat="45.369" lon="5.9043">
        <ele>1737.24</ele>
        <time>2021-06-13T10:52:29Z</time>
      </trkpt>
      <trkpt lat="45.369" lon="5.9043">
        <ele>1737.24</ele>
        <time>2021-06-13T10:52:56Z</time>
      </trkpt>
      <trkpt lat="45.369" lon="5.9043">
        <ele>1737.24</ele>
        <time>2021-06-13T10:53:19Z</time>
      </trkpt>
      <trkpt lat="45.369" lon="5.9043">
        <ele>1737.24</ele>
        <time>2021-06-13T10:53:47Z</time>
      </trkpt>
      <trkpt lat="45.369" lon="5.9043">
        <ele>1736.76</ele>
        <time>2021-06-13T10:54:11Z</time>
      </trkpt>
      <trkpt lat="45.369" lon="5.9043">
        <ele>1736.76</ele>
        <time>2021-06-13T10:54:37Z</time>
      </trkpt>
      <trkpt lat="45.369" lon="5.9043">
        <ele>1736.76</ele>
        <time>2021-06-13T10:55:05Z</time>
      </trkpt>
      <trkpt lat="45.36901" lon="5.90433">
        <ele>1736.76</ele>
        <time>2021-06-13T10:55:29Z</time>
      </trkpt>
      <trkpt lat="45.36903" lon="5.90437">
        <ele>1736.76</ele>
        <time>2021-06-13T10:55:54Z</time>
      </trkpt>
      <trkpt lat="45.36902" lon="5.90437">
        <ele>1736.76</ele>
        <time>2021-06-13T10:56:26Z</time>
      </trkpt>
      <trkpt lat="45.36902" lon="5.90435">
        <ele>1737.24</ele>
        <time>2021-06-13T10:57:01Z</time>
      </trkpt>
      <trkpt lat="45.36902" lon="5.90435">
        <ele>1737.24</ele>
        <time>2021-06-13T10:57:42Z</time>
      </trkpt>
      <trkpt lat="45.36902" lon="5.90435">
        <ele>1737.24</ele>
        <time>2021-06-13T10:58:16Z</time>
      </trkpt>
      <trkpt lat="45.36902" lon="5.90435">
        <ele>1737.72</ele>
        <time>2021-06-13T10:58:50Z</time>
      </trkpt>
      <trkpt lat="45.36902" lon="5.90436">
        <ele>1737.72</ele>
        <time>2021-06-13T10:59:15Z</time>
      </trkpt>
      <trkpt lat="45.36902" lon="5.90436">
        <ele>1737.72</ele>
        <time>2021-06-13T10:59:41Z</time>
      </trkpt>
      <trkpt lat="45.36902" lon="5.90436">
        <ele>1738.2</ele>
        <time>2021-06-13T11:00:05Z</time>
      </trkpt>
      <trkpt lat="45.36902" lon="5.90436">
        <ele>1737.72</ele>
        <time>2021-06-13T11:00:32Z</time>
      </trkpt>
      <trkpt lat="45.36902" lon="5.90436">
        <ele>1738.2</ele>
        <time>2021-06-13T11:00:42Z</time>
      </trkpt>
      <trkpt lat="45.36904" lon="5.90441">
        <ele>1738.68</ele>
        <time>2021-06-13T11:00:59Z</time>
      </trkpt>
      <trkpt lat="45.36904" lon="5.90441">
        <ele>1738.68</ele>
        <time>2021-06-13T11:01:27Z</time>
      </trkpt>
      <trkpt lat="45.36904" lon="5.90441">
        <ele>1738.68</ele>
        <time>2021-06-13T11:01:52Z</time>
      </trkpt>
      <trkpt lat="45.36904" lon="5.90441">
        <ele>1738.2</ele>
        <time>2021-06-13T11:02:12Z</time>
      </trkpt>
      <trkpt lat="45.36906" lon="5.90439">
        <ele>1736.28</ele>
        <time>2021-06-13T11:02:24Z</time>
      </trkpt>
      <trkpt lat="45.36918" lon="5.90447">
        <ele>1733.88</ele>
        <time>2021-06-13T11:02:43Z</time>
      </trkpt>
      <trkpt lat="45.36923" lon="5.90447">
        <ele>1733.88</ele>
        <time>2021-06-13T11:02:45Z</time>
      </trkpt>
      <trkpt lat="45.36933" lon="5.90433">
        <ele>1733.39</ele>
        <time>2021-06-13T11:03:00Z</time>
      </trkpt>
      <trkpt lat="45.36934" lon="5.90432">
        <ele>1733.88</ele>
        <time>2021-06-13T11:03:17Z</time>
      </trkpt>
      <trkpt lat="45.36934" lon="5.90432">
        <ele>1731.47</ele>
        <time>2021-06-13T11:03:33Z</time>
      </trkpt>
      <trkpt lat="45.36945" lon="5.90418">
        <ele>1731.47</ele>
        <time>2021-06-13T11:03:48Z</time>
      </trkpt>
      <trkpt lat="45.36945" lon="5.90418">
        <ele>1731.47</ele>
        <time>2021-06-13T11:03:51Z</time>
      </trkpt>
      <trkpt lat="45.36948" lon="5.90417">
        <ele>1730.99</ele>
        <time>2021-06-13T11:03:54Z</time>
      </trkpt>
      <trkpt lat="45.36951" lon="5.90418">
        <ele>1730.51</ele>
        <time>2021-06-13T11:03:57Z</time>
      </trkpt>
      <trkpt lat="45.36953" lon="5.90422">
        <ele>1732.43</ele>
        <time>2021-06-13T11:04:09Z</time>
      </trkpt>
      <trkpt lat="45.36953" lon="5.90425">
        <ele>1732.43</ele>
        <time>2021-06-13T11:04:17Z</time>
      </trkpt>
      <trkpt lat="45.36953" lon="5.90425">
        <ele>1732.43</ele>
        <time>2021-06-13T11:04:43Z</time>
      </trkpt>
      <trkpt lat="45.36953" lon="5.90426">
        <ele>1732.43</ele>
        <time>2021-06-13T11:05:03Z</time>
      </trkpt>
      <trkpt lat="45.3695" lon="5.90432">
        <ele>1732.91</ele>
        <time>2021-06-13T11:05:15Z</time>
      </trkpt>
      <trkpt lat="45.3695" lon="5.90427">
        <ele>1732.91</ele>
        <time>2021-06-13T11:05:27Z</time>
      </trkpt>
      <trkpt lat="45.3695" lon="5.90425">
        <ele>1732.91</ele>
        <time>2021-06-13T11:05:50Z</time>
      </trkpt>
      <trkpt lat="45.3695" lon="5.90425">
        <ele>1733.39</ele>
        <time>2021-06-13T11:06:13Z</time>
      </trkpt>
      <trkpt lat="45.36944" lon="5.90416">
        <ele>1733.88</ele>
        <time>2021-06-13T11:06:36Z</time>
      </trkpt>
      <trkpt lat="45.36944" lon="5.90416">
        <ele>1733.88</ele>
        <time>2021-06-13T11:07:01Z</time>
      </trkpt>
      <trkpt lat="45.36944" lon="5.90417">
        <ele>1733.39</ele>
        <time>2021-06-13T11:07:24Z</time>
      </trkpt>
      <trkpt lat="45.36944" lon="5.90417">
        <ele>1733.88</ele>
        <time>2021-06-13T11:07:48Z</time>
      </trkpt>
      <trkpt lat="45.36945" lon="5.90417">
        <ele>1734.84</ele>
        <time>2021-06-13T11:08:07Z</time>
      </trkpt>
      <trkpt lat="45.36949" lon="5.90417">
        <ele>1733.88</ele>
        <time>2021-06-13T11:08:18Z</time>
      </trkpt>
      <trkpt lat="45.36948" lon="5.90416">
        <ele>1733.39</ele>
        <time>2021-06-13T11:08:28Z</time>
      </trkpt>
      <trkpt lat="45.36946" lon="5.90414">
        <ele>1735.32</ele>
        <time>2021-06-13T11:08:40Z</time>
      </trkpt>
      <trkpt lat="45.36945" lon="5.90418">
        <ele>1734.36</ele>
        <time>2021-06-13T11:08:50Z</time>
      </trkpt>
      <trkpt lat="45.36945" lon="5.90418">
        <ele>1734.36</ele>
        <time>2021-06-13T11:09:07Z</time>
      </trkpt>
      <trkpt lat="45.36945" lon="5.90418">
        <ele>1734.36</ele>
        <time>2021-06-13T11:09:33Z</time>
      </trkpt>
      <trkpt lat="45.36945" lon="5.90418">
        <ele>1734.84</ele>
        <time>2021-06-13T11:09:55Z</time>
      </trkpt>
      <trkpt lat="45.36945" lon="5.90417">
        <ele>1734.84</ele>
        <time>2021-06-13T11:10:21Z</time>
      </trkpt>
      <trkpt lat="45.36945" lon="5.90417">
        <ele>1735.32</ele>
        <time>2021-06-13T11:10:45Z</time>
      </trkpt>
      <trkpt lat="45.36945" lon="5.90417">
        <ele>1735.32</ele>
        <time>2021-06-13T11:11:16Z</time>
      </trkpt>
      <trkpt lat="45.36945" lon="5.90417">
        <ele>1735.8</ele>
        <time>2021-06-13T11:11:43Z</time>
      </trkpt>
      <trkpt lat="45.36943" lon="5.90418">
        <ele>1735.8</ele>
        <time>2021-06-13T11:12:08Z</time>
      </trkpt>
      <trkpt lat="45.36944" lon="5.90419">
        <ele>1738.2</ele>
        <time>2021-06-13T11:12:20Z</time>
      </trkpt>
      <trkpt lat="45.36953" lon="5.90435">
        <ele>1739.16</ele>
        <time>2021-06-13T11:12:37Z</time>
      </trkpt>
      <trkpt lat="45.36958" lon="5.90444">
        <ele>1742.05</ele>
        <time>2021-06-13T11:12:50Z</time>
      </trkpt>
      <trkpt lat="45.36913" lon="5.90415">
        <ele>1743.49</ele>
        <time>2021-06-13T11:13:08Z</time>
      </trkpt>
      <trkpt lat="45.36913" lon="5.90415">
        <ele>1743.49</ele>
        <time>2021-06-13T11:13:27Z</time>
      </trkpt>
      <trkpt lat="45.36911" lon="5.90416">
        <ele>1743.97</ele>
        <time>2021-06-13T11:13:41Z</time>
      </trkpt>
      <trkpt lat="45.36911" lon="5.90416">
        <ele>1743.01</ele>
        <time>2021-06-13T11:14:05Z</time>
      </trkpt>
      <trkpt lat="45.36911" lon="5.90416">
        <ele>1743.01</ele>
        <time>2021-06-13T11:14:27Z</time>
      </trkpt>
      <trkpt lat="45.36911" lon="5.90416">
        <ele>1743.01</ele>
        <time>2021-06-13T11:14:49Z</time>
      </trkpt>
      <trkpt lat="45.36911" lon="5.90416">
        <ele>1743.01</ele>
        <time>2021-06-13T11:15:03Z</time>
      </trkpt>
      <trkpt lat="45.36911" lon="5.90416">
        <ele>1743.01</ele>
        <time>2021-06-13T11:15:21Z</time>
      </trkpt>
      <trkpt lat="45.36911" lon="5.9041">
        <ele>1742.53</ele>
        <time>2021-06-13T11:15:27Z</time>
      </trkpt>
      <trkpt lat="45.36904" lon="5.90403">
        <ele>1740.6</ele>
        <time>2021-06-13T11:15:41Z</time>
      </trkpt>
      <trkpt lat="45.36902" lon="5.90401">
        <ele>1740.12</ele>
        <time>2021-06-13T11:15:43Z</time>
      </trkpt>
      <trkpt lat="45.36896" lon="5.90391">
        <ele>1740.12</ele>
        <time>2021-06-13T11:15:56Z</time>
      </trkpt>
      <trkpt lat="45.36895" lon="5.9039">
        <ele>1742.05</ele>
        <time>2021-06-13T11:16:09Z</time>
      </trkpt>
      <trkpt lat="45.36894" lon="5.90387">
        <ele>1744.45</ele>
        <time>2021-06-13T11:16:21Z</time>
      </trkpt>
      <trkpt lat="45.36895" lon="5.90383">
        <ele>1745.41</ele>
        <time>2021-06-13T11:16:32Z</time>
      </trkpt>
      <trkpt lat="45.36897" lon="5.90384">
        <ele>1747.81</ele>
        <time>2021-06-13T11:16:46Z</time>
      </trkpt>
      <trkpt lat="45.36898" lon="5.90384">
        <ele>1749.26</ele>
        <time>2021-06-13T11:16:59Z</time>
      </trkpt>
      <trkpt lat="45.36898" lon="5.90384">
        <ele>1749.74</ele>
        <time>2021-06-13T11:17:00Z</time>
      </trkpt>
      <trkpt lat="45.36899" lon="5.90389">
        <ele>1751.18</ele>
        <time>2021-06-13T11:17:12Z</time>
      </trkpt>
      <trkpt lat="45.36902" lon="5.90395">
        <ele>1752.62</ele>
        <time>2021-06-13T11:17:24Z</time>
      </trkpt>
      <trkpt lat="45.36903" lon="5.90399">
        <ele>1755.02</ele>
        <time>2021-06-13T11:17:36Z</time>
      </trkpt>
      <trkpt lat="45.36904" lon="5.90399">
        <ele>1757.43</ele>
        <time>2021-06-13T11:17:47Z</time>
      </trkpt>
      <trkpt lat="45.36907" lon="5.904">
        <ele>1757.91</ele>
        <time>2021-06-13T11:18:01Z</time>
      </trkpt>
      <trkpt lat="45.36907" lon="5.904">
        <ele>1757.91</ele>
        <time>2021-06-13T11:18:21Z</time>
      </trkpt>
      <trkpt lat="45.36911" lon="5.90401">
        <ele>1757.91</ele>
        <time>2021-06-13T11:18:33Z</time>
      </trkpt>
      <trkpt lat="45.36917" lon="5.90398">
        <ele>1758.39</ele>
        <time>2021-06-13T11:18:47Z</time>
      </trkpt>
      <trkpt lat="45.36918" lon="5.90398">
        <ele>1758.39</ele>
        <time>2021-06-13T11:18:48Z</time>
      </trkpt>
      <trkpt lat="45.36923" lon="5.90393">
        <ele>1760.79</ele>
        <time>2021-06-13T11:18:59Z</time>
      </trkpt>
      <trkpt lat="45.36925" lon="5.90386">
        <ele>1762.23</ele>
        <time>2021-06-13T11:19:12Z</time>
      </trkpt>
      <trkpt lat="45.36925" lon="5.90381">
        <ele>1762.71</ele>
        <time>2021-06-13T11:19:18Z</time>
      </trkpt>
      <trkpt lat="45.36922" lon="5.90367">
        <ele>1764.64</ele>
        <time>2021-06-13T11:19:31Z</time>
      </trkpt>
      <trkpt lat="45.36918" lon="5.90353">
        <ele>1765.12</ele>
        <time>2021-06-13T11:19:45Z</time>
      </trkpt>
      <trkpt lat="45.36912" lon="5.9034">
        <ele>1764.64</ele>
        <time>2021-06-13T11:19:59Z</time>
      </trkpt>
      <trkpt lat="45.36906" lon="5.90334">
        <ele>1764.64</ele>
        <time>2021-06-13T11:20:08Z</time>
      </trkpt>
      <trkpt lat="45.36904" lon="5.90332">
        <ele>1764.64</ele>
        <time>2021-06-13T11:20:10Z</time>
      </trkpt>
      <trkpt lat="45.36898" lon="5.90319">
        <ele>1764.16</ele>
        <time>2021-06-13T11:20:24Z</time>
      </trkpt>
      <trkpt lat="45.36892" lon="5.9031">
        <ele>1766.08</ele>
        <time>2021-06-13T11:20:38Z</time>
      </trkpt>
      <trkpt lat="45.36889" lon="5.90305">
        <ele>1768.48</ele>
        <time>2021-06-13T11:20:49Z</time>
      </trkpt>
      <trkpt lat="45.36888" lon="5.90302">
        <ele>1769.44</ele>
        <time>2021-06-13T11:20:58Z</time>
      </trkpt>
      <trkpt lat="45.36888" lon="5.90302">
        <ele>1769.44</ele>
        <time>2021-06-13T11:21:25Z</time>
      </trkpt>
      <trkpt lat="45.36889" lon="5.90301">
        <ele>1770.89</ele>
        <time>2021-06-13T11:21:54Z</time>
      </trkpt>
      <trkpt lat="45.3689" lon="5.903">
        <ele>1772.81</ele>
        <time>2021-06-13T11:22:08Z</time>
      </trkpt>
      <trkpt lat="45.3689" lon="5.90299">
        <ele>1774.25</ele>
        <time>2021-06-13T11:22:21Z</time>
      </trkpt>
      <trkpt lat="45.3689" lon="5.90295">
        <ele>1777.13</ele>
        <time>2021-06-13T11:22:35Z</time>
      </trkpt>
      <trkpt lat="45.3689" lon="5.90293">
        <ele>1777.61</ele>
        <time>2021-06-13T11:22:46Z</time>
      </trkpt>
      <trkpt lat="45.3689" lon="5.90293">
        <ele>1779.54</ele>
        <time>2021-06-13T11:23:00Z</time>
      </trkpt>
      <trkpt lat="45.36889" lon="5.90294">
        <ele>1782.42</ele>
        <time>2021-06-13T11:23:14Z</time>
      </trkpt>
      <trkpt lat="45.36888" lon="5.90294">
        <ele>1781.94</ele>
        <time>2021-06-13T11:23:36Z</time>
      </trkpt>
      <trkpt lat="45.36887" lon="5.90294">
        <ele>1780.98</ele>
        <time>2021-06-13T11:23:50Z</time>
      </trkpt>
      <trkpt lat="45.36885" lon="5.90294">
        <ele>1780.98</ele>
        <time>2021-06-13T11:24:08Z</time>
      </trkpt>
      <trkpt lat="45.36885" lon="5.90294">
        <ele>1780.98</ele>
        <time>2021-06-13T11:24:29Z</time>
      </trkpt>
      <trkpt lat="45.36884" lon="5.90294">
        <ele>1780.5</ele>
        <time>2021-06-13T11:24:45Z</time>
      </trkpt>
      <trkpt lat="45.36878" lon="5.90291">
        <ele>1780.02</ele>
        <time>2021-06-13T11:25:07Z</time>
      </trkpt>
      <trkpt lat="45.36867" lon="5.90287">
        <ele>1779.06</ele>
        <time>2021-06-13T11:25:24Z</time>
      </trkpt>
      <trkpt lat="45.36862" lon="5.90286">
        <ele>1779.06</ele>
        <time>2021-06-13T11:25:37Z</time>
      </trkpt>
      <trkpt lat="45.36859" lon="5.90286">
        <ele>1780.02</ele>
        <time>2021-06-13T11:25:40Z</time>
      </trkpt>
      <trkpt lat="45.36854" lon="5.90281">
        <ele>1780.98</ele>
        <time>2021-06-13T11:25:50Z</time>
      </trkpt>
      <trkpt lat="45.36847" lon="5.90273">
        <ele>1781.94</ele>
        <time>2021-06-13T11:25:59Z</time>
      </trkpt>
      <trkpt lat="45.36843" lon="5.90277">
        <ele>1781.46</ele>
        <time>2021-06-13T11:26:17Z</time>
      </trkpt>
      <trkpt lat="45.36841" lon="5.90278">
        <ele>1783.38</ele>
        <time>2021-06-13T11:26:38Z</time>
      </trkpt>
      <trkpt lat="45.36839" lon="5.90277">
        <ele>1782.42</ele>
        <time>2021-06-13T11:26:53Z</time>
      </trkpt>
      <trkpt lat="45.36839" lon="5.90277">
        <ele>1781.94</ele>
        <time>2021-06-13T11:27:18Z</time>
      </trkpt>
      <trkpt lat="45.36839" lon="5.90277">
        <ele>1781.94</ele>
        <time>2021-06-13T11:27:37Z</time>
      </trkpt>
      <trkpt lat="45.36836" lon="5.90276">
        <ele>1780.98</ele>
        <time>2021-06-13T11:27:50Z</time>
      </trkpt>
      <trkpt lat="45.36832" lon="5.90272">
        <ele>1779.54</ele>
        <time>2021-06-13T11:28:03Z</time>
      </trkpt>
      <trkpt lat="45.36828" lon="5.90263">
        <ele>1780.5</ele>
        <time>2021-06-13T11:28:14Z</time>
      </trkpt>
      <trkpt lat="45.36825" lon="5.9026">
        <ele>1781.94</ele>
        <time>2021-06-13T11:28:18Z</time>
      </trkpt>
      <trkpt lat="45.36824" lon="5.90255">
        <ele>1784.82</ele>
        <time>2021-06-13T11:28:31Z</time>
      </trkpt>
      <trkpt lat="45.36823" lon="5.90251">
        <ele>1787.23</ele>
        <time>2021-06-13T11:28:45Z</time>
      </trkpt>
      <trkpt lat="45.36823" lon="5.90251">
        <ele>1787.23</ele>
        <time>2021-06-13T11:28:46Z</time>
      </trkpt>
      <trkpt lat="45.36821" lon="5.90248">
        <ele>1788.67</ele>
        <time>2021-06-13T11:28:56Z</time>
      </trkpt>
      <trkpt lat="45.36822" lon="5.90243">
        <ele>1790.59</ele>
        <time>2021-06-13T11:29:10Z</time>
      </trkpt>
      <trkpt lat="45.36821" lon="5.90243">
        <ele>1792.03</ele>
        <time>2021-06-13T11:29:21Z</time>
      </trkpt>
      <trkpt lat="45.36822" lon="5.90239">
        <ele>1793.96</ele>
        <time>2021-06-13T11:29:36Z</time>
      </trkpt>
      <trkpt lat="45.36823" lon="5.90237">
        <ele>1794.44</ele>
        <time>2021-06-13T11:29:50Z</time>
      </trkpt>
      <trkpt lat="45.36823" lon="5.90235">
        <ele>1796.36</ele>
        <time>2021-06-13T11:29:59Z</time>
      </trkpt>
      <trkpt lat="45.36821" lon="5.90234">
        <ele>1796.84</ele>
        <time>2021-06-13T11:30:13Z</time>
      </trkpt>
      <trkpt lat="45.36821" lon="5.90235">
        <ele>1798.76</ele>
        <time>2021-06-13T11:30:29Z</time>
      </trkpt>
      <trkpt lat="45.36821" lon="5.90235">
        <ele>1799.73</ele>
        <time>2021-06-13T11:30:43Z</time>
      </trkpt>
      <trkpt lat="45.36823" lon="5.90236">
        <ele>1801.17</ele>
        <time>2021-06-13T11:30:53Z</time>
      </trkpt>
      <trkpt lat="45.36822" lon="5.90236">
        <ele>1803.09</ele>
        <time>2021-06-13T11:31:07Z</time>
      </trkpt>
      <trkpt lat="45.36823" lon="5.90234">
        <ele>1805.01</ele>
        <time>2021-06-13T11:31:21Z</time>
      </trkpt>
      <trkpt lat="45.36824" lon="5.90234">
        <ele>1807.42</ele>
        <time>2021-06-13T11:31:41Z</time>
      </trkpt>
      <trkpt lat="45.36825" lon="5.90234">
        <ele>1807.9</ele>
        <time>2021-06-13T11:32:00Z</time>
      </trkpt>
      <trkpt lat="45.36824" lon="5.90236">
        <ele>1810.78</ele>
        <time>2021-06-13T11:32:14Z</time>
      </trkpt>
      <trkpt lat="45.36818" lon="5.90232">
        <ele>1813.18</ele>
        <time>2021-06-13T11:32:27Z</time>
      </trkpt>
      <trkpt lat="45.36818" lon="5.90233">
        <ele>1813.66</ele>
        <time>2021-06-13T11:32:29Z</time>
      </trkpt>
      <trkpt lat="45.36819" lon="5.90233">
        <ele>1814.63</ele>
        <time>2021-06-13T11:32:44Z</time>
      </trkpt>
      <trkpt lat="45.36819" lon="5.90237">
        <ele>1817.51</ele>
        <time>2021-06-13T11:33:01Z</time>
      </trkpt>
      <trkpt lat="45.36817" lon="5.90244">
        <ele>1819.43</ele>
        <time>2021-06-13T11:33:09Z</time>
      </trkpt>
      <trkpt lat="45.36796" lon="5.90237">
        <ele>1821.35</ele>
        <time>2021-06-13T11:33:21Z</time>
      </trkpt>
      <trkpt lat="45.36794" lon="5.90244">
        <ele>1821.35</ele>
        <time>2021-06-13T11:33:29Z</time>
      </trkpt>
      <trkpt lat="45.36797" lon="5.90243">
        <ele>1819.91</ele>
        <time>2021-06-13T11:33:54Z</time>
      </trkpt>
      <trkpt lat="45.36798" lon="5.9024">
        <ele>1817.51</ele>
        <time>2021-06-13T11:34:08Z</time>
      </trkpt>
      <trkpt lat="45.36804" lon="5.90236">
        <ele>1815.59</ele>
        <time>2021-06-13T11:34:20Z</time>
      </trkpt>
      <trkpt lat="45.36806" lon="5.90233">
        <ele>1813.66</ele>
        <time>2021-06-13T11:34:33Z</time>
      </trkpt>
      <trkpt lat="45.36809" lon="5.90231">
        <ele>1813.18</ele>
        <time>2021-06-13T11:34:51Z</time>
      </trkpt>
      <trkpt lat="45.36814" lon="5.90228">
        <ele>1811.74</ele>
        <time>2021-06-13T11:35:06Z</time>
      </trkpt>
      <trkpt lat="45.36819" lon="5.90221">
        <ele>1809.82</ele>
        <time>2021-06-13T11:35:18Z</time>
      </trkpt>
      <trkpt lat="45.3682" lon="5.9022">
        <ele>1809.82</ele>
        <time>2021-06-13T11:35:34Z</time>
      </trkpt>
      <trkpt lat="45.36821" lon="5.90221">
        <ele>1809.82</ele>
        <time>2021-06-13T11:35:51Z</time>
      </trkpt>
      <trkpt lat="45.36825" lon="5.90219">
        <ele>1810.78</ele>
        <time>2021-06-13T11:36:02Z</time>
      </trkpt>
      <trkpt lat="45.36825" lon="5.90218">
        <ele>1810.3</ele>
        <time>2021-06-13T11:36:24Z</time>
      </trkpt>
      <trkpt lat="45.3683" lon="5.90224">
        <ele>1810.78</ele>
        <time>2021-06-13T11:36:42Z</time>
      </trkpt>
      <trkpt lat="45.36832" lon="5.90225">
        <ele>1810.78</ele>
        <time>2021-06-13T11:36:45Z</time>
      </trkpt>
      <trkpt lat="45.3684" lon="5.90233">
        <ele>1813.18</ele>
        <time>2021-06-13T11:36:56Z</time>
      </trkpt>
      <trkpt lat="45.36841" lon="5.90233">
        <ele>1813.18</ele>
        <time>2021-06-13T11:36:57Z</time>
      </trkpt>
      <trkpt lat="45.36849" lon="5.90243">
        <ele>1813.66</ele>
        <time>2021-06-13T11:37:11Z</time>
      </trkpt>
      <trkpt lat="45.36851" lon="5.90247">
        <ele>1814.15</ele>
        <time>2021-06-13T11:37:21Z</time>
      </trkpt>
      <trkpt lat="45.36851" lon="5.90248">
        <ele>1813.66</ele>
        <time>2021-06-13T11:37:42Z</time>
      </trkpt>
      <trkpt lat="45.36851" lon="5.90251">
        <ele>1813.66</ele>
        <time>2021-06-13T11:38:03Z</time>
      </trkpt>
      <trkpt lat="45.3685" lon="5.9025">
        <ele>1814.15</ele>
        <time>2021-06-13T11:38:22Z</time>
      </trkpt>
      <trkpt lat="45.36845" lon="5.90258">
        <ele>1814.15</ele>
        <time>2021-06-13T11:38:43Z</time>
      </trkpt>
      <trkpt lat="45.36848" lon="5.90249">
        <ele>1814.15</ele>
        <time>2021-06-13T11:39:03Z</time>
      </trkpt>
      <trkpt lat="45.36846" lon="5.90253">
        <ele>1814.15</ele>
        <time>2021-06-13T11:39:31Z</time>
      </trkpt>
      <trkpt lat="45.36847" lon="5.90261">
        <ele>1813.66</ele>
        <time>2021-06-13T11:39:47Z</time>
      </trkpt>
      <trkpt lat="45.36855" lon="5.90253">
        <ele>1814.15</ele>
        <time>2021-06-13T11:39:51Z</time>
      </trkpt>
      <trkpt lat="45.36861" lon="5.90254">
        <ele>1813.66</ele>
        <time>2021-06-13T11:39:55Z</time>
      </trkpt>
      <trkpt lat="45.36871" lon="5.90255">
        <ele>1814.15</ele>
        <time>2021-06-13T11:40:03Z</time>
      </trkpt>
      <trkpt lat="45.36885" lon="5.90252">
        <ele>1812.22</ele>
        <time>2021-06-13T11:40:17Z</time>
      </trkpt>
      <trkpt lat="45.36887" lon="5.90253">
        <ele>1811.26</ele>
        <time>2021-06-13T11:40:19Z</time>
      </trkpt>
      <trkpt lat="45.369" lon="5.90251">
        <ele>1810.3</ele>
        <time>2021-06-13T11:40:29Z</time>
      </trkpt>
      <trkpt lat="45.3691" lon="5.90259">
        <ele>1811.74</ele>
        <time>2021-06-13T11:40:40Z</time>
      </trkpt>
      <trkpt lat="45.36912" lon="5.90267">
        <ele>1813.66</ele>
        <time>2021-06-13T11:40:48Z</time>
      </trkpt>
      <trkpt lat="45.36914" lon="5.90271">
        <ele>1814.63</ele>
        <time>2021-06-13T11:40:51Z</time>
      </trkpt>
      <trkpt lat="45.36916" lon="5.90275">
        <ele>1815.59</ele>
        <time>2021-06-13T11:40:55Z</time>
      </trkpt>
      <trkpt lat="45.36923" lon="5.90291">
        <ele>1817.03</ele>
        <time>2021-06-13T11:41:07Z</time>
      </trkpt>
      <trkpt lat="45.36928" lon="5.90301">
        <ele>1818.95</ele>
        <time>2021-06-13T11:41:15Z</time>
      </trkpt>
      <trkpt lat="45.36932" lon="5.9031">
        <ele>1820.39</ele>
        <time>2021-06-13T11:41:22Z</time>
      </trkpt>
      <trkpt lat="45.36935" lon="5.90314">
        <ele>1820.87</ele>
        <time>2021-06-13T11:41:26Z</time>
      </trkpt>
      <trkpt lat="45.36939" lon="5.9032">
        <ele>1822.32</ele>
        <time>2021-06-13T11:41:39Z</time>
      </trkpt>
      <trkpt lat="45.36939" lon="5.9032">
        <ele>1822.8</ele>
        <time>2021-06-13T11:41:55Z</time>
      </trkpt>
      <trkpt lat="45.36942" lon="5.90321">
        <ele>1822.32</ele>
        <time>2021-06-13T11:42:16Z</time>
      </trkpt>
      <trkpt lat="45.36948" lon="5.90321">
        <ele>1820.39</ele>
        <time>2021-06-13T11:42:26Z</time>
      </trkpt>
      <trkpt lat="45.36959" lon="5.90316">
        <ele>1818.47</ele>
        <time>2021-06-13T11:42:40Z</time>
      </trkpt>
      <trkpt lat="45.36964" lon="5.90316">
        <ele>1817.99</ele>
        <time>2021-06-13T11:42:48Z</time>
      </trkpt>
      <trkpt lat="45.36967" lon="5.90315">
        <ele>1817.51</ele>
        <time>2021-06-13T11:42:51Z</time>
      </trkpt>
      <trkpt lat="45.36978" lon="5.90317">
        <ele>1816.55</ele>
        <time>2021-06-13T11:43:04Z</time>
      </trkpt>
      <trkpt lat="45.3698" lon="5.90317">
        <ele>1816.07</ele>
        <time>2021-06-13T11:43:14Z</time>
      </trkpt>
      <trkpt lat="45.36982" lon="5.90322">
        <ele>1815.59</ele>
        <time>2021-06-13T11:43:25Z</time>
      </trkpt>
      <trkpt lat="45.36988" lon="5.90327">
        <ele>1816.55</ele>
        <time>2021-06-13T11:43:32Z</time>
      </trkpt>
      <trkpt lat="45.36992" lon="5.90333">
        <ele>1818.47</ele>
        <time>2021-06-13T11:43:40Z</time>
      </trkpt>
      <trkpt lat="45.36999" lon="5.90343">
        <ele>1821.84</ele>
        <time>2021-06-13T11:43:54Z</time>
      </trkpt>
      <trkpt lat="45.36999" lon="5.90347">
        <ele>1823.28</ele>
        <time>2021-06-13T11:44:02Z</time>
      </trkpt>
      <trkpt lat="45.36999" lon="5.90349">
        <ele>1825.2</ele>
        <time>2021-06-13T11:44:12Z</time>
      </trkpt>
      <trkpt lat="45.36999" lon="5.90356">
        <ele>1826.64</ele>
        <time>2021-06-13T11:44:21Z</time>
      </trkpt>
      <trkpt lat="45.37" lon="5.90361">
        <ele>1828.56</ele>
        <time>2021-06-13T11:44:29Z</time>
      </trkpt>
      <trkpt lat="45.37002" lon="5.90369">
        <ele>1830.01</ele>
        <time>2021-06-13T11:44:35Z</time>
      </trkpt>
      <trkpt lat="45.37004" lon="5.90376">
        <ele>1830.97</ele>
        <time>2021-06-13T11:44:43Z</time>
      </trkpt>
      <trkpt lat="45.37005" lon="5.90378">
        <ele>1832.41</ele>
        <time>2021-06-13T11:44:55Z</time>
      </trkpt>
      <trkpt lat="45.3701" lon="5.90387">
        <ele>1832.41</ele>
        <time>2021-06-13T11:45:10Z</time>
      </trkpt>
      <trkpt lat="45.37012" lon="5.90389">
        <ele>1832.41</ele>
        <time>2021-06-13T11:45:12Z</time>
      </trkpt>
      <trkpt lat="45.37017" lon="5.90397">
        <ele>1831.45</ele>
        <time>2021-06-13T11:45:25Z</time>
      </trkpt>
      <trkpt lat="45.37025" lon="5.90399">
        <ele>1830.01</ele>
        <time>2021-06-13T11:45:37Z</time>
      </trkpt>
      <trkpt lat="45.37031" lon="5.90396">
        <ele>1831.93</ele>
        <time>2021-06-13T11:45:49Z</time>
      </trkpt>
      <trkpt lat="45.37038" lon="5.90402">
        <ele>1832.89</ele>
        <time>2021-06-13T11:46:00Z</time>
      </trkpt>
      <trkpt lat="45.3704" lon="5.90409">
        <ele>1833.37</ele>
        <time>2021-06-13T11:46:07Z</time>
      </trkpt>
      <trkpt lat="45.37043" lon="5.90422">
        <ele>1836.26</ele>
        <time>2021-06-13T11:46:18Z</time>
      </trkpt>
      <trkpt lat="45.37047" lon="5.90422">
        <ele>1839.14</ele>
        <time>2021-06-13T11:46:29Z</time>
      </trkpt>
      <trkpt lat="45.37053" lon="5.90436">
        <ele>1839.62</ele>
        <time>2021-06-13T11:46:41Z</time>
      </trkpt>
      <trkpt lat="45.37056" lon="5.90438">
        <ele>1839.62</ele>
        <time>2021-06-13T11:46:44Z</time>
      </trkpt>
      <trkpt lat="45.37064" lon="5.9045">
        <ele>1841.54</ele>
        <time>2021-06-13T11:46:57Z</time>
      </trkpt>
      <trkpt lat="45.37067" lon="5.90452">
        <ele>1842.5</ele>
        <time>2021-06-13T11:47:11Z</time>
      </trkpt>
      <trkpt lat="45.37067" lon="5.90452">
        <ele>1842.5</ele>
        <time>2021-06-13T11:47:35Z</time>
      </trkpt>
      <trkpt lat="45.37067" lon="5.90452">
        <ele>1842.02</ele>
        <time>2021-06-13T11:48:04Z</time>
      </trkpt>
      <trkpt lat="45.37068" lon="5.90452">
        <ele>1841.06</ele>
        <time>2021-06-13T11:48:17Z</time>
      </trkpt>
      <trkpt lat="45.3707" lon="5.9045">
        <ele>1841.06</ele>
        <time>2021-06-13T11:48:28Z</time>
      </trkpt>
      <trkpt lat="45.3707" lon="5.9045">
        <ele>1840.58</ele>
        <time>2021-06-13T11:48:53Z</time>
      </trkpt>
      <trkpt lat="45.37074" lon="5.90447">
        <ele>1838.66</ele>
        <time>2021-06-13T11:49:08Z</time>
      </trkpt>
      <trkpt lat="45.37075" lon="5.90447">
        <ele>1835.77</ele>
        <time>2021-06-13T11:49:22Z</time>
      </trkpt>
      <trkpt lat="45.37078" lon="5.90445">
        <ele>1833.85</ele>
        <time>2021-06-13T11:49:34Z</time>
      </trkpt>
      <trkpt lat="45.37086" lon="5.90447">
        <ele>1831.93</ele>
        <time>2021-06-13T11:49:46Z</time>
      </trkpt>
      <trkpt lat="45.3709" lon="5.90439">
        <ele>1830.01</ele>
        <time>2021-06-13T11:50:00Z</time>
      </trkpt>
      <trkpt lat="45.3709" lon="5.90439">
        <ele>1826.64</ele>
        <time>2021-06-13T11:50:14Z</time>
      </trkpt>
      <trkpt lat="45.37092" lon="5.90433">
        <ele>1823.76</ele>
        <time>2021-06-13T11:50:24Z</time>
      </trkpt>
      <trkpt lat="45.37096" lon="5.90431">
        <ele>1822.32</ele>
        <time>2021-06-13T11:50:29Z</time>
      </trkpt>
      <trkpt lat="45.37103" lon="5.90427">
        <ele>1819.91</ele>
        <time>2021-06-13T11:50:42Z</time>
      </trkpt>
      <trkpt lat="45.3711" lon="5.90427">
        <ele>1817.51</ele>
        <time>2021-06-13T11:50:52Z</time>
      </trkpt>
      <trkpt lat="45.37116" lon="5.90428">
        <ele>1815.11</ele>
        <time>2021-06-13T11:51:00Z</time>
      </trkpt>
      <trkpt lat="45.37118" lon="5.90426">
        <ele>1813.66</ele>
        <time>2021-06-13T11:51:08Z</time>
      </trkpt>
      <trkpt lat="45.37123" lon="5.90426">
        <ele>1811.74</ele>
        <time>2021-06-13T11:51:15Z</time>
      </trkpt>
      <trkpt lat="45.37124" lon="5.90425">
        <ele>1811.74</ele>
        <time>2021-06-13T11:51:17Z</time>
      </trkpt>
      <trkpt lat="45.37133" lon="5.90425">
        <ele>1810.3</ele>
        <time>2021-06-13T11:51:28Z</time>
      </trkpt>
      <trkpt lat="45.37143" lon="5.90428">
        <ele>1809.82</ele>
        <time>2021-06-13T11:51:35Z</time>
      </trkpt>
      <trkpt lat="45.37145" lon="5.90427">
        <ele>1809.34</ele>
        <time>2021-06-13T11:51:39Z</time>
      </trkpt>
      <trkpt lat="45.37148" lon="5.90407">
        <ele>1809.34</ele>
        <time>2021-06-13T11:51:48Z</time>
      </trkpt>
      <trkpt lat="45.37151" lon="5.90398">
        <ele>1810.3</ele>
        <time>2021-06-13T11:51:56Z</time>
      </trkpt>
      <trkpt lat="45.37152" lon="5.9039">
        <ele>1811.26</ele>
        <time>2021-06-13T11:52:13Z</time>
      </trkpt>
      <trkpt lat="45.37154" lon="5.9039">
        <ele>1811.74</ele>
        <time>2021-06-13T11:52:21Z</time>
      </trkpt>
      <trkpt lat="45.37157" lon="5.90389">
        <ele>1812.22</ele>
        <time>2021-06-13T11:52:34Z</time>
      </trkpt>
      <trkpt lat="45.37157" lon="5.90388">
        <ele>1812.22</ele>
        <time>2021-06-13T11:52:51Z</time>
      </trkpt>
      <trkpt lat="45.37157" lon="5.90388">
        <ele>1812.22</ele>
        <time>2021-06-13T11:53:13Z</time>
      </trkpt>
      <trkpt lat="45.37157" lon="5.90388">
        <ele>1812.22</ele>
        <time>2021-06-13T11:53:39Z</time>
      </trkpt>
      <trkpt lat="45.37158" lon="5.90387">
        <ele>1812.7</ele>
        <time>2021-06-13T11:54:01Z</time>
      </trkpt>
      <trkpt lat="45.37158" lon="5.90392">
        <ele>1812.7</ele>
        <time>2021-06-13T11:54:14Z</time>
      </trkpt>
      <trkpt lat="45.37159" lon="5.90395">
        <ele>1812.7</ele>
        <time>2021-06-13T11:54:16Z</time>
      </trkpt>
      <trkpt lat="45.37164" lon="5.90401">
        <ele>1813.66</ele>
        <time>2021-06-13T11:54:23Z</time>
      </trkpt>
      <trkpt lat="45.37165" lon="5.90403">
        <ele>1813.66</ele>
        <time>2021-06-13T11:54:25Z</time>
      </trkpt>
      <trkpt lat="45.37167" lon="5.90406">
        <ele>1814.15</ele>
        <time>2021-06-13T11:54:28Z</time>
      </trkpt>
      <trkpt lat="45.37168" lon="5.90408">
        <ele>1814.63</ele>
        <time>2021-06-13T11:54:30Z</time>
      </trkpt>
      <trkpt lat="45.37171" lon="5.90419">
        <ele>1817.03</ele>
        <time>2021-06-13T11:54:40Z</time>
      </trkpt>
      <trkpt lat="45.37173" lon="5.90423">
        <ele>1819.43</ele>
        <time>2021-06-13T11:54:48Z</time>
      </trkpt>
      <trkpt lat="45.37173" lon="5.90427">
        <ele>1820.87</ele>
        <time>2021-06-13T11:54:54Z</time>
      </trkpt>
      <trkpt lat="45.37173" lon="5.9043">
        <ele>1821.84</ele>
        <time>2021-06-13T11:54:57Z</time>
      </trkpt>
      <trkpt lat="45.37173" lon="5.90432">
        <ele>1822.32</ele>
        <time>2021-06-13T11:54:59Z</time>
      </trkpt>
      <trkpt lat="45.37169" lon="5.90441">
        <ele>1823.28</ele>
        <time>2021-06-13T11:55:08Z</time>
      </trkpt>
      <trkpt lat="45.37175" lon="5.90448">
        <ele>1823.76</ele>
        <time>2021-06-13T11:55:16Z</time>
      </trkpt>
      <trkpt lat="45.37182" lon="5.90457">
        <ele>1824.72</ele>
        <time>2021-06-13T11:55:28Z</time>
      </trkpt>
      <trkpt lat="45.37186" lon="5.90461">
        <ele>1827.12</ele>
        <time>2021-06-13T11:55:38Z</time>
      </trkpt>
      <trkpt lat="45.3719" lon="5.90466">
        <ele>1828.08</ele>
        <time>2021-06-13T11:55:49Z</time>
      </trkpt>
      <trkpt lat="45.37192" lon="5.9047">
        <ele>1828.56</ele>
        <time>2021-06-13T11:55:55Z</time>
      </trkpt>
      <trkpt lat="45.37194" lon="5.90473">
        <ele>1829.53</ele>
        <time>2021-06-13T11:56:10Z</time>
      </trkpt>
      <trkpt lat="45.37194" lon="5.90474">
        <ele>1831.93</ele>
        <time>2021-06-13T11:56:28Z</time>
      </trkpt>
      <trkpt lat="45.37197" lon="5.90482">
        <ele>1834.33</ele>
        <time>2021-06-13T11:56:36Z</time>
      </trkpt>
      <trkpt lat="45.37198" lon="5.90488">
        <ele>1836.26</ele>
        <time>2021-06-13T11:56:46Z</time>
      </trkpt>
      <trkpt lat="45.37198" lon="5.90488">
        <ele>1839.14</ele>
        <time>2021-06-13T11:56:59Z</time>
      </trkpt>
      <trkpt lat="45.37203" lon="5.90502">
        <ele>1840.1</ele>
        <time>2021-06-13T11:57:11Z</time>
      </trkpt>
      <trkpt lat="45.37207" lon="5.90505">
        <ele>1840.58</ele>
        <time>2021-06-13T11:57:27Z</time>
      </trkpt>
      <trkpt lat="45.37212" lon="5.90508">
        <ele>1839.62</ele>
        <time>2021-06-13T11:57:37Z</time>
      </trkpt>
      <trkpt lat="45.37221" lon="5.90512">
        <ele>1838.18</ele>
        <time>2021-06-13T11:57:49Z</time>
      </trkpt>
      <trkpt lat="45.37226" lon="5.90514">
        <ele>1836.74</ele>
        <time>2021-06-13T11:57:57Z</time>
      </trkpt>
      <trkpt lat="45.37235" lon="5.90517">
        <ele>1835.77</ele>
        <time>2021-06-13T11:58:05Z</time>
      </trkpt>
      <trkpt lat="45.37241" lon="5.90517">
        <ele>1835.77</ele>
        <time>2021-06-13T11:58:13Z</time>
      </trkpt>
      <trkpt lat="45.37253" lon="5.90524">
        <ele>1834.81</ele>
        <time>2021-06-13T11:58:27Z</time>
      </trkpt>
      <trkpt lat="45.37257" lon="5.90524">
        <ele>1835.29</ele>
        <time>2021-06-13T11:58:38Z</time>
      </trkpt>
      <trkpt lat="45.37258" lon="5.90524">
        <ele>1836.26</ele>
        <time>2021-06-13T11:59:01Z</time>
      </trkpt>
      <trkpt lat="45.37259" lon="5.90523">
        <ele>1836.26</ele>
        <time>2021-06-13T11:59:24Z</time>
      </trkpt>
      <trkpt lat="45.3726" lon="5.90523">
        <ele>1836.74</ele>
        <time>2021-06-13T11:59:30Z</time>
      </trkpt>
      <trkpt lat="45.37262" lon="5.90523">
        <ele>1838.18</ele>
        <time>2021-06-13T11:59:38Z</time>
      </trkpt>
      <trkpt lat="45.37265" lon="5.9052">
        <ele>1840.58</ele>
        <time>2021-06-13T11:59:47Z</time>
      </trkpt>
      <trkpt lat="45.37266" lon="5.90522">
        <ele>1842.5</ele>
        <time>2021-06-13T11:59:55Z</time>
      </trkpt>
      <trkpt lat="45.37267" lon="5.90523">
        <ele>1842.98</ele>
        <time>2021-06-13T12:00:08Z</time>
      </trkpt>
      <trkpt lat="45.37269" lon="5.90527">
        <ele>1844.43</ele>
        <time>2021-06-13T12:00:21Z</time>
      </trkpt>
      <trkpt lat="45.37272" lon="5.9053">
        <ele>1845.39</ele>
        <time>2021-06-13T12:00:29Z</time>
      </trkpt>
      <trkpt lat="45.37272" lon="5.90536">
        <ele>1846.35</ele>
        <time>2021-06-13T12:00:32Z</time>
      </trkpt>
      <trkpt lat="45.37275" lon="5.90541">
        <ele>1848.75</ele>
        <time>2021-06-13T12:00:39Z</time>
      </trkpt>
      <trkpt lat="45.37276" lon="5.90542">
        <ele>1848.75</ele>
        <time>2021-06-13T12:00:51Z</time>
      </trkpt>
      <trkpt lat="45.37276" lon="5.90542">
        <ele>1848.27</ele>
        <time>2021-06-13T12:01:14Z</time>
      </trkpt>
      <trkpt lat="45.37276" lon="5.90543">
        <ele>1848.75</ele>
        <time>2021-06-13T12:01:32Z</time>
      </trkpt>
      <trkpt lat="45.37281" lon="5.90548">
        <ele>1849.71</ele>
        <time>2021-06-13T12:01:39Z</time>
      </trkpt>
      <trkpt lat="45.37284" lon="5.90549">
        <ele>1850.68</ele>
        <time>2021-06-13T12:01:44Z</time>
      </trkpt>
      <trkpt lat="45.37292" lon="5.90556">
        <ele>1852.6</ele>
        <time>2021-06-13T12:01:57Z</time>
      </trkpt>
      <trkpt lat="45.37293" lon="5.90557">
        <ele>1853.08</ele>
        <time>2021-06-13T12:01:59Z</time>
      </trkpt>
      <trkpt lat="45.37298" lon="5.90562">
        <ele>1854.04</ele>
        <time>2021-06-13T12:02:11Z</time>
      </trkpt>
      <trkpt lat="45.373" lon="5.90565">
        <ele>1853.08</ele>
        <time>2021-06-13T12:02:15Z</time>
      </trkpt>
      <trkpt lat="45.37301" lon="5.90566">
        <ele>1852.6</ele>
        <time>2021-06-13T12:02:29Z</time>
      </trkpt>
      <trkpt lat="45.37303" lon="5.90566">
        <ele>1852.12</ele>
        <time>2021-06-13T12:02:41Z</time>
      </trkpt>
      <trkpt lat="45.37305" lon="5.90567">
        <ele>1852.12</ele>
        <time>2021-06-13T12:02:54Z</time>
      </trkpt>
      <trkpt lat="45.37305" lon="5.90567">
        <ele>1852.12</ele>
        <time>2021-06-13T12:03:15Z</time>
      </trkpt>
      <trkpt lat="45.37304" lon="5.90565">
        <ele>1852.6</ele>
        <time>2021-06-13T12:03:42Z</time>
      </trkpt>
      <trkpt lat="45.37302" lon="5.9056">
        <ele>1854.52</ele>
        <time>2021-06-13T12:03:55Z</time>
      </trkpt>
      <trkpt lat="45.37302" lon="5.90558">
        <ele>1855.96</ele>
        <time>2021-06-13T12:03:58Z</time>
      </trkpt>
      <trkpt lat="45.37301" lon="5.90558">
        <ele>1856.92</ele>
        <time>2021-06-13T12:04:12Z</time>
      </trkpt>
      <trkpt lat="45.37302" lon="5.90557">
        <ele>1857.89</ele>
        <time>2021-06-13T12:04:23Z</time>
      </trkpt>
      <trkpt lat="45.37302" lon="5.90557">
        <ele>1859.33</ele>
        <time>2021-06-13T12:04:26Z</time>
      </trkpt>
      <trkpt lat="45.37303" lon="5.90556">
        <ele>1860.77</ele>
        <time>2021-06-13T12:04:36Z</time>
      </trkpt>
      <trkpt lat="45.37305" lon="5.90554">
        <ele>1862.21</ele>
        <time>2021-06-13T12:04:48Z</time>
      </trkpt>
      <trkpt lat="45.37305" lon="5.90554">
        <ele>1863.17</ele>
        <time>2021-06-13T12:05:04Z</time>
      </trkpt>
      <trkpt lat="45.37307" lon="5.90555">
        <ele>1864.13</ele>
        <time>2021-06-13T12:05:22Z</time>
      </trkpt>
      <trkpt lat="45.37306" lon="5.90554">
        <ele>1863.65</ele>
        <time>2021-06-13T12:05:47Z</time>
      </trkpt>
      <trkpt lat="45.37308" lon="5.90554">
        <ele>1863.65</ele>
        <time>2021-06-13T12:05:57Z</time>
      </trkpt>
      <trkpt lat="45.37311" lon="5.90553">
        <ele>1866.54</ele>
        <time>2021-06-13T12:06:08Z</time>
      </trkpt>
      <trkpt lat="45.37314" lon="5.90555">
        <ele>1866.06</ele>
        <time>2021-06-13T12:06:20Z</time>
      </trkpt>
      <trkpt lat="45.37319" lon="5.90553">
        <ele>1866.54</ele>
        <time>2021-06-13T12:06:32Z</time>
      </trkpt>
      <trkpt lat="45.37326" lon="5.90548">
        <ele>1868.94</ele>
        <time>2021-06-13T12:06:45Z</time>
      </trkpt>
      <trkpt lat="45.37335" lon="5.90547">
        <ele>1869.42</ele>
        <time>2021-06-13T12:06:56Z</time>
      </trkpt>
      <trkpt lat="45.37338" lon="5.90545">
        <ele>1870.86</ele>
        <time>2021-06-13T12:07:08Z</time>
      </trkpt>
      <trkpt lat="45.37341" lon="5.90546">
        <ele>1872.3</ele>
        <time>2021-06-13T12:07:27Z</time>
      </trkpt>
      <trkpt lat="45.37342" lon="5.90547">
        <ele>1872.3</ele>
        <time>2021-06-13T12:07:50Z</time>
      </trkpt>
      <trkpt lat="45.37342" lon="5.90544">
        <ele>1872.79</ele>
        <time>2021-06-13T12:08:15Z</time>
      </trkpt>
      <trkpt lat="45.37343" lon="5.90542">
        <ele>1875.19</ele>
        <time>2021-06-13T12:08:26Z</time>
      </trkpt>
      <trkpt lat="45.37344" lon="5.90543">
        <ele>1875.67</ele>
        <time>2021-06-13T12:08:39Z</time>
      </trkpt>
      <trkpt lat="45.37345" lon="5.90541">
        <ele>1877.59</ele>
        <time>2021-06-13T12:08:54Z</time>
      </trkpt>
      <trkpt lat="45.37345" lon="5.90539">
        <ele>1879.03</ele>
        <time>2021-06-13T12:09:06Z</time>
      </trkpt>
      <trkpt lat="45.37345" lon="5.90533">
        <ele>1881.92</ele>
        <time>2021-06-13T12:09:17Z</time>
      </trkpt>
      <trkpt lat="45.37346" lon="5.90531">
        <ele>1883.36</ele>
        <time>2021-06-13T12:09:30Z</time>
      </trkpt>
      <trkpt lat="45.37346" lon="5.9053">
        <ele>1884.32</ele>
        <time>2021-06-13T12:09:42Z</time>
      </trkpt>
      <trkpt lat="45.37347" lon="5.90529">
        <ele>1885.28</ele>
        <time>2021-06-13T12:09:54Z</time>
      </trkpt>
      <trkpt lat="45.37348" lon="5.90528">
        <ele>1887.21</ele>
        <time>2021-06-13T12:10:05Z</time>
      </trkpt>
      <trkpt lat="45.37348" lon="5.90527">
        <ele>1889.61</ele>
        <time>2021-06-13T12:10:18Z</time>
      </trkpt>
      <trkpt lat="45.3735" lon="5.90524">
        <ele>1890.09</ele>
        <time>2021-06-13T12:10:31Z</time>
      </trkpt>
      <trkpt lat="45.3735" lon="5.90523">
        <ele>1889.13</ele>
        <time>2021-06-13T12:10:48Z</time>
      </trkpt>
      <trkpt lat="45.3735" lon="5.90523">
        <ele>1889.13</ele>
        <time>2021-06-13T12:11:16Z</time>
      </trkpt>
      <trkpt lat="45.37351" lon="5.90522">
        <ele>1889.61</ele>
        <time>2021-06-13T12:11:38Z</time>
      </trkpt>
      <trkpt lat="45.37354" lon="5.9052">
        <ele>1888.17</ele>
        <time>2021-06-13T12:11:49Z</time>
      </trkpt>
      <trkpt lat="45.37353" lon="5.90521">
        <ele>1887.21</ele>
        <time>2021-06-13T12:12:05Z</time>
      </trkpt>
      <trkpt lat="45.37353" lon="5.90521">
        <ele>1888.65</ele>
        <time>2021-06-13T12:12:40Z</time>
      </trkpt>
      <trkpt lat="45.37353" lon="5.90521">
        <ele>1887.21</ele>
        <time>2021-06-13T12:13:17Z</time>
      </trkpt>
      <trkpt lat="45.37354" lon="5.90519">
        <ele>1888.17</ele>
        <time>2021-06-13T12:13:41Z</time>
      </trkpt>
      <trkpt lat="45.37354" lon="5.90516">
        <ele>1887.21</ele>
        <time>2021-06-13T12:13:51Z</time>
      </trkpt>
      <trkpt lat="45.37354" lon="5.90515">
        <ele>1887.21</ele>
        <time>2021-06-13T12:13:53Z</time>
      </trkpt>
      <trkpt lat="45.37353" lon="5.90511">
        <ele>1885.28</ele>
        <time>2021-06-13T12:13:57Z</time>
      </trkpt>
      <trkpt lat="45.37351" lon="5.90503">
        <ele>1883.36</ele>
        <time>2021-06-13T12:14:05Z</time>
      </trkpt>
      <trkpt lat="45.3735" lon="5.905">
        <ele>1883.36</ele>
        <time>2021-06-13T12:14:13Z</time>
      </trkpt>
      <trkpt lat="45.37349" lon="5.905">
        <ele>1882.88</ele>
        <time>2021-06-13T12:14:25Z</time>
      </trkpt>
      <trkpt lat="45.37349" lon="5.905">
        <ele>1882.88</ele>
        <time>2021-06-13T12:14:42Z</time>
      </trkpt>
      <trkpt lat="45.37349" lon="5.905">
        <ele>1882.4</ele>
        <time>2021-06-13T12:15:20Z</time>
      </trkpt>
      <trkpt lat="45.37349" lon="5.90499">
        <ele>1882.88</ele>
        <time>2021-06-13T12:15:37Z</time>
      </trkpt>
      <trkpt lat="45.37349" lon="5.90499">
        <ele>1882.88</ele>
        <time>2021-06-13T12:16:07Z</time>
      </trkpt>
      <trkpt lat="45.37349" lon="5.90499">
        <ele>1882.88</ele>
        <time>2021-06-13T12:16:21Z</time>
      </trkpt>
      <trkpt lat="45.3735" lon="5.90499">
        <ele>1882.4</ele>
        <time>2021-06-13T12:16:50Z</time>
      </trkpt>
      <trkpt lat="45.3735" lon="5.90499">
        <ele>1882.4</ele>
        <time>2021-06-13T12:17:15Z</time>
      </trkpt>
      <trkpt lat="45.3735" lon="5.90499">
        <ele>1882.88</ele>
        <time>2021-06-13T12:17:40Z</time>
      </trkpt>
      <trkpt lat="45.3735" lon="5.90499">
        <ele>1882.4</ele>
        <time>2021-06-13T12:18:06Z</time>
      </trkpt>
      <trkpt lat="45.3735" lon="5.90499">
        <ele>1881.92</ele>
        <time>2021-06-13T12:18:32Z</time>
      </trkpt>
      <trkpt lat="45.3735" lon="5.90499">
        <ele>1881.44</ele>
        <time>2021-06-13T12:18:55Z</time>
      </trkpt>
      <trkpt lat="45.37349" lon="5.905">
        <ele>1881.92</ele>
        <time>2021-06-13T12:19:08Z</time>
      </trkpt>
      <trkpt lat="45.37349" lon="5.905">
        <ele>1881.44</ele>
        <time>2021-06-13T12:19:34Z</time>
      </trkpt>
      <trkpt lat="45.37349" lon="5.905">
        <ele>1881.92</ele>
        <time>2021-06-13T12:20:06Z</time>
      </trkpt>
      <trkpt lat="45.37349" lon="5.905">
        <ele>1881.92</ele>
        <time>2021-06-13T12:20:33Z</time>
      </trkpt>
      <trkpt lat="45.37349" lon="5.905">
        <ele>1881.92</ele>
        <time>2021-06-13T12:21:07Z</time>
      </trkpt>
      <trkpt lat="45.37349" lon="5.905">
        <ele>1882.4</ele>
        <time>2021-06-13T12:21:30Z</time>
      </trkpt>
      <trkpt lat="45.37349" lon="5.905">
        <ele>1881.92</ele>
        <time>2021-06-13T12:21:56Z</time>
      </trkpt>
      <trkpt lat="45.37349" lon="5.90499">
        <ele>1881.92</ele>
        <time>2021-06-13T12:22:26Z</time>
      </trkpt>
      <trkpt lat="45.37348" lon="5.90499">
        <ele>1881.92</ele>
        <time>2021-06-13T12:22:59Z</time>
      </trkpt>
      <trkpt lat="45.37348" lon="5.90499">
        <ele>1881.92</ele>
        <time>2021-06-13T12:23:32Z</time>
      </trkpt>
      <trkpt lat="45.37348" lon="5.90499">
        <ele>1882.4</ele>
        <time>2021-06-13T12:24:04Z</time>
      </trkpt>
      <trkpt lat="45.37348" lon="5.90499">
        <ele>1881.92</ele>
        <time>2021-06-13T12:24:31Z</time>
      </trkpt>
      <trkpt lat="45.37348" lon="5.90499">
        <ele>1881.92</ele>
        <time>2021-06-13T12:25:00Z</time>
      </trkpt>
      <trkpt lat="45.37349" lon="5.90499">
        <ele>1881.92</ele>
        <time>2021-06-13T12:25:30Z</time>
      </trkpt>
      <trkpt lat="45.37349" lon="5.90498">
        <ele>1882.4</ele>
        <time>2021-06-13T12:25:59Z</time>
      </trkpt>
      <trkpt lat="45.37349" lon="5.90498">
        <ele>1882.4</ele>
        <time>2021-06-13T12:26:30Z</time>
      </trkpt>
      <trkpt lat="45.37348" lon="5.90499">
        <ele>1882.4</ele>
        <time>2021-06-13T12:27:02Z</time>
      </trkpt>
      <trkpt lat="45.37348" lon="5.90499">
        <ele>1882.88</ele>
        <time>2021-06-13T12:27:36Z</time>
      </trkpt>
      <trkpt lat="45.37348" lon="5.90499">
        <ele>1882.4</ele>
        <time>2021-06-13T12:28:08Z</time>
      </trkpt>
      <trkpt lat="45.37349" lon="5.90499">
        <ele>1882.88</ele>
        <time>2021-06-13T12:28:38Z</time>
      </trkpt>
      <trkpt lat="45.37349" lon="5.90499">
        <ele>1882.4</ele>
        <time>2021-06-13T12:29:10Z</time>
      </trkpt>
      <trkpt lat="45.37349" lon="5.90499">
        <ele>1882.4</ele>
        <time>2021-06-13T12:29:42Z</time>
      </trkpt>
      <trkpt lat="45.37349" lon="5.90499">
        <ele>1882.4</ele>
        <time>2021-06-13T12:30:16Z</time>
      </trkpt>
      <trkpt lat="45.37349" lon="5.90499">
        <ele>1882.4</ele>
        <time>2021-06-13T12:30:49Z</time>
      </trkpt>
      <trkpt lat="45.37349" lon="5.90499">
        <ele>1882.88</ele>
        <time>2021-06-13T12:31:23Z</time>
      </trkpt>
      <trkpt lat="45.37349" lon="5.90499">
        <ele>1882.88</ele>
        <time>2021-06-13T12:31:55Z</time>
      </trkpt>
      <trkpt lat="45.37349" lon="5.90499">
        <ele>1882.88</ele>
        <time>2021-06-13T12:32:33Z</time>
      </trkpt>
      <trkpt lat="45.37349" lon="5.90499">
        <ele>1883.36</ele>
        <time>2021-06-13T12:33:09Z</time>
      </trkpt>
      <trkpt lat="45.37349" lon="5.90499">
        <ele>1883.36</ele>
        <time>2021-06-13T12:33:45Z</time>
      </trkpt>
      <trkpt lat="45.37349" lon="5.90499">
        <ele>1883.36</ele>
        <time>2021-06-13T12:34:17Z</time>
      </trkpt>
      <trkpt lat="45.37349" lon="5.90499">
        <ele>1883.36</ele>
        <time>2021-06-13T12:34:49Z</time>
      </trkpt>
      <trkpt lat="45.37349" lon="5.90499">
        <ele>1883.36</ele>
        <time>2021-06-13T12:35:20Z</time>
      </trkpt>
      <trkpt lat="45.37349" lon="5.90499">
        <ele>1883.84</ele>
        <time>2021-06-13T12:35:49Z</time>
      </trkpt>
      <trkpt lat="45.37349" lon="5.90499">
        <ele>1883.84</ele>
        <time>2021-06-13T12:36:22Z</time>
      </trkpt>
      <trkpt lat="45.37349" lon="5.90499">
        <ele>1883.84</ele>
        <time>2021-06-13T12:36:54Z</time>
      </trkpt>
      <trkpt lat="45.37349" lon="5.90499">
        <ele>1883.36</ele>
        <time>2021-06-13T12:37:30Z</time>
      </trkpt>
      <trkpt lat="45.3735" lon="5.90499">
        <ele>1883.84</ele>
        <time>2021-06-13T12:38:08Z</time>
      </trkpt>
      <trkpt lat="45.3735" lon="5.90499">
        <ele>1883.84</ele>
        <time>2021-06-13T12:38:46Z</time>
      </trkpt>
      <trkpt lat="45.3735" lon="5.90498">
        <ele>1883.84</ele>
        <time>2021-06-13T12:39:22Z</time>
      </trkpt>
      <trkpt lat="45.37349" lon="5.90498">
        <ele>1883.84</ele>
        <time>2021-06-13T12:39:59Z</time>
      </trkpt>
      <trkpt lat="45.37349" lon="5.90498">
        <ele>1883.84</ele>
        <time>2021-06-13T12:40:36Z</time>
      </trkpt>
      <trkpt lat="45.3735" lon="5.90499">
        <ele>1883.84</ele>
        <time>2021-06-13T12:41:13Z</time>
      </trkpt>
      <trkpt lat="45.37349" lon="5.90499">
        <ele>1883.84</ele>
        <time>2021-06-13T12:41:47Z</time>
      </trkpt>
      <trkpt lat="45.37349" lon="5.905">
        <ele>1884.32</ele>
        <time>2021-06-13T12:42:19Z</time>
      </trkpt>
      <trkpt lat="45.37349" lon="5.905">
        <ele>1884.32</ele>
        <time>2021-06-13T12:42:49Z</time>
      </trkpt>
      <trkpt lat="45.37349" lon="5.905">
        <ele>1883.84</ele>
        <time>2021-06-13T12:43:21Z</time>
      </trkpt>
      <trkpt lat="45.37349" lon="5.905">
        <ele>1884.32</ele>
        <time>2021-06-13T12:43:53Z</time>
      </trkpt>
      <trkpt lat="45.37349" lon="5.905">
        <ele>1884.8</ele>
        <time>2021-06-13T12:44:23Z</time>
      </trkpt>
      <trkpt lat="45.3735" lon="5.90501">
        <ele>1885.28</ele>
        <time>2021-06-13T12:44:45Z</time>
      </trkpt>
      <trkpt lat="45.3735" lon="5.90499">
        <ele>1884.32</ele>
        <time>2021-06-13T12:44:56Z</time>
      </trkpt>
      <trkpt lat="45.3735" lon="5.90499">
        <ele>1884.32</ele>
        <time>2021-06-13T12:45:17Z</time>
      </trkpt>
      <trkpt lat="45.37351" lon="5.90499">
        <ele>1884.32</ele>
        <time>2021-06-13T12:45:36Z</time>
      </trkpt>
      <trkpt lat="45.37346" lon="5.90497">
        <ele>1884.8</ele>
        <time>2021-06-13T12:45:58Z</time>
      </trkpt>
      <trkpt lat="45.37344" lon="5.90498">
        <ele>1885.28</ele>
        <time>2021-06-13T12:46:01Z</time>
      </trkpt>
      <trkpt lat="45.37339" lon="5.905">
        <ele>1885.76</ele>
        <time>2021-06-13T12:46:06Z</time>
      </trkpt>
      <trkpt lat="45.3733" lon="5.90504">
        <ele>1887.21</ele>
        <time>2021-06-13T12:46:17Z</time>
      </trkpt>
      <trkpt lat="45.37327" lon="5.90505">
        <ele>1887.69</ele>
        <time>2021-06-13T12:46:21Z</time>
      </trkpt>
      <trkpt lat="45.3732" lon="5.90511">
        <ele>1890.57</ele>
        <time>2021-06-13T12:46:33Z</time>
      </trkpt>
      <trkpt lat="45.37311" lon="5.90513">
        <ele>1891.53</ele>
        <time>2021-06-13T12:46:45Z</time>
      </trkpt>
      <trkpt lat="45.373" lon="5.90518">
        <ele>1892.97</ele>
        <time>2021-06-13T12:46:56Z</time>
      </trkpt>
      <trkpt lat="45.37292" lon="5.90512">
        <ele>1892.49</ele>
        <time>2021-06-13T12:47:06Z</time>
      </trkpt>
      <trkpt lat="45.3729" lon="5.90506">
        <ele>1889.61</ele>
        <time>2021-06-13T12:47:19Z</time>
      </trkpt>
      <trkpt lat="45.37284" lon="5.90505">
        <ele>1887.21</ele>
        <time>2021-06-13T12:47:32Z</time>
      </trkpt>
      <trkpt lat="45.37277" lon="5.905">
        <ele>1884.32</ele>
        <time>2021-06-13T12:47:46Z</time>
      </trkpt>
      <trkpt lat="45.3727" lon="5.90495">
        <ele>1882.4</ele>
        <time>2021-06-13T12:47:59Z</time>
      </trkpt>
      <trkpt lat="45.37257" lon="5.90489">
        <ele>1883.84</ele>
        <time>2021-06-13T12:48:13Z</time>
      </trkpt>
      <trkpt lat="45.37249" lon="5.90485">
        <ele>1880.48</ele>
        <time>2021-06-13T12:48:27Z</time>
      </trkpt>
      <trkpt lat="45.37249" lon="5.90484">
        <ele>1880</ele>
        <time>2021-06-13T12:48:30Z</time>
      </trkpt>
      <trkpt lat="45.37248" lon="5.90481">
        <ele>1880</ele>
        <time>2021-06-13T12:48:41Z</time>
      </trkpt>
      <trkpt lat="45.37247" lon="5.90476">
        <ele>1880</ele>
        <time>2021-06-13T12:48:51Z</time>
      </trkpt>
      <trkpt lat="45.37235" lon="5.90472">
        <ele>1880</ele>
        <time>2021-06-13T12:49:02Z</time>
      </trkpt>
      <trkpt lat="45.37224" lon="5.90469">
        <ele>1880.48</ele>
        <time>2021-06-13T12:49:14Z</time>
      </trkpt>
      <trkpt lat="45.37213" lon="5.90463">
        <ele>1880</ele>
        <time>2021-06-13T12:49:28Z</time>
      </trkpt>
      <trkpt lat="45.37207" lon="5.90454">
        <ele>1877.11</ele>
        <time>2021-06-13T12:49:40Z</time>
      </trkpt>
      <trkpt lat="45.372" lon="5.9044">
        <ele>1874.71</ele>
        <time>2021-06-13T12:49:53Z</time>
      </trkpt>
      <trkpt lat="45.37201" lon="5.90439">
        <ele>1874.23</ele>
        <time>2021-06-13T12:49:56Z</time>
      </trkpt>
      <trkpt lat="45.37197" lon="5.90429">
        <ele>1870.86</ele>
        <time>2021-06-13T12:50:09Z</time>
      </trkpt>
      <trkpt lat="45.37196" lon="5.90428">
        <ele>1870.38</ele>
        <time>2021-06-13T12:50:10Z</time>
      </trkpt>
      <trkpt lat="45.37188" lon="5.90421">
        <ele>1868.94</ele>
        <time>2021-06-13T12:50:22Z</time>
      </trkpt>
      <trkpt lat="45.3719" lon="5.90417">
        <ele>1867.5</ele>
        <time>2021-06-13T12:50:35Z</time>
      </trkpt>
      <trkpt lat="45.37192" lon="5.90407">
        <ele>1864.61</ele>
        <time>2021-06-13T12:50:47Z</time>
      </trkpt>
      <trkpt lat="45.37188" lon="5.90394">
        <ele>1861.25</ele>
        <time>2021-06-13T12:51:00Z</time>
      </trkpt>
      <trkpt lat="45.37185" lon="5.90382">
        <ele>1857.89</ele>
        <time>2021-06-13T12:51:14Z</time>
      </trkpt>
      <trkpt lat="45.37181" lon="5.90374">
        <ele>1855</ele>
        <time>2021-06-13T12:51:27Z</time>
      </trkpt>
      <trkpt lat="45.37169" lon="5.90359">
        <ele>1853.56</ele>
        <time>2021-06-13T12:51:42Z</time>
      </trkpt>
      <trkpt lat="45.37164" lon="5.90356">
        <ele>1854.52</ele>
        <time>2021-06-13T12:51:50Z</time>
      </trkpt>
      <trkpt lat="45.37158" lon="5.90356">
        <ele>1855</ele>
        <time>2021-06-13T12:51:54Z</time>
      </trkpt>
      <trkpt lat="45.37153" lon="5.9036">
        <ele>1855.96</ele>
        <time>2021-06-13T12:52:05Z</time>
      </trkpt>
      <trkpt lat="45.37144" lon="5.90361">
        <ele>1856.92</ele>
        <time>2021-06-13T12:52:17Z</time>
      </trkpt>
      <trkpt lat="45.37141" lon="5.9036">
        <ele>1858.85</ele>
        <time>2021-06-13T12:52:32Z</time>
      </trkpt>
      <trkpt lat="45.37138" lon="5.90361">
        <ele>1860.29</ele>
        <time>2021-06-13T12:53:00Z</time>
      </trkpt>
      <trkpt lat="45.37131" lon="5.90363">
        <ele>1862.69</ele>
        <time>2021-06-13T12:53:12Z</time>
      </trkpt>
      <trkpt lat="45.37122" lon="5.90368">
        <ele>1866.54</ele>
        <time>2021-06-13T12:53:25Z</time>
      </trkpt>
      <trkpt lat="45.37121" lon="5.9037">
        <ele>1866.54</ele>
        <time>2021-06-13T12:53:26Z</time>
      </trkpt>
      <trkpt lat="45.37111" lon="5.90374">
        <ele>1869.42</ele>
        <time>2021-06-13T12:53:40Z</time>
      </trkpt>
      <trkpt lat="45.3711" lon="5.90374">
        <ele>1869.9</ele>
        <time>2021-06-13T12:53:42Z</time>
      </trkpt>
      <trkpt lat="45.37104" lon="5.90376">
        <ele>1871.82</ele>
        <time>2021-06-13T12:53:54Z</time>
      </trkpt>
      <trkpt lat="45.371" lon="5.90377">
        <ele>1873.75</ele>
        <time>2021-06-13T12:54:03Z</time>
      </trkpt>
      <trkpt lat="45.37096" lon="5.90378">
        <ele>1875.67</ele>
        <time>2021-06-13T12:54:16Z</time>
      </trkpt>
      <trkpt lat="45.37089" lon="5.90378">
        <ele>1876.63</ele>
        <time>2021-06-13T12:54:23Z</time>
      </trkpt>
      <trkpt lat="45.37087" lon="5.90378">
        <ele>1877.11</ele>
        <time>2021-06-13T12:54:25Z</time>
      </trkpt>
      <trkpt lat="45.37076" lon="5.90378">
        <ele>1877.11</ele>
        <time>2021-06-13T12:54:35Z</time>
      </trkpt>
      <trkpt lat="45.37067" lon="5.90374">
        <ele>1876.15</ele>
        <time>2021-06-13T12:54:48Z</time>
      </trkpt>
      <trkpt lat="45.37063" lon="5.90374">
        <ele>1876.63</ele>
        <time>2021-06-13T12:55:00Z</time>
      </trkpt>
      <trkpt lat="45.37063" lon="5.90373">
        <ele>1876.15</ele>
        <time>2021-06-13T12:55:10Z</time>
      </trkpt>
      <trkpt lat="45.37062" lon="5.90373">
        <ele>1876.15</ele>
        <time>2021-06-13T12:55:25Z</time>
      </trkpt>
      <trkpt lat="45.37063" lon="5.90373">
        <ele>1876.63</ele>
        <time>2021-06-13T12:55:36Z</time>
      </trkpt>
      <trkpt lat="45.37058" lon="5.90371">
        <ele>1876.15</ele>
        <time>2021-06-13T12:55:44Z</time>
      </trkpt>
      <trkpt lat="45.37054" lon="5.90368">
        <ele>1876.63</ele>
        <time>2021-06-13T12:55:48Z</time>
      </trkpt>
      <trkpt lat="45.37039" lon="5.90355">
        <ele>1873.75</ele>
        <time>2021-06-13T12:56:04Z</time>
      </trkpt>
      <trkpt lat="45.37027" lon="5.90346">
        <ele>1874.71</ele>
        <time>2021-06-13T12:56:16Z</time>
      </trkpt>
      <trkpt lat="45.37025" lon="5.90342">
        <ele>1874.23</ele>
        <time>2021-06-13T12:56:33Z</time>
      </trkpt>
      <trkpt lat="45.37024" lon="5.90331">
        <ele>1871.82</ele>
        <time>2021-06-13T12:56:48Z</time>
      </trkpt>
      <trkpt lat="45.37022" lon="5.90329">
        <ele>1870.86</ele>
        <time>2021-06-13T12:57:01Z</time>
      </trkpt>
      <trkpt lat="45.37021" lon="5.90328">
        <ele>1870.86</ele>
        <time>2021-06-13T12:57:07Z</time>
      </trkpt>
      <trkpt lat="45.37015" lon="5.90315">
        <ele>1869.42</ele>
        <time>2021-06-13T12:57:22Z</time>
      </trkpt>
      <trkpt lat="45.37011" lon="5.90307">
        <ele>1868.46</ele>
        <time>2021-06-13T12:57:37Z</time>
      </trkpt>
      <trkpt lat="45.37001" lon="5.90299">
        <ele>1869.42</ele>
        <time>2021-06-13T12:57:50Z</time>
      </trkpt>
      <trkpt lat="45.36996" lon="5.90295">
        <ele>1870.86</ele>
        <time>2021-06-13T12:58:02Z</time>
      </trkpt>
      <trkpt lat="45.3699" lon="5.9029">
        <ele>1871.34</ele>
        <time>2021-06-13T12:58:08Z</time>
      </trkpt>
      <trkpt lat="45.3698" lon="5.90278">
        <ele>1872.79</ele>
        <time>2021-06-13T12:58:19Z</time>
      </trkpt>
      <trkpt lat="45.36977" lon="5.90272">
        <ele>1872.79</ele>
        <time>2021-06-13T12:58:25Z</time>
      </trkpt>
      <trkpt lat="45.36967" lon="5.90258">
        <ele>1871.82</ele>
        <time>2021-06-13T12:58:39Z</time>
      </trkpt>
      <trkpt lat="45.3696" lon="5.90251">
        <ele>1871.82</ele>
        <time>2021-06-13T12:58:50Z</time>
      </trkpt>
      <trkpt lat="45.36957" lon="5.9025">
        <ele>1871.82</ele>
        <time>2021-06-13T12:58:53Z</time>
      </trkpt>
      <trkpt lat="45.36955" lon="5.90248">
        <ele>1871.82</ele>
        <time>2021-06-13T12:58:55Z</time>
      </trkpt>
      <trkpt lat="45.36953" lon="5.90247">
        <ele>1871.34</ele>
        <time>2021-06-13T12:58:57Z</time>
      </trkpt>
      <trkpt lat="45.3695" lon="5.90246">
        <ele>1871.82</ele>
        <time>2021-06-13T12:59:00Z</time>
      </trkpt>
      <trkpt lat="45.36936" lon="5.90238">
        <ele>1871.82</ele>
        <time>2021-06-13T12:59:14Z</time>
      </trkpt>
      <trkpt lat="45.36929" lon="5.90232">
        <ele>1871.82</ele>
        <time>2021-06-13T12:59:24Z</time>
      </trkpt>
      <trkpt lat="45.36916" lon="5.90224">
        <ele>1871.34</ele>
        <time>2021-06-13T12:59:39Z</time>
      </trkpt>
      <trkpt lat="45.36905" lon="5.90224">
        <ele>1871.34</ele>
        <time>2021-06-13T12:59:50Z</time>
      </trkpt>
      <trkpt lat="45.36902" lon="5.90223">
        <ele>1871.82</ele>
        <time>2021-06-13T12:59:54Z</time>
      </trkpt>
      <trkpt lat="45.36896" lon="5.90222">
        <ele>1871.82</ele>
        <time>2021-06-13T13:00:04Z</time>
      </trkpt>
      <trkpt lat="45.36895" lon="5.9022">
        <ele>1870.86</ele>
        <time>2021-06-13T13:00:10Z</time>
      </trkpt>
      <trkpt lat="45.36886" lon="5.90214">
        <ele>1867.98</ele>
        <time>2021-06-13T13:00:25Z</time>
      </trkpt>
      <trkpt lat="45.36879" lon="5.90211">
        <ele>1867.5</ele>
        <time>2021-06-13T13:00:40Z</time>
      </trkpt>
      <trkpt lat="45.36879" lon="5.9021">
        <ele>1867.5</ele>
        <time>2021-06-13T13:00:56Z</time>
      </trkpt>
      <trkpt lat="45.36877" lon="5.90206">
        <ele>1866.54</ele>
        <time>2021-06-13T13:01:07Z</time>
      </trkpt>
      <trkpt lat="45.36879" lon="5.90205">
        <ele>1866.54</ele>
        <time>2021-06-13T13:01:26Z</time>
      </trkpt>
      <trkpt lat="45.36876" lon="5.90202">
        <ele>1865.09</ele>
        <time>2021-06-13T13:01:46Z</time>
      </trkpt>
      <trkpt lat="45.36874" lon="5.90201">
        <ele>1865.09</ele>
        <time>2021-06-13T13:01:59Z</time>
      </trkpt>
      <trkpt lat="45.36873" lon="5.90199">
        <ele>1863.65</ele>
        <time>2021-06-13T13:02:13Z</time>
      </trkpt>
      <trkpt lat="45.3687" lon="5.90197">
        <ele>1860.29</ele>
        <time>2021-06-13T13:02:27Z</time>
      </trkpt>
      <trkpt lat="45.3686" lon="5.90197">
        <ele>1860.77</ele>
        <time>2021-06-13T13:02:39Z</time>
      </trkpt>
      <trkpt lat="45.36844" lon="5.90196">
        <ele>1860.29</ele>
        <time>2021-06-13T13:02:52Z</time>
      </trkpt>
      <trkpt lat="45.36832" lon="5.90195">
        <ele>1860.29</ele>
        <time>2021-06-13T13:03:07Z</time>
      </trkpt>
      <trkpt lat="45.36819" lon="5.902">
        <ele>1862.21</ele>
        <time>2021-06-13T13:03:21Z</time>
      </trkpt>
      <trkpt lat="45.36807" lon="5.90196">
        <ele>1861.73</ele>
        <time>2021-06-13T13:03:36Z</time>
      </trkpt>
      <trkpt lat="45.36791" lon="5.90194">
        <ele>1861.73</ele>
        <time>2021-06-13T13:03:52Z</time>
      </trkpt>
      <trkpt lat="45.36777" lon="5.90194">
        <ele>1860.77</ele>
        <time>2021-06-13T13:04:06Z</time>
      </trkpt>
      <trkpt lat="45.36763" lon="5.90187">
        <ele>1859.81</ele>
        <time>2021-06-13T13:04:20Z</time>
      </trkpt>
      <trkpt lat="45.3675" lon="5.90178">
        <ele>1857.4</ele>
        <time>2021-06-13T13:04:36Z</time>
      </trkpt>
      <trkpt lat="45.36741" lon="5.90172">
        <ele>1857.4</ele>
        <time>2021-06-13T13:04:52Z</time>
      </trkpt>
      <trkpt lat="45.36725" lon="5.90172">
        <ele>1860.77</ele>
        <time>2021-06-13T13:05:08Z</time>
      </trkpt>
      <trkpt lat="45.36716" lon="5.90174">
        <ele>1862.69</ele>
        <time>2021-06-13T13:05:20Z</time>
      </trkpt>
      <trkpt lat="45.36714" lon="5.90174">
        <ele>1862.69</ele>
        <time>2021-06-13T13:05:22Z</time>
      </trkpt>
      <trkpt lat="45.36702" lon="5.90173">
        <ele>1862.69</ele>
        <time>2021-06-13T13:05:35Z</time>
      </trkpt>
      <trkpt lat="45.36688" lon="5.90168">
        <ele>1860.77</ele>
        <time>2021-06-13T13:05:50Z</time>
      </trkpt>
      <trkpt lat="45.36688" lon="5.90168">
        <ele>1861.25</ele>
        <time>2021-06-13T13:06:10Z</time>
      </trkpt>
      <trkpt lat="45.3668" lon="5.90162">
        <ele>1861.25</ele>
        <time>2021-06-13T13:06:29Z</time>
      </trkpt>
      <trkpt lat="45.36669" lon="5.90155">
        <ele>1862.21</ele>
        <time>2021-06-13T13:06:43Z</time>
      </trkpt>
      <trkpt lat="45.36662" lon="5.90144">
        <ele>1859.81</ele>
        <time>2021-06-13T13:06:58Z</time>
      </trkpt>
      <trkpt lat="45.36662" lon="5.90144">
        <ele>1860.29</ele>
        <time>2021-06-13T13:07:24Z</time>
      </trkpt>
      <trkpt lat="45.36662" lon="5.90144">
        <ele>1859.81</ele>
        <time>2021-06-13T13:07:50Z</time>
      </trkpt>
      <trkpt lat="45.36666" lon="5.90147">
        <ele>1861.73</ele>
        <time>2021-06-13T13:08:01Z</time>
      </trkpt>
      <trkpt lat="45.36675" lon="5.90153">
        <ele>1862.21</ele>
        <time>2021-06-13T13:08:13Z</time>
      </trkpt>
      <trkpt lat="45.3668" lon="5.90158">
        <ele>1861.73</ele>
        <time>2021-06-13T13:08:30Z</time>
      </trkpt>
      <trkpt lat="45.36682" lon="5.90159">
        <ele>1861.25</ele>
        <time>2021-06-13T13:08:55Z</time>
      </trkpt>
      <trkpt lat="45.36669" lon="5.90154">
        <ele>1862.69</ele>
        <time>2021-06-13T13:09:10Z</time>
      </trkpt>
      <trkpt lat="45.36654" lon="5.90151">
        <ele>1864.13</ele>
        <time>2021-06-13T13:09:27Z</time>
      </trkpt>
      <trkpt lat="45.36639" lon="5.90143">
        <ele>1864.13</ele>
        <time>2021-06-13T13:09:45Z</time>
      </trkpt>
      <trkpt lat="45.36626" lon="5.90133">
        <ele>1863.17</ele>
        <time>2021-06-13T13:09:58Z</time>
      </trkpt>
      <trkpt lat="45.36617" lon="5.9013">
        <ele>1862.69</ele>
        <time>2021-06-13T13:10:14Z</time>
      </trkpt>
      <trkpt lat="45.36607" lon="5.90123">
        <ele>1863.17</ele>
        <time>2021-06-13T13:10:28Z</time>
      </trkpt>
      <trkpt lat="45.36592" lon="5.90119">
        <ele>1863.65</ele>
        <time>2021-06-13T13:10:42Z</time>
      </trkpt>
      <trkpt lat="45.36582" lon="5.90119">
        <ele>1865.09</ele>
        <time>2021-06-13T13:10:56Z</time>
      </trkpt>
      <trkpt lat="45.36569" lon="5.90118">
        <ele>1866.06</ele>
        <time>2021-06-13T13:11:10Z</time>
      </trkpt>
      <trkpt lat="45.3656" lon="5.90121">
        <ele>1867.98</ele>
        <time>2021-06-13T13:11:22Z</time>
      </trkpt>
      <trkpt lat="45.3655" lon="5.90121">
        <ele>1868.94</ele>
        <time>2021-06-13T13:11:34Z</time>
      </trkpt>
      <trkpt lat="45.36543" lon="5.90121">
        <ele>1870.86</ele>
        <time>2021-06-13T13:11:46Z</time>
      </trkpt>
      <trkpt lat="45.36531" lon="5.90118">
        <ele>1870.38</ele>
        <time>2021-06-13T13:12:00Z</time>
      </trkpt>
      <trkpt lat="45.36516" lon="5.90116">
        <ele>1869.9</ele>
        <time>2021-06-13T13:12:14Z</time>
      </trkpt>
      <trkpt lat="45.36511" lon="5.90114">
        <ele>1869.42</ele>
        <time>2021-06-13T13:12:18Z</time>
      </trkpt>
      <trkpt lat="45.36494" lon="5.90114">
        <ele>1870.38</ele>
        <time>2021-06-13T13:12:34Z</time>
      </trkpt>
      <trkpt lat="45.36482" lon="5.90112">
        <ele>1870.86</ele>
        <time>2021-06-13T13:12:46Z</time>
      </trkpt>
      <trkpt lat="45.36469" lon="5.90107">
        <ele>1869.9</ele>
        <time>2021-06-13T13:13:00Z</time>
      </trkpt>
      <trkpt lat="45.36462" lon="5.9011">
        <ele>1871.34</ele>
        <time>2021-06-13T13:13:08Z</time>
      </trkpt>
      <trkpt lat="45.36455" lon="5.9011">
        <ele>1872.79</ele>
        <time>2021-06-13T13:13:18Z</time>
      </trkpt>
      <trkpt lat="45.36453" lon="5.9011">
        <ele>1872.3</ele>
        <time>2021-06-13T13:13:20Z</time>
      </trkpt>
      <trkpt lat="45.36448" lon="5.90106">
        <ele>1871.34</ele>
        <time>2021-06-13T13:13:24Z</time>
      </trkpt>
      <trkpt lat="45.36441" lon="5.90102">
        <ele>1871.34</ele>
        <time>2021-06-13T13:13:31Z</time>
      </trkpt>
      <trkpt lat="45.36431" lon="5.90095">
        <ele>1871.82</ele>
        <time>2021-06-13T13:13:42Z</time>
      </trkpt>
      <trkpt lat="45.36425" lon="5.90093">
        <ele>1871.82</ele>
        <time>2021-06-13T13:13:48Z</time>
      </trkpt>
      <trkpt lat="45.36418" lon="5.9009">
        <ele>1871.82</ele>
        <time>2021-06-13T13:13:59Z</time>
      </trkpt>
      <trkpt lat="45.36412" lon="5.90095">
        <ele>1873.27</ele>
        <time>2021-06-13T13:14:08Z</time>
      </trkpt>
      <trkpt lat="45.36402" lon="5.90099">
        <ele>1875.19</ele>
        <time>2021-06-13T13:14:19Z</time>
      </trkpt>
      <trkpt lat="45.36394" lon="5.90097">
        <ele>1875.19</ele>
        <time>2021-06-13T13:14:27Z</time>
      </trkpt>
      <trkpt lat="45.36381" lon="5.90091">
        <ele>1874.23</ele>
        <time>2021-06-13T13:14:39Z</time>
      </trkpt>
      <trkpt lat="45.36364" lon="5.9008">
        <ele>1874.23</ele>
        <time>2021-06-13T13:14:54Z</time>
      </trkpt>
      <trkpt lat="45.3635" lon="5.9007">
        <ele>1875.19</ele>
        <time>2021-06-13T13:15:08Z</time>
      </trkpt>
      <trkpt lat="45.36336" lon="5.90063">
        <ele>1874.71</ele>
        <time>2021-06-13T13:15:22Z</time>
      </trkpt>
      <trkpt lat="45.36333" lon="5.9006">
        <ele>1875.19</ele>
        <time>2021-06-13T13:15:27Z</time>
      </trkpt>
      <trkpt lat="45.36327" lon="5.90059">
        <ele>1875.67</ele>
        <time>2021-06-13T13:15:35Z</time>
      </trkpt>
      <trkpt lat="45.36319" lon="5.90057">
        <ele>1874.71</ele>
        <time>2021-06-13T13:15:47Z</time>
      </trkpt>
      <trkpt lat="45.3632" lon="5.90056">
        <ele>1875.19</ele>
        <time>2021-06-13T13:16:08Z</time>
      </trkpt>
      <trkpt lat="45.36319" lon="5.90056">
        <ele>1875.19</ele>
        <time>2021-06-13T13:16:32Z</time>
      </trkpt>
      <trkpt lat="45.36319" lon="5.90056">
        <ele>1875.19</ele>
        <time>2021-06-13T13:16:50Z</time>
      </trkpt>
      <trkpt lat="45.36314" lon="5.90054">
        <ele>1875.19</ele>
        <time>2021-06-13T13:17:04Z</time>
      </trkpt>
      <trkpt lat="45.36304" lon="5.90049">
        <ele>1873.75</ele>
        <time>2021-06-13T13:17:15Z</time>
      </trkpt>
      <trkpt lat="45.36292" lon="5.90042">
        <ele>1873.75</ele>
        <time>2021-06-13T13:17:25Z</time>
      </trkpt>
      <trkpt lat="45.36289" lon="5.90041">
        <ele>1874.23</ele>
        <time>2021-06-13T13:17:28Z</time>
      </trkpt>
      <trkpt lat="45.36282" lon="5.90036">
        <ele>1873.75</ele>
        <time>2021-06-13T13:17:34Z</time>
      </trkpt>
      <trkpt lat="45.36278" lon="5.90036">
        <ele>1874.23</ele>
        <time>2021-06-13T13:17:37Z</time>
      </trkpt>
      <trkpt lat="45.36274" lon="5.9003">
        <ele>1873.75</ele>
        <time>2021-06-13T13:17:42Z</time>
      </trkpt>
      <trkpt lat="45.36269" lon="5.90026">
        <ele>1873.75</ele>
        <time>2021-06-13T13:17:47Z</time>
      </trkpt>
      <trkpt lat="45.36266" lon="5.90024">
        <ele>1874.23</ele>
        <time>2021-06-13T13:17:50Z</time>
      </trkpt>
      <trkpt lat="45.36264" lon="5.90023">
        <ele>1873.75</ele>
        <time>2021-06-13T13:17:52Z</time>
      </trkpt>
      <trkpt lat="45.36264" lon="5.9002">
        <ele>1873.27</ele>
        <time>2021-06-13T13:17:54Z</time>
      </trkpt>
      <trkpt lat="45.36258" lon="5.9001">
        <ele>1872.79</ele>
        <time>2021-06-13T13:18:04Z</time>
      </trkpt>
      <trkpt lat="45.36251" lon="5.89994">
        <ele>1871.34</ele>
        <time>2021-06-13T13:18:17Z</time>
      </trkpt>
      <trkpt lat="45.36249" lon="5.89987">
        <ele>1870.86</ele>
        <time>2021-06-13T13:18:22Z</time>
      </trkpt>
      <trkpt lat="45.36247" lon="5.89985">
        <ele>1870.38</ele>
        <time>2021-06-13T13:18:33Z</time>
      </trkpt>
      <trkpt lat="45.36245" lon="5.89984">
        <ele>1871.34</ele>
        <time>2021-06-13T13:18:43Z</time>
      </trkpt>
      <trkpt lat="45.36241" lon="5.89985">
        <ele>1872.79</ele>
        <time>2021-06-13T13:18:53Z</time>
      </trkpt>
      <trkpt lat="45.36241" lon="5.89985">
        <ele>1872.79</ele>
        <time>2021-06-13T13:18:54Z</time>
      </trkpt>
      <trkpt lat="45.3624" lon="5.89986">
        <ele>1873.27</ele>
        <time>2021-06-13T13:19:05Z</time>
      </trkpt>
      <trkpt lat="45.3624" lon="5.89986">
        <ele>1873.75</ele>
        <time>2021-06-13T13:19:20Z</time>
      </trkpt>
      <trkpt lat="45.36241" lon="5.89987">
        <ele>1873.27</ele>
        <time>2021-06-13T13:19:39Z</time>
      </trkpt>
      <trkpt lat="45.36241" lon="5.89987">
        <ele>1873.75</ele>
        <time>2021-06-13T13:20:04Z</time>
      </trkpt>
      <trkpt lat="45.36241" lon="5.89987">
        <ele>1873.75</ele>
        <time>2021-06-13T13:20:35Z</time>
      </trkpt>
      <trkpt lat="45.36241" lon="5.89986">
        <ele>1873.75</ele>
        <time>2021-06-13T13:20:47Z</time>
      </trkpt>
      <trkpt lat="45.36244" lon="5.8998">
        <ele>1871.34</ele>
        <time>2021-06-13T13:20:59Z</time>
      </trkpt>
      <trkpt lat="45.36245" lon="5.8998">
        <ele>1870.38</ele>
        <time>2021-06-13T13:21:15Z</time>
      </trkpt>
      <trkpt lat="45.36245" lon="5.89979">
        <ele>1869.9</ele>
        <time>2021-06-13T13:21:35Z</time>
      </trkpt>
      <trkpt lat="45.36246" lon="5.89979">
        <ele>1869.9</ele>
        <time>2021-06-13T13:21:57Z</time>
      </trkpt>
      <trkpt lat="45.36245" lon="5.89977">
        <ele>1870.38</ele>
        <time>2021-06-13T13:22:15Z</time>
      </trkpt>
      <trkpt lat="45.36243" lon="5.89974">
        <ele>1869.42</ele>
        <time>2021-06-13T13:22:22Z</time>
      </trkpt>
      <trkpt lat="45.3624" lon="5.89969">
        <ele>1869.42</ele>
        <time>2021-06-13T13:22:27Z</time>
      </trkpt>
      <trkpt lat="45.36239" lon="5.89967">
        <ele>1869.42</ele>
        <time>2021-06-13T13:22:29Z</time>
      </trkpt>
      <trkpt lat="45.36237" lon="5.89965">
        <ele>1868.94</ele>
        <time>2021-06-13T13:22:31Z</time>
      </trkpt>
      <trkpt lat="45.36235" lon="5.89963">
        <ele>1868.94</ele>
        <time>2021-06-13T13:22:33Z</time>
      </trkpt>
      <trkpt lat="45.3623" lon="5.89953">
        <ele>1868.94</ele>
        <time>2021-06-13T13:22:44Z</time>
      </trkpt>
      <trkpt lat="45.36229" lon="5.89952">
        <ele>1868.46</ele>
        <time>2021-06-13T13:22:45Z</time>
      </trkpt>
      <trkpt lat="45.36223" lon="5.89944">
        <ele>1868.46</ele>
        <time>2021-06-13T13:22:53Z</time>
      </trkpt>
      <trkpt lat="45.36221" lon="5.89942">
        <ele>1868.46</ele>
        <time>2021-06-13T13:22:55Z</time>
      </trkpt>
      <trkpt lat="45.36219" lon="5.89939">
        <ele>1867.98</ele>
        <time>2021-06-13T13:22:58Z</time>
      </trkpt>
      <trkpt lat="45.3621" lon="5.89927">
        <ele>1869.42</ele>
        <time>2021-06-13T13:23:10Z</time>
      </trkpt>
      <trkpt lat="45.36208" lon="5.89926">
        <ele>1869.42</ele>
        <time>2021-06-13T13:23:13Z</time>
      </trkpt>
      <trkpt lat="45.36206" lon="5.89926">
        <ele>1869.9</ele>
        <time>2021-06-13T13:23:15Z</time>
      </trkpt>
      <trkpt lat="45.36201" lon="5.89922">
        <ele>1869.9</ele>
        <time>2021-06-13T13:23:20Z</time>
      </trkpt>
      <trkpt lat="45.36196" lon="5.89912">
        <ele>1868.94</ele>
        <time>2021-06-13T13:23:27Z</time>
      </trkpt>
      <trkpt lat="45.36194" lon="5.8991">
        <ele>1868.46</ele>
        <time>2021-06-13T13:23:30Z</time>
      </trkpt>
      <trkpt lat="45.3619" lon="5.89903">
        <ele>1868.46</ele>
        <time>2021-06-13T13:23:35Z</time>
      </trkpt>
      <trkpt lat="45.3618" lon="5.899">
        <ele>1868.94</ele>
        <time>2021-06-13T13:23:46Z</time>
      </trkpt>
      <trkpt lat="45.36178" lon="5.89898">
        <ele>1868.94</ele>
        <time>2021-06-13T13:23:48Z</time>
      </trkpt>
      <trkpt lat="45.36177" lon="5.89896">
        <ele>1867.98</ele>
        <time>2021-06-13T13:23:50Z</time>
      </trkpt>
      <trkpt lat="45.3617" lon="5.8989">
        <ele>1867.5</ele>
        <time>2021-06-13T13:23:56Z</time>
      </trkpt>
      <trkpt lat="45.36164" lon="5.89884">
        <ele>1867.02</ele>
        <time>2021-06-13T13:24:03Z</time>
      </trkpt>
      <trkpt lat="45.36162" lon="5.89882">
        <ele>1867.02</ele>
        <time>2021-06-13T13:24:05Z</time>
      </trkpt>
      <trkpt lat="45.36158" lon="5.89879">
        <ele>1866.54</ele>
        <time>2021-06-13T13:24:16Z</time>
      </trkpt>
      <trkpt lat="45.36156" lon="5.89879">
        <ele>1866.54</ele>
        <time>2021-06-13T13:24:21Z</time>
      </trkpt>
      <trkpt lat="45.3615" lon="5.89878">
        <ele>1866.54</ele>
        <time>2021-06-13T13:24:27Z</time>
      </trkpt>
      <trkpt lat="45.36148" lon="5.89876">
        <ele>1866.06</ele>
        <time>2021-06-13T13:24:30Z</time>
      </trkpt>
      <trkpt lat="45.36146" lon="5.89874">
        <ele>1866.06</ele>
        <time>2021-06-13T13:24:32Z</time>
      </trkpt>
      <trkpt lat="45.36138" lon="5.89872">
        <ele>1865.09</ele>
        <time>2021-06-13T13:24:41Z</time>
      </trkpt>
      <trkpt lat="45.36133" lon="5.89868">
        <ele>1864.13</ele>
        <time>2021-06-13T13:24:52Z</time>
      </trkpt>
      <trkpt lat="45.36129" lon="5.89869">
        <ele>1863.65</ele>
        <time>2021-06-13T13:25:09Z</time>
      </trkpt>
      <trkpt lat="45.36127" lon="5.8987">
        <ele>1863.17</ele>
        <time>2021-06-13T13:25:12Z</time>
      </trkpt>
      <trkpt lat="45.36124" lon="5.89871">
        <ele>1861.73</ele>
        <time>2021-06-13T13:25:24Z</time>
      </trkpt>
      <trkpt lat="45.36123" lon="5.89872">
        <ele>1862.21</ele>
        <time>2021-06-13T13:25:39Z</time>
      </trkpt>
      <trkpt lat="45.36123" lon="5.89872">
        <ele>1862.21</ele>
        <time>2021-06-13T13:25:59Z</time>
      </trkpt>
      <trkpt lat="45.36123" lon="5.89872">
        <ele>1861.73</ele>
        <time>2021-06-13T13:26:18Z</time>
      </trkpt>
      <trkpt lat="45.36121" lon="5.89875">
        <ele>1861.25</ele>
        <time>2021-06-13T13:26:29Z</time>
      </trkpt>
      <trkpt lat="45.3612" lon="5.89877">
        <ele>1859.33</ele>
        <time>2021-06-13T13:26:38Z</time>
      </trkpt>
      <trkpt lat="45.36119" lon="5.89878">
        <ele>1858.85</ele>
        <time>2021-06-13T13:26:41Z</time>
      </trkpt>
      <trkpt lat="45.36118" lon="5.89872">
        <ele>1856.92</ele>
        <time>2021-06-13T13:26:51Z</time>
      </trkpt>
      <trkpt lat="45.36111" lon="5.89874">
        <ele>1855</ele>
        <time>2021-06-13T13:27:00Z</time>
      </trkpt>
      <trkpt lat="45.3611" lon="5.89872">
        <ele>1853.56</ele>
        <time>2021-06-13T13:27:03Z</time>
      </trkpt>
      <trkpt lat="45.36109" lon="5.89869">
        <ele>1853.08</ele>
        <time>2021-06-13T13:27:08Z</time>
      </trkpt>
      <trkpt lat="45.36104" lon="5.89869">
        <ele>1851.64</ele>
        <time>2021-06-13T13:27:13Z</time>
      </trkpt>
      <trkpt lat="45.36102" lon="5.89868">
        <ele>1851.16</ele>
        <time>2021-06-13T13:27:15Z</time>
      </trkpt>
      <trkpt lat="45.36103" lon="5.89864">
        <ele>1850.19</ele>
        <time>2021-06-13T13:27:19Z</time>
      </trkpt>
      <trkpt lat="45.36102" lon="5.89857">
        <ele>1847.31</ele>
        <time>2021-06-13T13:27:29Z</time>
      </trkpt>
      <trkpt lat="45.36097" lon="5.89855">
        <ele>1844.91</ele>
        <time>2021-06-13T13:27:39Z</time>
      </trkpt>
      <trkpt lat="45.3609" lon="5.89859">
        <ele>1842.98</ele>
        <time>2021-06-13T13:27:47Z</time>
      </trkpt>
      <trkpt lat="45.36089" lon="5.89859">
        <ele>1842.5</ele>
        <time>2021-06-13T13:27:49Z</time>
      </trkpt>
      <trkpt lat="45.36078" lon="5.89858">
        <ele>1839.62</ele>
        <time>2021-06-13T13:28:00Z</time>
      </trkpt>
      <trkpt lat="45.36069" lon="5.8985">
        <ele>1837.7</ele>
        <time>2021-06-13T13:28:11Z</time>
      </trkpt>
      <trkpt lat="45.36066" lon="5.89851">
        <ele>1836.26</ele>
        <time>2021-06-13T13:28:17Z</time>
      </trkpt>
      <trkpt lat="45.36064" lon="5.89851">
        <ele>1835.77</ele>
        <time>2021-06-13T13:28:19Z</time>
      </trkpt>
      <trkpt lat="45.36056" lon="5.89856">
        <ele>1835.29</ele>
        <time>2021-06-13T13:28:32Z</time>
      </trkpt>
      <trkpt lat="45.36048" lon="5.89863">
        <ele>1834.33</ele>
        <time>2021-06-13T13:28:42Z</time>
      </trkpt>
      <trkpt lat="45.36046" lon="5.89863">
        <ele>1833.85</ele>
        <time>2021-06-13T13:28:43Z</time>
      </trkpt>
      <trkpt lat="45.36036" lon="5.89857">
        <ele>1830.97</ele>
        <time>2021-06-13T13:28:56Z</time>
      </trkpt>
      <trkpt lat="45.36034" lon="5.89856">
        <ele>1830.49</ele>
        <time>2021-06-13T13:28:58Z</time>
      </trkpt>
      <trkpt lat="45.36028" lon="5.89855">
        <ele>1830.49</ele>
        <time>2021-06-13T13:29:04Z</time>
      </trkpt>
      <trkpt lat="45.36026" lon="5.89854">
        <ele>1830.01</ele>
        <time>2021-06-13T13:29:06Z</time>
      </trkpt>
      <trkpt lat="45.36016" lon="5.89848">
        <ele>1829.05</ele>
        <time>2021-06-13T13:29:17Z</time>
      </trkpt>
      <trkpt lat="45.3601" lon="5.89846">
        <ele>1828.56</ele>
        <time>2021-06-13T13:29:27Z</time>
      </trkpt>
      <trkpt lat="45.36009" lon="5.89846">
        <ele>1828.56</ele>
        <time>2021-06-13T13:29:50Z</time>
      </trkpt>
      <trkpt lat="45.36007" lon="5.89846">
        <ele>1828.56</ele>
        <time>2021-06-13T13:29:52Z</time>
      </trkpt>
      <trkpt lat="45.35996" lon="5.89841">
        <ele>1829.53</ele>
        <time>2021-06-13T13:30:06Z</time>
      </trkpt>
      <trkpt lat="45.35992" lon="5.89838">
        <ele>1830.01</ele>
        <time>2021-06-13T13:30:17Z</time>
      </trkpt>
      <trkpt lat="45.3599" lon="5.89837">
        <ele>1830.01</ele>
        <time>2021-06-13T13:30:19Z</time>
      </trkpt>
      <trkpt lat="45.35988" lon="5.89837">
        <ele>1830.49</ele>
        <time>2021-06-13T13:30:21Z</time>
      </trkpt>
      <trkpt lat="45.35985" lon="5.8984">
        <ele>1831.93</ele>
        <time>2021-06-13T13:30:25Z</time>
      </trkpt>
      <trkpt lat="45.35977" lon="5.89835">
        <ele>1832.41</ele>
        <time>2021-06-13T13:30:32Z</time>
      </trkpt>
      <trkpt lat="45.35964" lon="5.89831">
        <ele>1832.89</ele>
        <time>2021-06-13T13:30:45Z</time>
      </trkpt>
      <trkpt lat="45.35956" lon="5.89823">
        <ele>1832.89</ele>
        <time>2021-06-13T13:30:56Z</time>
      </trkpt>
      <trkpt lat="45.35953" lon="5.8982">
        <ele>1832.89</ele>
        <time>2021-06-13T13:30:59Z</time>
      </trkpt>
      <trkpt lat="45.35948" lon="5.89815">
        <ele>1832.89</ele>
        <time>2021-06-13T13:31:05Z</time>
      </trkpt>
      <trkpt lat="45.35939" lon="5.89808">
        <ele>1833.37</ele>
        <time>2021-06-13T13:31:14Z</time>
      </trkpt>
      <trkpt lat="45.35935" lon="5.89807">
        <ele>1834.81</ele>
        <time>2021-06-13T13:31:19Z</time>
      </trkpt>
      <trkpt lat="45.35932" lon="5.89802">
        <ele>1834.81</ele>
        <time>2021-06-13T13:31:24Z</time>
      </trkpt>
      <trkpt lat="45.35929" lon="5.89795">
        <ele>1834.33</ele>
        <time>2021-06-13T13:31:29Z</time>
      </trkpt>
      <trkpt lat="45.35925" lon="5.89794">
        <ele>1836.26</ele>
        <time>2021-06-13T13:31:39Z</time>
      </trkpt>
      <trkpt lat="45.35921" lon="5.89794">
        <ele>1837.22</ele>
        <time>2021-06-13T13:31:44Z</time>
      </trkpt>
      <trkpt lat="45.35918" lon="5.89796">
        <ele>1838.66</ele>
        <time>2021-06-13T13:31:48Z</time>
      </trkpt>
      <trkpt lat="45.35911" lon="5.89791">
        <ele>1840.1</ele>
        <time>2021-06-13T13:31:59Z</time>
      </trkpt>
      <trkpt lat="45.3591" lon="5.89789">
        <ele>1840.1</ele>
        <time>2021-06-13T13:32:14Z</time>
      </trkpt>
      <trkpt lat="45.35908" lon="5.89786">
        <ele>1839.14</ele>
        <time>2021-06-13T13:32:32Z</time>
      </trkpt>
      <trkpt lat="45.35903" lon="5.89775">
        <ele>1839.14</ele>
        <time>2021-06-13T13:32:50Z</time>
      </trkpt>
      <trkpt lat="45.35902" lon="5.89772">
        <ele>1839.62</ele>
        <time>2021-06-13T13:33:06Z</time>
      </trkpt>
      <trkpt lat="45.35898" lon="5.89766">
        <ele>1839.14</ele>
        <time>2021-06-13T13:33:18Z</time>
      </trkpt>
      <trkpt lat="45.35893" lon="5.89765">
        <ele>1840.58</ele>
        <time>2021-06-13T13:33:31Z</time>
      </trkpt>
      <trkpt lat="45.35892" lon="5.89764">
        <ele>1841.06</ele>
        <time>2021-06-13T13:33:34Z</time>
      </trkpt>
      <trkpt lat="45.35887" lon="5.89769">
        <ele>1842.5</ele>
        <time>2021-06-13T13:33:47Z</time>
      </trkpt>
      <trkpt lat="45.35884" lon="5.89763">
        <ele>1841.54</ele>
        <time>2021-06-13T13:34:00Z</time>
      </trkpt>
      <trkpt lat="45.35885" lon="5.89763">
        <ele>1841.54</ele>
        <time>2021-06-13T13:34:15Z</time>
      </trkpt>
      <trkpt lat="45.35886" lon="5.89764">
        <ele>1842.02</ele>
        <time>2021-06-13T13:34:24Z</time>
      </trkpt>
      <trkpt lat="45.3589" lon="5.89766">
        <ele>1841.54</ele>
        <time>2021-06-13T13:34:37Z</time>
      </trkpt>
      <trkpt lat="45.35891" lon="5.89768">
        <ele>1842.5</ele>
        <time>2021-06-13T13:34:55Z</time>
      </trkpt>
      <trkpt lat="45.3589" lon="5.89767">
        <ele>1842.02</ele>
        <time>2021-06-13T13:35:11Z</time>
      </trkpt>
      <trkpt lat="45.35891" lon="5.89768">
        <ele>1842.02</ele>
        <time>2021-06-13T13:35:25Z</time>
      </trkpt>
      <trkpt lat="45.35891" lon="5.89769">
        <ele>1842.02</ele>
        <time>2021-06-13T13:35:45Z</time>
      </trkpt>
      <trkpt lat="45.35891" lon="5.89769">
        <ele>1842.02</ele>
        <time>2021-06-13T13:36:10Z</time>
      </trkpt>
      <trkpt lat="45.3589" lon="5.89769">
        <ele>1841.54</ele>
        <time>2021-06-13T13:36:20Z</time>
      </trkpt>
      <trkpt lat="45.35888" lon="5.89768">
        <ele>1841.54</ele>
        <time>2021-06-13T13:36:22Z</time>
      </trkpt>
      <trkpt lat="45.3588" lon="5.89758">
        <ele>1840.1</ele>
        <time>2021-06-13T13:36:35Z</time>
      </trkpt>
      <trkpt lat="45.3588" lon="5.89755">
        <ele>1838.66</ele>
        <time>2021-06-13T13:36:38Z</time>
      </trkpt>
      <trkpt lat="45.35878" lon="5.89747">
        <ele>1835.29</ele>
        <time>2021-06-13T13:36:46Z</time>
      </trkpt>
      <trkpt lat="45.35877" lon="5.89747">
        <ele>1837.22</ele>
        <time>2021-06-13T13:36:47Z</time>
      </trkpt>
      <trkpt lat="45.35869" lon="5.89738">
        <ele>1835.29</ele>
        <time>2021-06-13T13:37:00Z</time>
      </trkpt>
      <trkpt lat="45.35867" lon="5.89737">
        <ele>1835.29</ele>
        <time>2021-06-13T13:37:02Z</time>
      </trkpt>
      <trkpt lat="45.35866" lon="5.89738">
        <ele>1837.22</ele>
        <time>2021-06-13T13:37:09Z</time>
      </trkpt>
      <trkpt lat="45.35866" lon="5.89738">
        <ele>1837.22</ele>
        <time>2021-06-13T13:37:10Z</time>
      </trkpt>
      <trkpt lat="45.35863" lon="5.89739">
        <ele>1835.29</ele>
        <time>2021-06-13T13:37:14Z</time>
      </trkpt>
      <trkpt lat="45.35862" lon="5.89738">
        <ele>1835.29</ele>
        <time>2021-06-13T13:37:15Z</time>
      </trkpt>
      <trkpt lat="45.3586" lon="5.89737">
        <ele>1834.81</ele>
        <time>2021-06-13T13:37:17Z</time>
      </trkpt>
      <trkpt lat="45.35855" lon="5.89734">
        <ele>1835.29</ele>
        <time>2021-06-13T13:37:23Z</time>
      </trkpt>
      <trkpt lat="45.35852" lon="5.89733">
        <ele>1835.77</ele>
        <time>2021-06-13T13:37:25Z</time>
      </trkpt>
      <trkpt lat="45.35846" lon="5.89733">
        <ele>1838.18</ele>
        <time>2021-06-13T13:37:33Z</time>
      </trkpt>
      <trkpt lat="45.3584" lon="5.89726">
        <ele>1838.18</ele>
        <time>2021-06-13T13:37:44Z</time>
      </trkpt>
      <trkpt lat="45.3584" lon="5.89725">
        <ele>1836.74</ele>
        <time>2021-06-13T13:37:54Z</time>
      </trkpt>
      <trkpt lat="45.3584" lon="5.89725">
        <ele>1837.22</ele>
        <time>2021-06-13T13:38:15Z</time>
      </trkpt>
      <trkpt lat="45.35841" lon="5.89724">
        <ele>1838.18</ele>
        <time>2021-06-13T13:38:27Z</time>
      </trkpt>
      <trkpt lat="45.35841" lon="5.89724">
        <ele>1838.18</ele>
        <time>2021-06-13T13:38:45Z</time>
      </trkpt>
      <trkpt lat="45.35841" lon="5.89723">
        <ele>1837.7</ele>
        <time>2021-06-13T13:39:07Z</time>
      </trkpt>
      <trkpt lat="45.35839" lon="5.89723">
        <ele>1837.7</ele>
        <time>2021-06-13T13:39:13Z</time>
      </trkpt>
      <trkpt lat="45.35837" lon="5.89721">
        <ele>1837.22</ele>
        <time>2021-06-13T13:39:15Z</time>
      </trkpt>
      <trkpt lat="45.35835" lon="5.89718">
        <ele>1837.22</ele>
        <time>2021-06-13T13:39:18Z</time>
      </trkpt>
      <trkpt lat="45.35827" lon="5.89712">
        <ele>1835.77</ele>
        <time>2021-06-13T13:39:28Z</time>
      </trkpt>
      <trkpt lat="45.3582" lon="5.89707">
        <ele>1836.26</ele>
        <time>2021-06-13T13:39:35Z</time>
      </trkpt>
      <trkpt lat="45.35818" lon="5.89701">
        <ele>1835.29</ele>
        <time>2021-06-13T13:39:40Z</time>
      </trkpt>
      <trkpt lat="45.35817" lon="5.8969">
        <ele>1833.37</ele>
        <time>2021-06-13T13:39:54Z</time>
      </trkpt>
      <trkpt lat="45.35816" lon="5.89689">
        <ele>1833.37</ele>
        <time>2021-06-13T13:40:06Z</time>
      </trkpt>
      <trkpt lat="45.35815" lon="5.89688">
        <ele>1833.37</ele>
        <time>2021-06-13T13:40:22Z</time>
      </trkpt>
      <trkpt lat="45.35815" lon="5.89689">
        <ele>1832.89</ele>
        <time>2021-06-13T13:40:37Z</time>
      </trkpt>
      <trkpt lat="45.35814" lon="5.89689">
        <ele>1832.89</ele>
        <time>2021-06-13T13:40:41Z</time>
      </trkpt>
      <trkpt lat="45.35812" lon="5.89691">
        <ele>1831.45</ele>
        <time>2021-06-13T13:40:47Z</time>
      </trkpt>
      <trkpt lat="45.35811" lon="5.89695">
        <ele>1830.49</ele>
        <time>2021-06-13T13:40:51Z</time>
      </trkpt>
      <trkpt lat="45.35809" lon="5.89697">
        <ele>1830.01</ele>
        <time>2021-06-13T13:40:54Z</time>
      </trkpt>
      <trkpt lat="45.35812" lon="5.89705">
        <ele>1828.56</ele>
        <time>2021-06-13T13:41:00Z</time>
      </trkpt>
      <trkpt lat="45.35813" lon="5.89712">
        <ele>1827.12</ele>
        <time>2021-06-13T13:41:06Z</time>
      </trkpt>
      <trkpt lat="45.35811" lon="5.89714">
        <ele>1826.64</ele>
        <time>2021-06-13T13:41:09Z</time>
      </trkpt>
      <trkpt lat="45.3581" lon="5.89721">
        <ele>1824.72</ele>
        <time>2021-06-13T13:41:16Z</time>
      </trkpt>
      <trkpt lat="45.35808" lon="5.89728">
        <ele>1821.35</ele>
        <time>2021-06-13T13:41:27Z</time>
      </trkpt>
      <trkpt lat="45.35809" lon="5.8973">
        <ele>1821.35</ele>
        <time>2021-06-13T13:41:29Z</time>
      </trkpt>
      <trkpt lat="45.35808" lon="5.89736">
        <ele>1819.91</ele>
        <time>2021-06-13T13:41:35Z</time>
      </trkpt>
      <trkpt lat="45.35809" lon="5.89737">
        <ele>1817.99</ele>
        <time>2021-06-13T13:41:41Z</time>
      </trkpt>
      <trkpt lat="45.35809" lon="5.89732">
        <ele>1817.51</ele>
        <time>2021-06-13T13:41:46Z</time>
      </trkpt>
      <trkpt lat="45.35813" lon="5.89732">
        <ele>1816.55</ele>
        <time>2021-06-13T13:41:49Z</time>
      </trkpt>
      <trkpt lat="45.35816" lon="5.8973">
        <ele>1815.59</ele>
        <time>2021-06-13T13:41:52Z</time>
      </trkpt>
      <trkpt lat="45.35817" lon="5.89732">
        <ele>1815.11</ele>
        <time>2021-06-13T13:41:55Z</time>
      </trkpt>
      <trkpt lat="45.35823" lon="5.89737">
        <ele>1813.66</ele>
        <time>2021-06-13T13:42:03Z</time>
      </trkpt>
      <trkpt lat="45.35821" lon="5.89742">
        <ele>1812.22</ele>
        <time>2021-06-13T13:42:08Z</time>
      </trkpt>
      <trkpt lat="45.35824" lon="5.89747">
        <ele>1810.3</ele>
        <time>2021-06-13T13:42:15Z</time>
      </trkpt>
      <trkpt lat="45.35825" lon="5.89751">
        <ele>1809.34</ele>
        <time>2021-06-13T13:42:18Z</time>
      </trkpt>
      <trkpt lat="45.35823" lon="5.8975">
        <ele>1808.86</ele>
        <time>2021-06-13T13:42:20Z</time>
      </trkpt>
      <trkpt lat="45.35821" lon="5.89747">
        <ele>1808.86</ele>
        <time>2021-06-13T13:42:22Z</time>
      </trkpt>
      <trkpt lat="45.35818" lon="5.89747">
        <ele>1808.38</ele>
        <time>2021-06-13T13:42:24Z</time>
      </trkpt>
      <trkpt lat="45.35816" lon="5.89746">
        <ele>1807.9</ele>
        <time>2021-06-13T13:42:26Z</time>
      </trkpt>
      <trkpt lat="45.35809" lon="5.89749">
        <ele>1807.9</ele>
        <time>2021-06-13T13:42:32Z</time>
      </trkpt>
      <trkpt lat="45.35807" lon="5.8975">
        <ele>1808.38</ele>
        <time>2021-06-13T13:42:34Z</time>
      </trkpt>
      <trkpt lat="45.35804" lon="5.89761">
        <ele>1807.9</ele>
        <time>2021-06-13T13:42:41Z</time>
      </trkpt>
      <trkpt lat="45.35804" lon="5.89765">
        <ele>1807.9</ele>
        <time>2021-06-13T13:42:45Z</time>
      </trkpt>
      <trkpt lat="45.358" lon="5.89769">
        <ele>1808.86</ele>
        <time>2021-06-13T13:42:49Z</time>
      </trkpt>
      <trkpt lat="45.35796" lon="5.89771">
        <ele>1810.3</ele>
        <time>2021-06-13T13:42:54Z</time>
      </trkpt>
      <trkpt lat="45.35792" lon="5.89778">
        <ele>1812.22</ele>
        <time>2021-06-13T13:43:02Z</time>
      </trkpt>
      <trkpt lat="45.3579" lon="5.89785">
        <ele>1812.7</ele>
        <time>2021-06-13T13:43:06Z</time>
      </trkpt>
      <trkpt lat="45.35788" lon="5.89792">
        <ele>1813.18</ele>
        <time>2021-06-13T13:43:11Z</time>
      </trkpt>
      <trkpt lat="45.35783" lon="5.89792">
        <ele>1814.63</ele>
        <time>2021-06-13T13:43:16Z</time>
      </trkpt>
      <trkpt lat="45.35781" lon="5.89793">
        <ele>1815.11</ele>
        <time>2021-06-13T13:43:18Z</time>
      </trkpt>
      <trkpt lat="45.35772" lon="5.89797">
        <ele>1816.55</ele>
        <time>2021-06-13T13:43:27Z</time>
      </trkpt>
      <trkpt lat="45.35766" lon="5.89796">
        <ele>1816.07</ele>
        <time>2021-06-13T13:43:33Z</time>
      </trkpt>
      <trkpt lat="45.35762" lon="5.8979">
        <ele>1815.11</ele>
        <time>2021-06-13T13:43:40Z</time>
      </trkpt>
      <trkpt lat="45.35758" lon="5.8979">
        <ele>1814.63</ele>
        <time>2021-06-13T13:43:43Z</time>
      </trkpt>
      <trkpt lat="45.35743" lon="5.89774">
        <ele>1812.7</ele>
        <time>2021-06-13T13:43:59Z</time>
      </trkpt>
      <trkpt lat="45.35741" lon="5.89771">
        <ele>1812.7</ele>
        <time>2021-06-13T13:44:01Z</time>
      </trkpt>
      <trkpt lat="45.35738" lon="5.89763">
        <ele>1812.22</ele>
        <time>2021-06-13T13:44:06Z</time>
      </trkpt>
      <trkpt lat="45.35738" lon="5.89753">
        <ele>1811.26</ele>
        <time>2021-06-13T13:44:13Z</time>
      </trkpt>
      <trkpt lat="45.35737" lon="5.89749">
        <ele>1810.78</ele>
        <time>2021-06-13T13:44:16Z</time>
      </trkpt>
      <trkpt lat="45.35737" lon="5.89746">
        <ele>1810.3</ele>
        <time>2021-06-13T13:44:18Z</time>
      </trkpt>
      <trkpt lat="45.35739" lon="5.89741">
        <ele>1809.34</ele>
        <time>2021-06-13T13:44:22Z</time>
      </trkpt>
      <trkpt lat="45.35742" lon="5.8973">
        <ele>1807.9</ele>
        <time>2021-06-13T13:44:32Z</time>
      </trkpt>
      <trkpt lat="45.35744" lon="5.89715">
        <ele>1806.45</ele>
        <time>2021-06-13T13:44:43Z</time>
      </trkpt>
      <trkpt lat="45.35745" lon="5.89712">
        <ele>1806.45</ele>
        <time>2021-06-13T13:44:45Z</time>
      </trkpt>
      <trkpt lat="45.35746" lon="5.89709">
        <ele>1805.97</ele>
        <time>2021-06-13T13:44:47Z</time>
      </trkpt>
      <trkpt lat="45.35748" lon="5.89705">
        <ele>1805.97</ele>
        <time>2021-06-13T13:44:50Z</time>
      </trkpt>
      <trkpt lat="45.3575" lon="5.89693">
        <ele>1804.53</ele>
        <time>2021-06-13T13:44:57Z</time>
      </trkpt>
      <trkpt lat="45.35748" lon="5.89676">
        <ele>1802.13</ele>
        <time>2021-06-13T13:45:09Z</time>
      </trkpt>
      <trkpt lat="45.35748" lon="5.89672">
        <ele>1802.13</ele>
        <time>2021-06-13T13:45:11Z</time>
      </trkpt>
      <trkpt lat="45.3575" lon="5.89666">
        <ele>1801.17</ele>
        <time>2021-06-13T13:45:14Z</time>
      </trkpt>
      <trkpt lat="45.35749" lon="5.89647">
        <ele>1799.73</ele>
        <time>2021-06-13T13:45:26Z</time>
      </trkpt>
      <trkpt lat="45.35749" lon="5.89647">
        <ele>1800.21</ele>
        <time>2021-06-13T13:45:45Z</time>
      </trkpt>
      <trkpt lat="45.35749" lon="5.89647">
        <ele>1799.24</ele>
        <time>2021-06-13T13:46:08Z</time>
      </trkpt>
      <trkpt lat="45.35749" lon="5.89647">
        <ele>1799.73</ele>
        <time>2021-06-13T13:46:26Z</time>
      </trkpt>
      <trkpt lat="45.35748" lon="5.89646">
        <ele>1799.24</ele>
        <time>2021-06-13T13:46:44Z</time>
      </trkpt>
      <trkpt lat="45.35748" lon="5.89646">
        <ele>1799.73</ele>
        <time>2021-06-13T13:46:49Z</time>
      </trkpt>
      <trkpt lat="45.35747" lon="5.89637">
        <ele>1798.28</ele>
        <time>2021-06-13T13:46:56Z</time>
      </trkpt>
      <trkpt lat="45.35745" lon="5.8963">
        <ele>1796.84</ele>
        <time>2021-06-13T13:47:03Z</time>
      </trkpt>
      <trkpt lat="45.35735" lon="5.8962">
        <ele>1794.44</ele>
        <time>2021-06-13T13:47:14Z</time>
      </trkpt>
      <trkpt lat="45.35731" lon="5.89614">
        <ele>1793.48</ele>
        <time>2021-06-13T13:47:18Z</time>
      </trkpt>
      <trkpt lat="45.35729" lon="5.89609">
        <ele>1793</ele>
        <time>2021-06-13T13:47:21Z</time>
      </trkpt>
      <trkpt lat="45.35728" lon="5.89605">
        <ele>1793</ele>
        <time>2021-06-13T13:47:23Z</time>
      </trkpt>
      <trkpt lat="45.35724" lon="5.89601">
        <ele>1792.03</ele>
        <time>2021-06-13T13:47:27Z</time>
      </trkpt>
      <trkpt lat="45.35718" lon="5.896">
        <ele>1790.11</ele>
        <time>2021-06-13T13:47:36Z</time>
      </trkpt>
      <trkpt lat="45.35716" lon="5.89592">
        <ele>1789.15</ele>
        <time>2021-06-13T13:47:39Z</time>
      </trkpt>
      <trkpt lat="45.35715" lon="5.89588">
        <ele>1788.67</ele>
        <time>2021-06-13T13:47:41Z</time>
      </trkpt>
      <trkpt lat="45.35713" lon="5.89587">
        <ele>1788.19</ele>
        <time>2021-06-13T13:47:43Z</time>
      </trkpt>
      <trkpt lat="45.35706" lon="5.89574">
        <ele>1786.27</ele>
        <time>2021-06-13T13:47:54Z</time>
      </trkpt>
      <trkpt lat="45.357" lon="5.8956">
        <ele>1783.86</ele>
        <time>2021-06-13T13:48:04Z</time>
      </trkpt>
      <trkpt lat="45.357" lon="5.89559">
        <ele>1783.86</ele>
        <time>2021-06-13T13:48:05Z</time>
      </trkpt>
      <trkpt lat="45.35694" lon="5.89549">
        <ele>1781.46</ele>
        <time>2021-06-13T13:48:17Z</time>
      </trkpt>
      <trkpt lat="45.35692" lon="5.8955">
        <ele>1780.98</ele>
        <time>2021-06-13T13:48:19Z</time>
      </trkpt>
      <trkpt lat="45.35695" lon="5.89565">
        <ele>1779.06</ele>
        <time>2021-06-13T13:48:29Z</time>
      </trkpt>
      <trkpt lat="45.35699" lon="5.89581">
        <ele>1777.61</ele>
        <time>2021-06-13T13:48:38Z</time>
      </trkpt>
      <trkpt lat="45.35699" lon="5.89581">
        <ele>1777.13</ele>
        <time>2021-06-13T13:48:42Z</time>
      </trkpt>
      <trkpt lat="45.35695" lon="5.89574">
        <ele>1774.73</ele>
        <time>2021-06-13T13:48:52Z</time>
      </trkpt>
      <trkpt lat="45.3569" lon="5.89567">
        <ele>1772.33</ele>
        <time>2021-06-13T13:49:03Z</time>
      </trkpt>
      <trkpt lat="45.35689" lon="5.89565">
        <ele>1771.85</ele>
        <time>2021-06-13T13:49:05Z</time>
      </trkpt>
      <trkpt lat="45.35688" lon="5.89563">
        <ele>1770.41</ele>
        <time>2021-06-13T13:49:15Z</time>
      </trkpt>
      <trkpt lat="45.35685" lon="5.89561">
        <ele>1768.48</ele>
        <time>2021-06-13T13:49:22Z</time>
      </trkpt>
      <trkpt lat="45.35683" lon="5.89551">
        <ele>1767.04</ele>
        <time>2021-06-13T13:49:30Z</time>
      </trkpt>
      <trkpt lat="45.35679" lon="5.89547">
        <ele>1765.6</ele>
        <time>2021-06-13T13:49:36Z</time>
      </trkpt>
      <trkpt lat="45.35678" lon="5.89547">
        <ele>1765.6</ele>
        <time>2021-06-13T13:49:38Z</time>
      </trkpt>
      <trkpt lat="45.35677" lon="5.89548">
        <ele>1764.16</ele>
        <time>2021-06-13T13:49:46Z</time>
      </trkpt>
      <trkpt lat="45.35681" lon="5.89548">
        <ele>1763.68</ele>
        <time>2021-06-13T13:49:49Z</time>
      </trkpt>
      <trkpt lat="45.35688" lon="5.89555">
        <ele>1762.23</ele>
        <time>2021-06-13T13:50:00Z</time>
      </trkpt>
      <trkpt lat="45.35692" lon="5.8957">
        <ele>1759.83</ele>
        <time>2021-06-13T13:50:12Z</time>
      </trkpt>
      <trkpt lat="45.35693" lon="5.89572">
        <ele>1758.87</ele>
        <time>2021-06-13T13:50:14Z</time>
      </trkpt>
      <trkpt lat="45.35693" lon="5.89581">
        <ele>1757.43</ele>
        <time>2021-06-13T13:50:18Z</time>
      </trkpt>
      <trkpt lat="45.35689" lon="5.89579">
        <ele>1756.95</ele>
        <time>2021-06-13T13:50:22Z</time>
      </trkpt>
      <trkpt lat="45.35685" lon="5.89572">
        <ele>1755.02</ele>
        <time>2021-06-13T13:50:30Z</time>
      </trkpt>
      <trkpt lat="45.35684" lon="5.89573">
        <ele>1754.54</ele>
        <time>2021-06-13T13:50:33Z</time>
      </trkpt>
      <trkpt lat="45.35678" lon="5.89571">
        <ele>1752.14</ele>
        <time>2021-06-13T13:50:44Z</time>
      </trkpt>
      <trkpt lat="45.35675" lon="5.89569">
        <ele>1750.7</ele>
        <time>2021-06-13T13:50:51Z</time>
      </trkpt>
      <trkpt lat="45.35675" lon="5.89562">
        <ele>1748.29</ele>
        <time>2021-06-13T13:51:01Z</time>
      </trkpt>
      <trkpt lat="45.35675" lon="5.8956">
        <ele>1747.81</ele>
        <time>2021-06-13T13:51:03Z</time>
      </trkpt>
      <trkpt lat="45.35671" lon="5.89562">
        <ele>1746.37</ele>
        <time>2021-06-13T13:51:11Z</time>
      </trkpt>
      <trkpt lat="45.35666" lon="5.89559">
        <ele>1743.97</ele>
        <time>2021-06-13T13:51:22Z</time>
      </trkpt>
      <trkpt lat="45.35666" lon="5.89559">
        <ele>1743.97</ele>
        <time>2021-06-13T13:51:23Z</time>
      </trkpt>
      <trkpt lat="45.35662" lon="5.89557">
        <ele>1742.53</ele>
        <time>2021-06-13T13:51:33Z</time>
      </trkpt>
      <trkpt lat="45.35657" lon="5.89551">
        <ele>1740.6</ele>
        <time>2021-06-13T13:51:43Z</time>
      </trkpt>
      <trkpt lat="45.35657" lon="5.89552">
        <ele>1739.64</ele>
        <time>2021-06-13T13:51:48Z</time>
      </trkpt>
      <trkpt lat="45.35654" lon="5.89558">
        <ele>1737.24</ele>
        <time>2021-06-13T13:51:59Z</time>
      </trkpt>
      <trkpt lat="45.35654" lon="5.89561">
        <ele>1735.32</ele>
        <time>2021-06-13T13:52:12Z</time>
      </trkpt>
      <trkpt lat="45.35654" lon="5.89562">
        <ele>1734.36</ele>
        <time>2021-06-13T13:52:16Z</time>
      </trkpt>
      <trkpt lat="45.35653" lon="5.89567">
        <ele>1732.43</ele>
        <time>2021-06-13T13:52:23Z</time>
      </trkpt>
      <trkpt lat="45.35653" lon="5.8957">
        <ele>1731.95</ele>
        <time>2021-06-13T13:52:26Z</time>
      </trkpt>
      <trkpt lat="45.35647" lon="5.8958">
        <ele>1729.55</ele>
        <time>2021-06-13T13:52:38Z</time>
      </trkpt>
      <trkpt lat="45.35644" lon="5.8958">
        <ele>1727.15</ele>
        <time>2021-06-13T13:52:48Z</time>
      </trkpt>
      <trkpt lat="45.35636" lon="5.89579">
        <ele>1724.74</ele>
        <time>2021-06-13T13:52:57Z</time>
      </trkpt>
      <trkpt lat="45.35631" lon="5.89577">
        <ele>1723.3</ele>
        <time>2021-06-13T13:53:03Z</time>
      </trkpt>
      <trkpt lat="45.35629" lon="5.89576">
        <ele>1722.82</ele>
        <time>2021-06-13T13:53:05Z</time>
      </trkpt>
      <trkpt lat="45.35626" lon="5.89584">
        <ele>1720.9</ele>
        <time>2021-06-13T13:53:12Z</time>
      </trkpt>
      <trkpt lat="45.35629" lon="5.89597">
        <ele>1717.53</ele>
        <time>2021-06-13T13:53:26Z</time>
      </trkpt>
      <trkpt lat="45.35634" lon="5.89601">
        <ele>1715.61</ele>
        <time>2021-06-13T13:53:33Z</time>
      </trkpt>
      <trkpt lat="45.35636" lon="5.89611">
        <ele>1713.21</ele>
        <time>2021-06-13T13:53:44Z</time>
      </trkpt>
      <trkpt lat="45.35644" lon="5.89621">
        <ele>1710.8</ele>
        <time>2021-06-13T13:53:57Z</time>
      </trkpt>
      <trkpt lat="45.35647" lon="5.89632">
        <ele>1708.4</ele>
        <time>2021-06-13T13:54:07Z</time>
      </trkpt>
      <trkpt lat="45.35648" lon="5.89634">
        <ele>1707.92</ele>
        <time>2021-06-13T13:54:08Z</time>
      </trkpt>
      <trkpt lat="45.35644" lon="5.89638">
        <ele>1705.04</ele>
        <time>2021-06-13T13:54:20Z</time>
      </trkpt>
      <trkpt lat="45.35643" lon="5.89637">
        <ele>1704.55</ele>
        <time>2021-06-13T13:54:22Z</time>
      </trkpt>
      <trkpt lat="45.35637" lon="5.8964">
        <ele>1703.11</ele>
        <time>2021-06-13T13:54:32Z</time>
      </trkpt>
      <trkpt lat="45.35641" lon="5.89646">
        <ele>1701.19</ele>
        <time>2021-06-13T13:54:43Z</time>
      </trkpt>
      <trkpt lat="45.35642" lon="5.89652">
        <ele>1698.79</ele>
        <time>2021-06-13T13:54:54Z</time>
      </trkpt>
      <trkpt lat="45.35642" lon="5.89655">
        <ele>1697.83</ele>
        <time>2021-06-13T13:55:03Z</time>
      </trkpt>
      <trkpt lat="45.35643" lon="5.89659">
        <ele>1697.34</ele>
        <time>2021-06-13T13:55:05Z</time>
      </trkpt>
      <trkpt lat="45.35641" lon="5.89662">
        <ele>1695.9</ele>
        <time>2021-06-13T13:55:10Z</time>
      </trkpt>
      <trkpt lat="45.35636" lon="5.89658">
        <ele>1693.02</ele>
        <time>2021-06-13T13:55:22Z</time>
      </trkpt>
      <trkpt lat="45.35635" lon="5.89661">
        <ele>1692.06</ele>
        <time>2021-06-13T13:55:28Z</time>
      </trkpt>
      <trkpt lat="45.35631" lon="5.89658">
        <ele>1690.14</ele>
        <time>2021-06-13T13:55:40Z</time>
      </trkpt>
      <trkpt lat="45.35628" lon="5.8965">
        <ele>1687.25</ele>
        <time>2021-06-13T13:55:53Z</time>
      </trkpt>
      <trkpt lat="45.35622" lon="5.89645">
        <ele>1684.37</ele>
        <time>2021-06-13T13:56:06Z</time>
      </trkpt>
      <trkpt lat="45.35618" lon="5.89643">
        <ele>1681.96</ele>
        <time>2021-06-13T13:56:17Z</time>
      </trkpt>
      <trkpt lat="45.35614" lon="5.89643">
        <ele>1680.04</ele>
        <time>2021-06-13T13:56:26Z</time>
      </trkpt>
      <trkpt lat="45.35615" lon="5.89652">
        <ele>1678.12</ele>
        <time>2021-06-13T13:56:36Z</time>
      </trkpt>
      <trkpt lat="45.35615" lon="5.89658">
        <ele>1675.72</ele>
        <time>2021-06-13T13:56:47Z</time>
      </trkpt>
      <trkpt lat="45.35615" lon="5.89666">
        <ele>1673.79</ele>
        <time>2021-06-13T13:56:55Z</time>
      </trkpt>
      <trkpt lat="45.35615" lon="5.89676">
        <ele>1671.39</ele>
        <time>2021-06-13T13:57:04Z</time>
      </trkpt>
      <trkpt lat="45.35614" lon="5.89682">
        <ele>1669.47</ele>
        <time>2021-06-13T13:57:12Z</time>
      </trkpt>
      <trkpt lat="45.35615" lon="5.89685">
        <ele>1668.99</ele>
        <time>2021-06-13T13:57:15Z</time>
      </trkpt>
      <trkpt lat="45.35617" lon="5.89692">
        <ele>1667.54</ele>
        <time>2021-06-13T13:57:22Z</time>
      </trkpt>
      <trkpt lat="45.35608" lon="5.89694">
        <ele>1665.14</ele>
        <time>2021-06-13T13:57:32Z</time>
      </trkpt>
      <trkpt lat="45.35608" lon="5.89698">
        <ele>1664.66</ele>
        <time>2021-06-13T13:57:36Z</time>
      </trkpt>
      <trkpt lat="45.35614" lon="5.89702">
        <ele>1662.26</ele>
        <time>2021-06-13T13:57:46Z</time>
      </trkpt>
      <trkpt lat="45.35615" lon="5.89703">
        <ele>1661.78</ele>
        <time>2021-06-13T13:57:49Z</time>
      </trkpt>
      <trkpt lat="45.35617" lon="5.8971">
        <ele>1659.85</ele>
        <time>2021-06-13T13:57:56Z</time>
      </trkpt>
      <trkpt lat="45.35611" lon="5.89715">
        <ele>1656.97</ele>
        <time>2021-06-13T13:58:10Z</time>
      </trkpt>
      <trkpt lat="45.35613" lon="5.89724">
        <ele>1654.09</ele>
        <time>2021-06-13T13:58:23Z</time>
      </trkpt>
      <trkpt lat="45.35612" lon="5.89727">
        <ele>1653.6</ele>
        <time>2021-06-13T13:58:25Z</time>
      </trkpt>
      <trkpt lat="45.35614" lon="5.89735">
        <ele>1651.68</ele>
        <time>2021-06-13T13:58:31Z</time>
      </trkpt>
      <trkpt lat="45.35616" lon="5.8974">
        <ele>1650.24</ele>
        <time>2021-06-13T13:58:36Z</time>
      </trkpt>
      <trkpt lat="45.35617" lon="5.89753">
        <ele>1646.88</ele>
        <time>2021-06-13T13:58:49Z</time>
      </trkpt>
      <trkpt lat="45.35616" lon="5.89756">
        <ele>1647.36</ele>
        <time>2021-06-13T13:58:51Z</time>
      </trkpt>
      <trkpt lat="45.35617" lon="5.89764">
        <ele>1645.43</ele>
        <time>2021-06-13T13:58:58Z</time>
      </trkpt>
      <trkpt lat="45.35618" lon="5.89768">
        <ele>1643.99</ele>
        <time>2021-06-13T13:59:01Z</time>
      </trkpt>
      <trkpt lat="45.35617" lon="5.89772">
        <ele>1643.51</ele>
        <time>2021-06-13T13:59:05Z</time>
      </trkpt>
      <trkpt lat="45.35616" lon="5.89776">
        <ele>1642.07</ele>
        <time>2021-06-13T13:59:09Z</time>
      </trkpt>
      <trkpt lat="45.35619" lon="5.89789">
        <ele>1640.15</ele>
        <time>2021-06-13T13:59:21Z</time>
      </trkpt>
      <trkpt lat="45.35618" lon="5.89797">
        <ele>1637.74</ele>
        <time>2021-06-13T13:59:32Z</time>
      </trkpt>
      <trkpt lat="45.35619" lon="5.898">
        <ele>1637.26</ele>
        <time>2021-06-13T13:59:35Z</time>
      </trkpt>
      <trkpt lat="45.35627" lon="5.8981">
        <ele>1634.38</ele>
        <time>2021-06-13T13:59:48Z</time>
      </trkpt>
      <trkpt lat="45.35631" lon="5.8982">
        <ele>1631.01</ele>
        <time>2021-06-13T14:00:01Z</time>
      </trkpt>
      <trkpt lat="45.35632" lon="5.89823">
        <ele>1630.05</ele>
        <time>2021-06-13T14:00:04Z</time>
      </trkpt>
      <trkpt lat="45.35635" lon="5.89843">
        <ele>1626.21</ele>
        <time>2021-06-13T14:00:10Z</time>
      </trkpt>
      <trkpt lat="45.35635" lon="5.89845">
        <ele>1626.21</ele>
        <time>2021-06-13T14:00:11Z</time>
      </trkpt>
      <trkpt lat="45.35629" lon="5.89842">
        <ele>1624.77</ele>
        <time>2021-06-13T14:00:17Z</time>
      </trkpt>
      <trkpt lat="45.35618" lon="5.89837">
        <ele>1621.88</ele>
        <time>2021-06-13T14:00:30Z</time>
      </trkpt>
      <trkpt lat="45.35619" lon="5.89839">
        <ele>1621.4</ele>
        <time>2021-06-13T14:00:32Z</time>
      </trkpt>
      <trkpt lat="45.35624" lon="5.89846">
        <ele>1619.96</ele>
        <time>2021-06-13T14:00:40Z</time>
      </trkpt>
      <trkpt lat="45.35628" lon="5.89861">
        <ele>1618.04</ele>
        <time>2021-06-13T14:00:49Z</time>
      </trkpt>
      <trkpt lat="45.35627" lon="5.89865">
        <ele>1618.04</ele>
        <time>2021-06-13T14:00:52Z</time>
      </trkpt>
      <trkpt lat="45.3563" lon="5.89869">
        <ele>1616.59</ele>
        <time>2021-06-13T14:00:55Z</time>
      </trkpt>
      <trkpt lat="45.35632" lon="5.89879">
        <ele>1613.71</ele>
        <time>2021-06-13T14:01:03Z</time>
      </trkpt>
      <trkpt lat="45.35634" lon="5.8989">
        <ele>1611.31</ele>
        <time>2021-06-13T14:01:12Z</time>
      </trkpt>
      <trkpt lat="45.35635" lon="5.89906">
        <ele>1607.94</ele>
        <time>2021-06-13T14:01:25Z</time>
      </trkpt>
      <trkpt lat="45.35634" lon="5.89909">
        <ele>1606.98</ele>
        <time>2021-06-13T14:01:28Z</time>
      </trkpt>
      <trkpt lat="45.35634" lon="5.89914">
        <ele>1606.02</ele>
        <time>2021-06-13T14:01:31Z</time>
      </trkpt>
      <trkpt lat="45.35632" lon="5.89919">
        <ele>1604.58</ele>
        <time>2021-06-13T14:01:35Z</time>
      </trkpt>
      <trkpt lat="45.35627" lon="5.89928">
        <ele>1602.17</ele>
        <time>2021-06-13T14:01:42Z</time>
      </trkpt>
      <trkpt lat="45.35628" lon="5.8994">
        <ele>1599.29</ele>
        <time>2021-06-13T14:01:52Z</time>
      </trkpt>
      <trkpt lat="45.35627" lon="5.89942">
        <ele>1597.85</ele>
        <time>2021-06-13T14:01:56Z</time>
      </trkpt>
      <trkpt lat="45.35624" lon="5.89942">
        <ele>1597.85</ele>
        <time>2021-06-13T14:01:58Z</time>
      </trkpt>
      <trkpt lat="45.35619" lon="5.89947">
        <ele>1595.93</ele>
        <time>2021-06-13T14:02:03Z</time>
      </trkpt>
      <trkpt lat="45.35617" lon="5.89951">
        <ele>1594.96</ele>
        <time>2021-06-13T14:02:07Z</time>
      </trkpt>
      <trkpt lat="45.3562" lon="5.89959">
        <ele>1592.56</ele>
        <time>2021-06-13T14:02:12Z</time>
      </trkpt>
      <trkpt lat="45.35619" lon="5.89966">
        <ele>1591.6</ele>
        <time>2021-06-13T14:02:16Z</time>
      </trkpt>
      <trkpt lat="45.35612" lon="5.89971">
        <ele>1588.24</ele>
        <time>2021-06-13T14:02:26Z</time>
      </trkpt>
      <trkpt lat="45.35612" lon="5.89974">
        <ele>1587.27</ele>
        <time>2021-06-13T14:02:29Z</time>
      </trkpt>
      <trkpt lat="45.35613" lon="5.89984">
        <ele>1583.91</ele>
        <time>2021-06-13T14:02:41Z</time>
      </trkpt>
      <trkpt lat="45.35613" lon="5.89991">
        <ele>1581.99</ele>
        <time>2021-06-13T14:02:46Z</time>
      </trkpt>
      <trkpt lat="45.35617" lon="5.90011">
        <ele>1578.62</ele>
        <time>2021-06-13T14:02:59Z</time>
      </trkpt>
      <trkpt lat="45.35618" lon="5.90017">
        <ele>1578.14</ele>
        <time>2021-06-13T14:03:02Z</time>
      </trkpt>
      <trkpt lat="45.3562" lon="5.9003">
        <ele>1575.26</ele>
        <time>2021-06-13T14:03:11Z</time>
      </trkpt>
      <trkpt lat="45.35621" lon="5.90032">
        <ele>1574.78</ele>
        <time>2021-06-13T14:03:13Z</time>
      </trkpt>
      <trkpt lat="45.35624" lon="5.90047">
        <ele>1571.89</ele>
        <time>2021-06-13T14:03:24Z</time>
      </trkpt>
      <trkpt lat="45.35635" lon="5.90061">
        <ele>1569.49</ele>
        <time>2021-06-13T14:03:38Z</time>
      </trkpt>
      <trkpt lat="45.35638" lon="5.90066">
        <ele>1568.53</ele>
        <time>2021-06-13T14:03:41Z</time>
      </trkpt>
      <trkpt lat="45.35647" lon="5.90076">
        <ele>1565.16</ele>
        <time>2021-06-13T14:03:54Z</time>
      </trkpt>
      <trkpt lat="45.35647" lon="5.90076">
        <ele>1565.16</ele>
        <time>2021-06-13T14:03:56Z</time>
      </trkpt>
      <trkpt lat="45.35648" lon="5.90077">
        <ele>1565.16</ele>
        <time>2021-06-13T14:03:58Z</time>
      </trkpt>
      <trkpt lat="45.3565" lon="5.90083">
        <ele>1563.24</ele>
        <time>2021-06-13T14:04:05Z</time>
      </trkpt>
      <trkpt lat="45.35654" lon="5.90088">
        <ele>1560.84</ele>
        <time>2021-06-13T14:04:10Z</time>
      </trkpt>
      <trkpt lat="45.35655" lon="5.90088">
        <ele>1561.32</ele>
        <time>2021-06-13T14:04:12Z</time>
      </trkpt>
      <trkpt lat="45.35656" lon="5.90091">
        <ele>1560.84</ele>
        <time>2021-06-13T14:04:14Z</time>
      </trkpt>
      <trkpt lat="45.35658" lon="5.90097">
        <ele>1559.4</ele>
        <time>2021-06-13T14:04:17Z</time>
      </trkpt>
      <trkpt lat="45.35663" lon="5.90108">
        <ele>1556.51</ele>
        <time>2021-06-13T14:04:27Z</time>
      </trkpt>
      <trkpt lat="45.35668" lon="5.90118">
        <ele>1553.15</ele>
        <time>2021-06-13T14:04:38Z</time>
      </trkpt>
      <trkpt lat="45.3567" lon="5.9012">
        <ele>1551.22</ele>
        <time>2021-06-13T14:04:43Z</time>
      </trkpt>
      <trkpt lat="45.35673" lon="5.90131">
        <ele>1548.34</ele>
        <time>2021-06-13T14:04:53Z</time>
      </trkpt>
      <trkpt lat="45.35674" lon="5.90133">
        <ele>1547.86</ele>
        <time>2021-06-13T14:04:55Z</time>
      </trkpt>
      <trkpt lat="45.35679" lon="5.90144">
        <ele>1544.5</ele>
        <time>2021-06-13T14:05:06Z</time>
      </trkpt>
      <trkpt lat="45.35678" lon="5.90147">
        <ele>1544.98</ele>
        <time>2021-06-13T14:05:18Z</time>
      </trkpt>
      <trkpt lat="45.35678" lon="5.90148">
        <ele>1544.98</ele>
        <time>2021-06-13T14:05:34Z</time>
      </trkpt>
      <trkpt lat="45.35679" lon="5.9015">
        <ele>1544.01</ele>
        <time>2021-06-13T14:05:46Z</time>
      </trkpt>
      <trkpt lat="45.35675" lon="5.90151">
        <ele>1544.01</ele>
        <time>2021-06-13T14:06:04Z</time>
      </trkpt>
      <trkpt lat="45.35668" lon="5.90146">
        <ele>1544.01</ele>
        <time>2021-06-13T14:06:25Z</time>
      </trkpt>
      <trkpt lat="45.35668" lon="5.90146">
        <ele>1544.01</ele>
        <time>2021-06-13T14:06:52Z</time>
      </trkpt>
      <trkpt lat="45.3567" lon="5.90147">
        <ele>1543.53</ele>
        <time>2021-06-13T14:07:24Z</time>
      </trkpt>
      <trkpt lat="45.3567" lon="5.90147">
        <ele>1543.05</ele>
        <time>2021-06-13T14:07:56Z</time>
      </trkpt>
      <trkpt lat="45.35669" lon="5.90148">
        <ele>1543.05</ele>
        <time>2021-06-13T14:08:30Z</time>
      </trkpt>
      <trkpt lat="45.35669" lon="5.90148">
        <ele>1543.05</ele>
        <time>2021-06-13T14:08:45Z</time>
      </trkpt>
      <trkpt lat="45.35676" lon="5.90153">
        <ele>1543.53</ele>
        <time>2021-06-13T14:08:53Z</time>
      </trkpt>
      <trkpt lat="45.35676" lon="5.90157">
        <ele>1544.01</ele>
        <time>2021-06-13T14:09:07Z</time>
      </trkpt>
      <trkpt lat="45.35676" lon="5.90157">
        <ele>1544.01</ele>
        <time>2021-06-13T14:09:35Z</time>
      </trkpt>
      <trkpt lat="45.35675" lon="5.90157">
        <ele>1544.01</ele>
        <time>2021-06-13T14:09:57Z</time>
      </trkpt>
      <trkpt lat="45.35675" lon="5.90159">
        <ele>1543.53</ele>
        <time>2021-06-13T14:10:13Z</time>
      </trkpt>
      <trkpt lat="45.35676" lon="5.90159">
        <ele>1543.05</ele>
        <time>2021-06-13T14:10:16Z</time>
      </trkpt>
      <trkpt lat="45.35671" lon="5.9016">
        <ele>1541.13</ele>
        <time>2021-06-13T14:10:25Z</time>
      </trkpt>
      <trkpt lat="45.35664" lon="5.90158">
        <ele>1538.25</ele>
        <time>2021-06-13T14:10:36Z</time>
      </trkpt>
      <trkpt lat="45.35656" lon="5.90157">
        <ele>1534.88</ele>
        <time>2021-06-13T14:10:47Z</time>
      </trkpt>
      <trkpt lat="45.35653" lon="5.90158">
        <ele>1533.44</ele>
        <time>2021-06-13T14:10:52Z</time>
      </trkpt>
      <trkpt lat="45.3565" lon="5.90157">
        <ele>1532.96</ele>
        <time>2021-06-13T14:10:55Z</time>
      </trkpt>
      <trkpt lat="45.35642" lon="5.90157">
        <ele>1530.08</ele>
        <time>2021-06-13T14:11:06Z</time>
      </trkpt>
      <trkpt lat="45.35638" lon="5.90154">
        <ele>1528.15</ele>
        <time>2021-06-13T14:11:13Z</time>
      </trkpt>
      <trkpt lat="45.35628" lon="5.90158">
        <ele>1525.27</ele>
        <time>2021-06-13T14:11:23Z</time>
      </trkpt>
      <trkpt lat="45.35624" lon="5.90158">
        <ele>1523.83</ele>
        <time>2021-06-13T14:11:26Z</time>
      </trkpt>
      <trkpt lat="45.35614" lon="5.9016">
        <ele>1520.94</ele>
        <time>2021-06-13T14:11:36Z</time>
      </trkpt>
      <trkpt lat="45.35604" lon="5.90162">
        <ele>1518.06</ele>
        <time>2021-06-13T14:11:46Z</time>
      </trkpt>
      <trkpt lat="45.35603" lon="5.90161">
        <ele>1517.58</ele>
        <time>2021-06-13T14:11:47Z</time>
      </trkpt>
      <trkpt lat="45.35596" lon="5.9016">
        <ele>1514.69</ele>
        <time>2021-06-13T14:11:58Z</time>
      </trkpt>
      <trkpt lat="45.35585" lon="5.9016">
        <ele>1510.85</ele>
        <time>2021-06-13T14:12:10Z</time>
      </trkpt>
      <trkpt lat="45.35577" lon="5.90159">
        <ele>1507.97</ele>
        <time>2021-06-13T14:12:20Z</time>
      </trkpt>
      <trkpt lat="45.35569" lon="5.90157">
        <ele>1506.04</ele>
        <time>2021-06-13T14:12:27Z</time>
      </trkpt>
      <trkpt lat="45.35565" lon="5.90157">
        <ele>1504.6</ele>
        <time>2021-06-13T14:12:31Z</time>
      </trkpt>
      <trkpt lat="45.35556" lon="5.90159">
        <ele>1502.68</ele>
        <time>2021-06-13T14:12:38Z</time>
      </trkpt>
      <trkpt lat="45.35542" lon="5.9016">
        <ele>1501.24</ele>
        <time>2021-06-13T14:12:53Z</time>
      </trkpt>
      <trkpt lat="45.35537" lon="5.90161">
        <ele>1497.39</ele>
        <time>2021-06-13T14:12:59Z</time>
      </trkpt>
      <trkpt lat="45.35536" lon="5.90161">
        <ele>1497.39</ele>
        <time>2021-06-13T14:13:00Z</time>
      </trkpt>
      <trkpt lat="45.35525" lon="5.90161">
        <ele>1494.99</ele>
        <time>2021-06-13T14:13:12Z</time>
      </trkpt>
      <trkpt lat="45.35516" lon="5.90161">
        <ele>1493.55</ele>
        <time>2021-06-13T14:13:21Z</time>
      </trkpt>
      <trkpt lat="45.35514" lon="5.9016">
        <ele>1492.1</ele>
        <time>2021-06-13T14:13:23Z</time>
      </trkpt>
      <trkpt lat="45.35512" lon="5.9016">
        <ele>1491.62</ele>
        <time>2021-06-13T14:13:26Z</time>
      </trkpt>
      <trkpt lat="45.35507" lon="5.90162">
        <ele>1490.66</ele>
        <time>2021-06-13T14:13:30Z</time>
      </trkpt>
      <trkpt lat="45.35501" lon="5.90163">
        <ele>1489.22</ele>
        <time>2021-06-13T14:13:35Z</time>
      </trkpt>
      <trkpt lat="45.35499" lon="5.90163">
        <ele>1488.74</ele>
        <time>2021-06-13T14:13:37Z</time>
      </trkpt>
      <trkpt lat="45.35493" lon="5.90169">
        <ele>1486.34</ele>
        <time>2021-06-13T14:13:44Z</time>
      </trkpt>
      <trkpt lat="45.3549" lon="5.90176">
        <ele>1485.85</ele>
        <time>2021-06-13T14:13:49Z</time>
      </trkpt>
      <trkpt lat="45.35487" lon="5.90185">
        <ele>1484.41</ele>
        <time>2021-06-13T14:13:55Z</time>
      </trkpt>
      <trkpt lat="45.35483" lon="5.90198">
        <ele>1483.45</ele>
        <time>2021-06-13T14:14:03Z</time>
      </trkpt>
      <trkpt lat="45.3548" lon="5.90207">
        <ele>1482.97</ele>
        <time>2021-06-13T14:14:09Z</time>
      </trkpt>
      <trkpt lat="45.35476" lon="5.90228">
        <ele>1480.57</ele>
        <time>2021-06-13T14:14:22Z</time>
      </trkpt>
      <trkpt lat="45.35475" lon="5.90239">
        <ele>1479.13</ele>
        <time>2021-06-13T14:14:29Z</time>
      </trkpt>
      <trkpt lat="45.35473" lon="5.90249">
        <ele>1478.16</ele>
        <time>2021-06-13T14:14:36Z</time>
      </trkpt>
      <trkpt lat="45.35473" lon="5.90255">
        <ele>1477.2</ele>
        <time>2021-06-13T14:14:40Z</time>
      </trkpt>
      <trkpt lat="45.35473" lon="5.90265">
        <ele>1474.8</ele>
        <time>2021-06-13T14:14:48Z</time>
      </trkpt>
      <trkpt lat="45.35475" lon="5.90267">
        <ele>1474.32</ele>
        <time>2021-06-13T14:14:51Z</time>
      </trkpt>
      <trkpt lat="45.35475" lon="5.90272">
        <ele>1472.88</ele>
        <time>2021-06-13T14:14:55Z</time>
      </trkpt>
      <trkpt lat="45.35474" lon="5.90275">
        <ele>1472.4</ele>
        <time>2021-06-13T14:14:57Z</time>
      </trkpt>
      <trkpt lat="45.35472" lon="5.90278">
        <ele>1471.92</ele>
        <time>2021-06-13T14:15:00Z</time>
      </trkpt>
      <trkpt lat="45.35468" lon="5.90285">
        <ele>1469.51</ele>
        <time>2021-06-13T14:15:08Z</time>
      </trkpt>
      <trkpt lat="45.35473" lon="5.90292">
        <ele>1469.03</ele>
        <time>2021-06-13T14:15:19Z</time>
      </trkpt>
      <trkpt lat="45.35473" lon="5.90292">
        <ele>1469.03</ele>
        <time>2021-06-13T14:15:32Z</time>
      </trkpt>
      <trkpt lat="45.35475" lon="5.90289">
        <ele>1469.51</ele>
        <time>2021-06-13T14:15:46Z</time>
      </trkpt>
      <trkpt lat="45.35475" lon="5.90289">
        <ele>1469.03</ele>
        <time>2021-06-13T14:15:48Z</time>
      </trkpt>
      <trkpt lat="45.35474" lon="5.90293">
        <ele>1468.07</ele>
        <time>2021-06-13T14:15:59Z</time>
      </trkpt>
      <trkpt lat="45.35476" lon="5.90295">
        <ele>1467.11</ele>
        <time>2021-06-13T14:16:02Z</time>
      </trkpt>
      <trkpt lat="45.35478" lon="5.90304">
        <ele>1465.67</ele>
        <time>2021-06-13T14:16:14Z</time>
      </trkpt>
      <trkpt lat="45.35477" lon="5.90311">
        <ele>1464.71</ele>
        <time>2021-06-13T14:16:29Z</time>
      </trkpt>
      <trkpt lat="45.35477" lon="5.90311">
        <ele>1464.71</ele>
        <time>2021-06-13T14:16:48Z</time>
      </trkpt>
      <trkpt lat="45.35477" lon="5.90311">
        <ele>1465.19</ele>
        <time>2021-06-13T14:17:11Z</time>
      </trkpt>
      <trkpt lat="45.35478" lon="5.90306">
        <ele>1465.67</ele>
        <time>2021-06-13T14:17:21Z</time>
      </trkpt>
      <trkpt lat="45.35482" lon="5.90298">
        <ele>1464.71</ele>
        <time>2021-06-13T14:17:29Z</time>
      </trkpt>
      <trkpt lat="45.3549" lon="5.90288">
        <ele>1462.3</ele>
        <time>2021-06-13T14:17:39Z</time>
      </trkpt>
      <trkpt lat="45.35498" lon="5.90285">
        <ele>1459.42</ele>
        <time>2021-06-13T14:17:52Z</time>
      </trkpt>
      <trkpt lat="45.35499" lon="5.90285">
        <ele>1458.94</ele>
        <time>2021-06-13T14:17:54Z</time>
      </trkpt>
      <trkpt lat="45.35505" lon="5.90289">
        <ele>1457.5</ele>
        <time>2021-06-13T14:17:59Z</time>
      </trkpt>
      <trkpt lat="45.35512" lon="5.9029">
        <ele>1456.53</ele>
        <time>2021-06-13T14:18:06Z</time>
      </trkpt>
      <trkpt lat="45.35517" lon="5.903">
        <ele>1453.65</ele>
        <time>2021-06-13T14:18:16Z</time>
      </trkpt>
      <trkpt lat="45.35522" lon="5.90312">
        <ele>1450.77</ele>
        <time>2021-06-13T14:18:27Z</time>
      </trkpt>
      <trkpt lat="45.35519" lon="5.90324">
        <ele>1448.36</ele>
        <time>2021-06-13T14:18:35Z</time>
      </trkpt>
      <trkpt lat="45.35521" lon="5.9033">
        <ele>1445.96</ele>
        <time>2021-06-13T14:18:43Z</time>
      </trkpt>
      <trkpt lat="45.35519" lon="5.90333">
        <ele>1445</ele>
        <time>2021-06-13T14:18:47Z</time>
      </trkpt>
      <trkpt lat="45.35524" lon="5.90338">
        <ele>1442.11</ele>
        <time>2021-06-13T14:18:57Z</time>
      </trkpt>
      <trkpt lat="45.35536" lon="5.90343">
        <ele>1439.23</ele>
        <time>2021-06-13T14:19:09Z</time>
      </trkpt>
      <trkpt lat="45.35545" lon="5.90345">
        <ele>1435.87</ele>
        <time>2021-06-13T14:19:19Z</time>
      </trkpt>
      <trkpt lat="45.35557" lon="5.90347">
        <ele>1432.98</ele>
        <time>2021-06-13T14:19:30Z</time>
      </trkpt>
      <trkpt lat="45.35567" lon="5.90354">
        <ele>1429.62</ele>
        <time>2021-06-13T14:19:43Z</time>
      </trkpt>
      <trkpt lat="45.35579" lon="5.90363">
        <ele>1426.73</ele>
        <time>2021-06-13T14:19:54Z</time>
      </trkpt>
      <trkpt lat="45.35586" lon="5.90372">
        <ele>1423.85</ele>
        <time>2021-06-13T14:20:06Z</time>
      </trkpt>
      <trkpt lat="45.35598" lon="5.90383">
        <ele>1421.93</ele>
        <time>2021-06-13T14:20:17Z</time>
      </trkpt>
      <trkpt lat="45.35613" lon="5.90399">
        <ele>1419.04</ele>
        <time>2021-06-13T14:20:32Z</time>
      </trkpt>
      <trkpt lat="45.3562" lon="5.90409">
        <ele>1417.12</ele>
        <time>2021-06-13T14:20:42Z</time>
      </trkpt>
      <trkpt lat="45.35633" lon="5.90423">
        <ele>1415.2</ele>
        <time>2021-06-13T14:20:54Z</time>
      </trkpt>
      <trkpt lat="45.35635" lon="5.90426">
        <ele>1414.24</ele>
        <time>2021-06-13T14:20:56Z</time>
      </trkpt>
      <trkpt lat="45.35637" lon="5.90435">
        <ele>1414.24</ele>
        <time>2021-06-13T14:21:00Z</time>
      </trkpt>
      <trkpt lat="45.35644" lon="5.90444">
        <ele>1412.31</ele>
        <time>2021-06-13T14:21:09Z</time>
      </trkpt>
      <trkpt lat="45.3565" lon="5.90461">
        <ele>1408.95</ele>
        <time>2021-06-13T14:21:21Z</time>
      </trkpt>
      <trkpt lat="45.35651" lon="5.90464">
        <ele>1407.99</ele>
        <time>2021-06-13T14:21:24Z</time>
      </trkpt>
      <trkpt lat="45.3565" lon="5.90475">
        <ele>1406.55</ele>
        <time>2021-06-13T14:21:31Z</time>
      </trkpt>
      <trkpt lat="45.35652" lon="5.90483">
        <ele>1405.58</ele>
        <time>2021-06-13T14:21:35Z</time>
      </trkpt>
      <trkpt lat="45.35658" lon="5.90505">
        <ele>1402.7</ele>
        <time>2021-06-13T14:21:48Z</time>
      </trkpt>
      <trkpt lat="45.35664" lon="5.9052">
        <ele>1399.82</ele>
        <time>2021-06-13T14:21:59Z</time>
      </trkpt>
      <trkpt lat="45.35664" lon="5.90522">
        <ele>1398.86</ele>
        <time>2021-06-13T14:22:02Z</time>
      </trkpt>
      <trkpt lat="45.35668" lon="5.90532">
        <ele>1396.93</ele>
        <time>2021-06-13T14:22:09Z</time>
      </trkpt>
      <trkpt lat="45.35671" lon="5.90546">
        <ele>1393.57</ele>
        <time>2021-06-13T14:22:21Z</time>
      </trkpt>
      <trkpt lat="45.35675" lon="5.90553">
        <ele>1392.13</ele>
        <time>2021-06-13T14:22:25Z</time>
      </trkpt>
      <trkpt lat="45.35687" lon="5.9057">
        <ele>1388.76</ele>
        <time>2021-06-13T14:22:41Z</time>
      </trkpt>
      <trkpt lat="45.3569" lon="5.90574">
        <ele>1388.28</ele>
        <time>2021-06-13T14:23:00Z</time>
      </trkpt>
      <trkpt lat="45.357" lon="5.90585">
        <ele>1385.4</ele>
        <time>2021-06-13T14:23:12Z</time>
      </trkpt>
      <trkpt lat="45.35703" lon="5.90587">
        <ele>1384.44</ele>
        <time>2021-06-13T14:23:15Z</time>
      </trkpt>
      <trkpt lat="45.35708" lon="5.90595">
        <ele>1381.07</ele>
        <time>2021-06-13T14:23:27Z</time>
      </trkpt>
      <trkpt lat="45.35708" lon="5.90596">
        <ele>1380.59</ele>
        <time>2021-06-13T14:23:29Z</time>
      </trkpt>
      <trkpt lat="45.35716" lon="5.90611">
        <ele>1378.19</ele>
        <time>2021-06-13T14:23:40Z</time>
      </trkpt>
      <trkpt lat="45.35719" lon="5.90618">
        <ele>1376.26</ele>
        <time>2021-06-13T14:23:46Z</time>
      </trkpt>
      <trkpt lat="45.35722" lon="5.90625">
        <ele>1374.34</ele>
        <time>2021-06-13T14:23:53Z</time>
      </trkpt>
      <trkpt lat="45.35723" lon="5.90631">
        <ele>1373.86</ele>
        <time>2021-06-13T14:23:56Z</time>
      </trkpt>
      <trkpt lat="45.35724" lon="5.90635">
        <ele>1373.38</ele>
        <time>2021-06-13T14:23:58Z</time>
      </trkpt>
      <trkpt lat="45.35729" lon="5.90647">
        <ele>1371.94</ele>
        <time>2021-06-13T14:24:04Z</time>
      </trkpt>
      <trkpt lat="45.35731" lon="5.90649">
        <ele>1371.46</ele>
        <time>2021-06-13T14:24:06Z</time>
      </trkpt>
      <trkpt lat="45.35736" lon="5.90669">
        <ele>1368.57</ele>
        <time>2021-06-13T14:24:18Z</time>
      </trkpt>
      <trkpt lat="45.35738" lon="5.90674">
        <ele>1366.65</ele>
        <time>2021-06-13T14:24:23Z</time>
      </trkpt>
      <trkpt lat="45.35747" lon="5.90691">
        <ele>1363.29</ele>
        <time>2021-06-13T14:24:35Z</time>
      </trkpt>
      <trkpt lat="45.35755" lon="5.90704">
        <ele>1360.88</ele>
        <time>2021-06-13T14:24:44Z</time>
      </trkpt>
      <trkpt lat="45.35761" lon="5.90714">
        <ele>1358.48</ele>
        <time>2021-06-13T14:24:58Z</time>
      </trkpt>
      <trkpt lat="45.35762" lon="5.90719">
        <ele>1357.52</ele>
        <time>2021-06-13T14:25:06Z</time>
      </trkpt>
      <trkpt lat="45.35767" lon="5.90725">
        <ele>1356.08</ele>
        <time>2021-06-13T14:25:11Z</time>
      </trkpt>
      <trkpt lat="45.35773" lon="5.90732">
        <ele>1353.67</ele>
        <time>2021-06-13T14:25:20Z</time>
      </trkpt>
      <trkpt lat="45.35773" lon="5.90739">
        <ele>1351.75</ele>
        <time>2021-06-13T14:25:24Z</time>
      </trkpt>
      <trkpt lat="45.35774" lon="5.90739">
        <ele>1351.27</ele>
        <time>2021-06-13T14:25:25Z</time>
      </trkpt>
      <trkpt lat="45.35775" lon="5.90741">
        <ele>1350.79</ele>
        <time>2021-06-13T14:25:27Z</time>
      </trkpt>
      <trkpt lat="45.3578" lon="5.90745">
        <ele>1348.87</ele>
        <time>2021-06-13T14:25:33Z</time>
      </trkpt>
      <trkpt lat="45.35792" lon="5.90755">
        <ele>1347.43</ele>
        <time>2021-06-13T14:25:42Z</time>
      </trkpt>
      <trkpt lat="45.35795" lon="5.90766">
        <ele>1346.94</ele>
        <time>2021-06-13T14:25:53Z</time>
      </trkpt>
      <trkpt lat="45.35795" lon="5.90767">
        <ele>1346.94</ele>
        <time>2021-06-13T14:26:12Z</time>
      </trkpt>
      <trkpt lat="45.35795" lon="5.90767">
        <ele>1346.46</ele>
        <time>2021-06-13T14:26:31Z</time>
      </trkpt>
      <trkpt lat="45.35795" lon="5.90769">
        <ele>1346.46</ele>
        <time>2021-06-13T14:26:41Z</time>
      </trkpt>
      <trkpt lat="45.35792" lon="5.90771">
        <ele>1345.02</ele>
        <time>2021-06-13T14:26:49Z</time>
      </trkpt>
      <trkpt lat="45.35788" lon="5.90771">
        <ele>1343.1</ele>
        <time>2021-06-13T14:26:53Z</time>
      </trkpt>
      <trkpt lat="45.35783" lon="5.90772">
        <ele>1341.66</ele>
        <time>2021-06-13T14:26:57Z</time>
      </trkpt>
      <trkpt lat="45.35778" lon="5.90773">
        <ele>1339.73</ele>
        <time>2021-06-13T14:27:01Z</time>
      </trkpt>
      <trkpt lat="45.35777" lon="5.90772">
        <ele>1338.77</ele>
        <time>2021-06-13T14:27:06Z</time>
      </trkpt>
      <trkpt lat="45.35782" lon="5.90786">
        <ele>1334.93</ele>
        <time>2021-06-13T14:27:17Z</time>
      </trkpt>
      <trkpt lat="45.35779" lon="5.90789">
        <ele>1333.49</ele>
        <time>2021-06-13T14:27:20Z</time>
      </trkpt>
      <trkpt lat="45.35776" lon="5.90792">
        <ele>1332.52</ele>
        <time>2021-06-13T14:27:25Z</time>
      </trkpt>
      <trkpt lat="45.35775" lon="5.90796">
        <ele>1331.56</ele>
        <time>2021-06-13T14:27:27Z</time>
      </trkpt>
      <trkpt lat="45.35777" lon="5.90801">
        <ele>1330.12</ele>
        <time>2021-06-13T14:27:30Z</time>
      </trkpt>
      <trkpt lat="45.35772" lon="5.90807">
        <ele>1327.72</ele>
        <time>2021-06-13T14:27:35Z</time>
      </trkpt>
      <trkpt lat="45.35767" lon="5.90812">
        <ele>1325.8</ele>
        <time>2021-06-13T14:27:40Z</time>
      </trkpt>
      <trkpt lat="45.35766" lon="5.90813">
        <ele>1325.31</ele>
        <time>2021-06-13T14:27:41Z</time>
      </trkpt>
      <trkpt lat="45.3576" lon="5.90815">
        <ele>1323.87</ele>
        <time>2021-06-13T14:27:46Z</time>
      </trkpt>
      <trkpt lat="45.35755" lon="5.90817">
        <ele>1321.95</ele>
        <time>2021-06-13T14:27:53Z</time>
      </trkpt>
      <trkpt lat="45.35753" lon="5.90818">
        <ele>1320.99</ele>
        <time>2021-06-13T14:27:55Z</time>
      </trkpt>
      <trkpt lat="45.35754" lon="5.9082">
        <ele>1319.55</ele>
        <time>2021-06-13T14:27:58Z</time>
      </trkpt>
      <trkpt lat="45.35759" lon="5.9083">
        <ele>1315.7</ele>
        <time>2021-06-13T14:28:08Z</time>
      </trkpt>
      <trkpt lat="45.35754" lon="5.90833">
        <ele>1313.78</ele>
        <time>2021-06-13T14:28:18Z</time>
      </trkpt>
      <trkpt lat="45.35752" lon="5.90835">
        <ele>1312.34</ele>
        <time>2021-06-13T14:28:23Z</time>
      </trkpt>
      <trkpt lat="45.35749" lon="5.90843">
        <ele>1310.9</ele>
        <time>2021-06-13T14:28:27Z</time>
      </trkpt>
      <trkpt lat="45.35752" lon="5.90843">
        <ele>1310.41</ele>
        <time>2021-06-13T14:28:38Z</time>
      </trkpt>
      <trkpt lat="45.35749" lon="5.90841">
        <ele>1310.9</ele>
        <time>2021-06-13T14:28:48Z</time>
      </trkpt>
      <trkpt lat="45.35749" lon="5.90841">
        <ele>1310.9</ele>
        <time>2021-06-13T14:29:05Z</time>
      </trkpt>
      <trkpt lat="45.35749" lon="5.90841">
        <ele>1310.41</ele>
        <time>2021-06-13T14:29:24Z</time>
      </trkpt>
      <trkpt lat="45.35751" lon="5.90843">
        <ele>1310.41</ele>
        <time>2021-06-13T14:29:33Z</time>
      </trkpt>
      <trkpt lat="45.35753" lon="5.90847">
        <ele>1310.41</ele>
        <time>2021-06-13T14:29:36Z</time>
      </trkpt>
      <trkpt lat="45.35758" lon="5.90855">
        <ele>1309.45</ele>
        <time>2021-06-13T14:29:44Z</time>
      </trkpt>
      <trkpt lat="45.35761" lon="5.90857">
        <ele>1308.97</ele>
        <time>2021-06-13T14:29:47Z</time>
      </trkpt>
      <trkpt lat="45.35767" lon="5.90864">
        <ele>1308.01</ele>
        <time>2021-06-13T14:29:54Z</time>
      </trkpt>
      <trkpt lat="45.35776" lon="5.90873">
        <ele>1307.05</ele>
        <time>2021-06-13T14:30:02Z</time>
      </trkpt>
      <trkpt lat="45.35783" lon="5.90881">
        <ele>1307.05</ele>
        <time>2021-06-13T14:30:14Z</time>
      </trkpt>
      <trkpt lat="45.3578" lon="5.90882">
        <ele>1306.57</ele>
        <time>2021-06-13T14:30:18Z</time>
      </trkpt>
      <trkpt lat="45.35771" lon="5.90884">
        <ele>1303.69</ele>
        <time>2021-06-13T14:30:29Z</time>
      </trkpt>
      <trkpt lat="45.35761" lon="5.90882">
        <ele>1301.76</ele>
        <time>2021-06-13T14:30:37Z</time>
      </trkpt>
      <trkpt lat="45.3576" lon="5.90886">
        <ele>1299.36</ele>
        <time>2021-06-13T14:30:43Z</time>
      </trkpt>
      <trkpt lat="45.35757" lon="5.90896">
        <ele>1295.99</ele>
        <time>2021-06-13T14:30:52Z</time>
      </trkpt>
      <trkpt lat="45.35758" lon="5.90898">
        <ele>1295.51</ele>
        <time>2021-06-13T14:30:54Z</time>
      </trkpt>
      <trkpt lat="45.35759" lon="5.90902">
        <ele>1294.55</ele>
        <time>2021-06-13T14:30:58Z</time>
      </trkpt>
      <trkpt lat="45.35758" lon="5.90915">
        <ele>1291.19</ele>
        <time>2021-06-13T14:31:05Z</time>
      </trkpt>
      <trkpt lat="45.35756" lon="5.90915">
        <ele>1291.19</ele>
        <time>2021-06-13T14:31:06Z</time>
      </trkpt>
      <trkpt lat="45.35755" lon="5.90915">
        <ele>1291.19</ele>
        <time>2021-06-13T14:31:16Z</time>
      </trkpt>
      <trkpt lat="45.35753" lon="5.90916">
        <ele>1290.23</ele>
        <time>2021-06-13T14:31:24Z</time>
      </trkpt>
      <trkpt lat="45.35745" lon="5.90915">
        <ele>1291.19</ele>
        <time>2021-06-13T14:31:35Z</time>
      </trkpt>
      <trkpt lat="45.3574" lon="5.90912">
        <ele>1290.23</ele>
        <time>2021-06-13T14:31:45Z</time>
      </trkpt>
      <trkpt lat="45.35735" lon="5.90906">
        <ele>1290.23</ele>
        <time>2021-06-13T14:31:55Z</time>
      </trkpt>
      <trkpt lat="45.35725" lon="5.90889">
        <ele>1288.3</ele>
        <time>2021-06-13T14:32:08Z</time>
      </trkpt>
      <trkpt lat="45.35725" lon="5.90888">
        <ele>1288.3</ele>
        <time>2021-06-13T14:32:09Z</time>
      </trkpt>
      <trkpt lat="45.35719" lon="5.90887">
        <ele>1287.34</ele>
        <time>2021-06-13T14:32:17Z</time>
      </trkpt>
      <trkpt lat="45.35712" lon="5.90878">
        <ele>1286.86</ele>
        <time>2021-06-13T14:32:32Z</time>
      </trkpt>
      <trkpt lat="45.35705" lon="5.9088">
        <ele>1285.9</ele>
        <time>2021-06-13T14:32:38Z</time>
      </trkpt>
      <trkpt lat="45.35704" lon="5.90885">
        <ele>1284.46</ele>
        <time>2021-06-13T14:32:42Z</time>
      </trkpt>
      <trkpt lat="45.35705" lon="5.90895">
        <ele>1282.06</ele>
        <time>2021-06-13T14:32:54Z</time>
      </trkpt>
      <trkpt lat="45.35703" lon="5.90908">
        <ele>1279.17</ele>
        <time>2021-06-13T14:33:08Z</time>
      </trkpt>
      <trkpt lat="45.357" lon="5.90914">
        <ele>1276.77</ele>
        <time>2021-06-13T14:33:18Z</time>
      </trkpt>
      <trkpt lat="45.35698" lon="5.90919">
        <ele>1276.29</ele>
        <time>2021-06-13T14:33:22Z</time>
      </trkpt>
      <trkpt lat="45.35698" lon="5.90921">
        <ele>1275.81</ele>
        <time>2021-06-13T14:33:24Z</time>
      </trkpt>
      <trkpt lat="45.35696" lon="5.90927">
        <ele>1273.4</ele>
        <time>2021-06-13T14:33:31Z</time>
      </trkpt>
      <trkpt lat="45.35693" lon="5.90926">
        <ele>1273.4</ele>
        <time>2021-06-13T14:33:43Z</time>
      </trkpt>
      <trkpt lat="45.3569" lon="5.90937">
        <ele>1271.48</ele>
        <time>2021-06-13T14:33:55Z</time>
      </trkpt>
      <trkpt lat="45.35688" lon="5.90949">
        <ele>1269.08</ele>
        <time>2021-06-13T14:34:08Z</time>
      </trkpt>
      <trkpt lat="45.35687" lon="5.90951">
        <ele>1268.6</ele>
        <time>2021-06-13T14:34:12Z</time>
      </trkpt>
      <trkpt lat="45.35683" lon="5.90963">
        <ele>1265.23</ele>
        <time>2021-06-13T14:34:25Z</time>
      </trkpt>
      <trkpt lat="45.35685" lon="5.90968">
        <ele>1263.79</ele>
        <time>2021-06-13T14:34:36Z</time>
      </trkpt>
      <trkpt lat="45.35685" lon="5.90969">
        <ele>1263.79</ele>
        <time>2021-06-13T14:34:37Z</time>
      </trkpt>
      <trkpt lat="45.35686" lon="5.90979">
        <ele>1260.91</ele>
        <time>2021-06-13T14:34:51Z</time>
      </trkpt>
      <trkpt lat="45.35688" lon="5.90985">
        <ele>1259.46</ele>
        <time>2021-06-13T14:35:00Z</time>
      </trkpt>
      <trkpt lat="45.35687" lon="5.90997">
        <ele>1257.54</ele>
        <time>2021-06-13T14:35:11Z</time>
      </trkpt>
      <trkpt lat="45.35687" lon="5.90998">
        <ele>1257.54</ele>
        <time>2021-06-13T14:35:14Z</time>
      </trkpt>
      <trkpt lat="45.35689" lon="5.9101">
        <ele>1255.14</ele>
        <time>2021-06-13T14:35:26Z</time>
      </trkpt>
      <trkpt lat="45.3569" lon="5.91014">
        <ele>1254.18</ele>
        <time>2021-06-13T14:35:29Z</time>
      </trkpt>
      <trkpt lat="45.35689" lon="5.91019">
        <ele>1252.74</ele>
        <time>2021-06-13T14:35:36Z</time>
      </trkpt>
      <trkpt lat="45.35693" lon="5.91033">
        <ele>1249.85</ele>
        <time>2021-06-13T14:35:48Z</time>
      </trkpt>
      <trkpt lat="45.35693" lon="5.91033">
        <ele>1249.85</ele>
        <time>2021-06-13T14:35:52Z</time>
      </trkpt>
      <trkpt lat="45.35696" lon="5.91037">
        <ele>1249.37</ele>
        <time>2021-06-13T14:35:56Z</time>
      </trkpt>
      <trkpt lat="45.35702" lon="5.91049">
        <ele>1246.01</ele>
        <time>2021-06-13T14:36:06Z</time>
      </trkpt>
      <trkpt lat="45.35702" lon="5.91053">
        <ele>1246.01</ele>
        <time>2021-06-13T14:36:10Z</time>
      </trkpt>
      <trkpt lat="45.35705" lon="5.91071">
        <ele>1243.12</ele>
        <time>2021-06-13T14:36:22Z</time>
      </trkpt>
      <trkpt lat="45.35706" lon="5.91071">
        <ele>1242.64</ele>
        <time>2021-06-13T14:36:25Z</time>
      </trkpt>
      <trkpt lat="45.35705" lon="5.91078">
        <ele>1241.2</ele>
        <time>2021-06-13T14:36:32Z</time>
      </trkpt>
      <trkpt lat="45.35709" lon="5.91089">
        <ele>1239.28</ele>
        <time>2021-06-13T14:36:40Z</time>
      </trkpt>
      <trkpt lat="45.35714" lon="5.91105">
        <ele>1236.39</ele>
        <time>2021-06-13T14:36:51Z</time>
      </trkpt>
      <trkpt lat="45.35719" lon="5.91115">
        <ele>1234.47</ele>
        <time>2021-06-13T14:37:04Z</time>
      </trkpt>
      <trkpt lat="45.35717" lon="5.9112">
        <ele>1233.03</ele>
        <time>2021-06-13T14:37:11Z</time>
      </trkpt>
      <trkpt lat="45.35723" lon="5.91132">
        <ele>1231.11</ele>
        <time>2021-06-13T14:37:19Z</time>
      </trkpt>
      <trkpt lat="45.35723" lon="5.91138">
        <ele>1230.62</ele>
        <time>2021-06-13T14:37:22Z</time>
      </trkpt>
      <trkpt lat="45.35727" lon="5.91151">
        <ele>1228.22</ele>
        <time>2021-06-13T14:37:32Z</time>
      </trkpt>
      <trkpt lat="45.35729" lon="5.91167">
        <ele>1224.38</ele>
        <time>2021-06-13T14:37:44Z</time>
      </trkpt>
      <trkpt lat="45.35731" lon="5.91166">
        <ele>1224.86</ele>
        <time>2021-06-13T14:37:48Z</time>
      </trkpt>
      <trkpt lat="45.35733" lon="5.91176">
        <ele>1222.45</ele>
        <time>2021-06-13T14:37:57Z</time>
      </trkpt>
      <trkpt lat="45.35736" lon="5.91193">
        <ele>1219.09</ele>
        <time>2021-06-13T14:38:08Z</time>
      </trkpt>
      <trkpt lat="45.35737" lon="5.91198">
        <ele>1218.13</ele>
        <time>2021-06-13T14:38:12Z</time>
      </trkpt>
      <trkpt lat="45.35737" lon="5.91201">
        <ele>1217.65</ele>
        <time>2021-06-13T14:38:14Z</time>
      </trkpt>
      <trkpt lat="45.35739" lon="5.91207">
        <ele>1216.69</ele>
        <time>2021-06-13T14:38:23Z</time>
      </trkpt>
      <trkpt lat="45.3574" lon="5.91213">
        <ele>1215.72</ele>
        <time>2021-06-13T14:38:27Z</time>
      </trkpt>
      <trkpt lat="45.3574" lon="5.91217">
        <ele>1214.76</ele>
        <time>2021-06-13T14:38:30Z</time>
      </trkpt>
      <trkpt lat="45.3574" lon="5.91226">
        <ele>1212.36</ele>
        <time>2021-06-13T14:38:42Z</time>
      </trkpt>
      <trkpt lat="45.35738" lon="5.9124">
        <ele>1209.48</ele>
        <time>2021-06-13T14:38:53Z</time>
      </trkpt>
      <trkpt lat="45.35738" lon="5.91252">
        <ele>1206.11</ele>
        <time>2021-06-13T14:39:05Z</time>
      </trkpt>
      <trkpt lat="45.35736" lon="5.91251">
        <ele>1206.11</ele>
        <time>2021-06-13T14:39:18Z</time>
      </trkpt>
      <trkpt lat="45.35736" lon="5.91251">
        <ele>1206.11</ele>
        <time>2021-06-13T14:39:31Z</time>
      </trkpt>
      <trkpt lat="45.35736" lon="5.9126">
        <ele>1203.71</ele>
        <time>2021-06-13T14:39:39Z</time>
      </trkpt>
      <trkpt lat="45.35735" lon="5.91273">
        <ele>1200.34</ele>
        <time>2021-06-13T14:39:50Z</time>
      </trkpt>
      <trkpt lat="45.35735" lon="5.91285">
        <ele>1196.98</ele>
        <time>2021-06-13T14:39:59Z</time>
      </trkpt>
      <trkpt lat="45.35735" lon="5.91289">
        <ele>1196.02</ele>
        <time>2021-06-13T14:40:03Z</time>
      </trkpt>
      <trkpt lat="45.35735" lon="5.913">
        <ele>1193.13</ele>
        <time>2021-06-13T14:40:14Z</time>
      </trkpt>
      <trkpt lat="45.35734" lon="5.9131">
        <ele>1189.77</ele>
        <time>2021-06-13T14:40:24Z</time>
      </trkpt>
      <trkpt lat="45.35735" lon="5.91323">
        <ele>1186.88</ele>
        <time>2021-06-13T14:40:35Z</time>
      </trkpt>
      <trkpt lat="45.35735" lon="5.91325">
        <ele>1186.4</ele>
        <time>2021-06-13T14:40:36Z</time>
      </trkpt>
      <trkpt lat="45.35729" lon="5.91332">
        <ele>1184.48</ele>
        <time>2021-06-13T14:40:48Z</time>
      </trkpt>
      <trkpt lat="45.35728" lon="5.91334">
        <ele>1184.48</ele>
        <time>2021-06-13T14:40:50Z</time>
      </trkpt>
      <trkpt lat="45.35725" lon="5.91336">
        <ele>1183.52</ele>
        <time>2021-06-13T14:40:53Z</time>
      </trkpt>
      <trkpt lat="45.35712" lon="5.91345">
        <ele>1181.12</ele>
        <time>2021-06-13T14:41:10Z</time>
      </trkpt>
      <trkpt lat="45.35695" lon="5.91352">
        <ele>1178.71</ele>
        <time>2021-06-13T14:41:27Z</time>
      </trkpt>
      <trkpt lat="45.35678" lon="5.91349">
        <ele>1176.79</ele>
        <time>2021-06-13T14:41:39Z</time>
      </trkpt>
      <trkpt lat="45.35676" lon="5.91349">
        <ele>1176.31</ele>
        <time>2021-06-13T14:41:41Z</time>
      </trkpt>
      <trkpt lat="45.35669" lon="5.91358">
        <ele>1173.91</ele>
        <time>2021-06-13T14:41:53Z</time>
      </trkpt>
      <trkpt lat="45.35663" lon="5.91359">
        <ele>1171.98</ele>
        <time>2021-06-13T14:42:00Z</time>
      </trkpt>
      <trkpt lat="45.35659" lon="5.91362">
        <ele>1170.06</ele>
        <time>2021-06-13T14:42:12Z</time>
      </trkpt>
      <trkpt lat="45.35653" lon="5.91365">
        <ele>1168.62</ele>
        <time>2021-06-13T14:42:18Z</time>
      </trkpt>
      <trkpt lat="45.35633" lon="5.9136">
        <ele>1166.22</ele>
        <time>2021-06-13T14:42:31Z</time>
      </trkpt>
      <trkpt lat="45.35614" lon="5.91358">
        <ele>1163.81</ele>
        <time>2021-06-13T14:42:47Z</time>
      </trkpt>
      <trkpt lat="45.3561" lon="5.9136">
        <ele>1162.85</ele>
        <time>2021-06-13T14:42:54Z</time>
      </trkpt>
      <trkpt lat="45.35599" lon="5.91368">
        <ele>1160.93</ele>
        <time>2021-06-13T14:43:05Z</time>
      </trkpt>
      <trkpt lat="45.35593" lon="5.91371">
        <ele>1159.97</ele>
        <time>2021-06-13T14:43:15Z</time>
      </trkpt>
      <trkpt lat="45.35582" lon="5.91373">
        <ele>1158.05</ele>
        <time>2021-06-13T14:43:28Z</time>
      </trkpt>
      <trkpt lat="45.35574" lon="5.91369">
        <ele>1156.12</ele>
        <time>2021-06-13T14:43:41Z</time>
      </trkpt>
      <trkpt lat="45.35573" lon="5.91369">
        <ele>1156.12</ele>
        <time>2021-06-13T14:43:42Z</time>
      </trkpt>
      <trkpt lat="45.35566" lon="5.91365">
        <ele>1154.68</ele>
        <time>2021-06-13T14:43:49Z</time>
      </trkpt>
      <trkpt lat="45.35555" lon="5.91364">
        <ele>1153.72</ele>
        <time>2021-06-13T14:43:54Z</time>
      </trkpt>
      <trkpt lat="45.3555" lon="5.91362">
        <ele>1153.24</ele>
        <time>2021-06-13T14:43:59Z</time>
      </trkpt>
      <trkpt lat="45.35546" lon="5.91361">
        <ele>1152.76</ele>
        <time>2021-06-13T14:44:01Z</time>
      </trkpt>
      <trkpt lat="45.35537" lon="5.91358">
        <ele>1151.8</ele>
        <time>2021-06-13T14:44:11Z</time>
      </trkpt>
      <trkpt lat="45.35529" lon="5.91357">
        <ele>1150.84</ele>
        <time>2021-06-13T14:44:24Z</time>
      </trkpt>
      <trkpt lat="45.35523" lon="5.9136">
        <ele>1149.87</ele>
        <time>2021-06-13T14:44:37Z</time>
      </trkpt>
      <trkpt lat="45.35523" lon="5.91365">
        <ele>1149.39</ele>
        <time>2021-06-13T14:44:49Z</time>
      </trkpt>
      <trkpt lat="45.35527" lon="5.91373">
        <ele>1148.91</ele>
        <time>2021-06-13T14:44:57Z</time>
      </trkpt>
      <trkpt lat="45.35528" lon="5.91389">
        <ele>1146.99</ele>
        <time>2021-06-13T14:45:09Z</time>
      </trkpt>
      <trkpt lat="45.35534" lon="5.91401">
        <ele>1147.47</ele>
        <time>2021-06-13T14:45:19Z</time>
      </trkpt>
      <trkpt lat="45.3554" lon="5.91407">
        <ele>1146.03</ele>
        <time>2021-06-13T14:45:26Z</time>
      </trkpt>
      <trkpt lat="45.3555" lon="5.91421">
        <ele>1144.59</ele>
        <time>2021-06-13T14:45:37Z</time>
      </trkpt>
      <trkpt lat="45.35554" lon="5.91425">
        <ele>1144.11</ele>
        <time>2021-06-13T14:45:40Z</time>
      </trkpt>
      <trkpt lat="45.35565" lon="5.91441">
        <ele>1142.66</ele>
        <time>2021-06-13T14:45:53Z</time>
      </trkpt>
      <trkpt lat="45.35564" lon="5.91457">
        <ele>1141.22</ele>
        <time>2021-06-13T14:46:11Z</time>
      </trkpt>
      <trkpt lat="45.35552" lon="5.91472">
        <ele>1137.86</ele>
        <time>2021-06-13T14:46:27Z</time>
      </trkpt>
      <trkpt lat="45.35548" lon="5.91476">
        <ele>1137.38</ele>
        <time>2021-06-13T14:46:30Z</time>
      </trkpt>
      <trkpt lat="45.35529" lon="5.91469">
        <ele>1134.49</ele>
        <time>2021-06-13T14:46:50Z</time>
      </trkpt>
      <trkpt lat="45.35503" lon="5.91459">
        <ele>1132.57</ele>
        <time>2021-06-13T14:47:07Z</time>
      </trkpt>
      <trkpt lat="45.35492" lon="5.91457">
        <ele>1131.61</ele>
        <time>2021-06-13T14:47:15Z</time>
      </trkpt>
      <trkpt lat="45.35483" lon="5.91454">
        <ele>1130.65</ele>
        <time>2021-06-13T14:47:21Z</time>
      </trkpt>
      <trkpt lat="45.35477" lon="5.91447">
        <ele>1130.17</ele>
        <time>2021-06-13T14:47:26Z</time>
      </trkpt>
      <trkpt lat="45.35476" lon="5.91444">
        <ele>1129.69</ele>
        <time>2021-06-13T14:47:39Z</time>
      </trkpt>
      <trkpt lat="45.35472" lon="5.91439">
        <ele>1128.73</ele>
        <time>2021-06-13T14:47:49Z</time>
      </trkpt>
      <trkpt lat="45.35463" lon="5.91428">
        <ele>1127.28</ele>
        <time>2021-06-13T14:47:58Z</time>
      </trkpt>
      <trkpt lat="45.3546" lon="5.91421">
        <ele>1126.8</ele>
        <time>2021-06-13T14:48:08Z</time>
      </trkpt>
      <trkpt lat="45.35459" lon="5.91419">
        <ele>1126.8</ele>
        <time>2021-06-13T14:48:10Z</time>
      </trkpt>
      <trkpt lat="45.35445" lon="5.91407">
        <ele>1125.36</ele>
        <time>2021-06-13T14:48:22Z</time>
      </trkpt>
      <trkpt lat="45.35439" lon="5.91402">
        <ele>1124.4</ele>
        <time>2021-06-13T14:48:33Z</time>
      </trkpt>
      <trkpt lat="45.35436" lon="5.91399">
        <ele>1123.92</ele>
        <time>2021-06-13T14:48:36Z</time>
      </trkpt>
      <trkpt lat="45.35429" lon="5.9139">
        <ele>1122.96</ele>
        <time>2021-06-13T14:48:47Z</time>
      </trkpt>
      <trkpt lat="45.35427" lon="5.91383">
        <ele>1121.52</ele>
        <time>2021-06-13T14:48:58Z</time>
      </trkpt>
      <trkpt lat="45.35425" lon="5.91379">
        <ele>1121.03</ele>
        <time>2021-06-13T14:49:00Z</time>
      </trkpt>
      <trkpt lat="45.3541" lon="5.91366">
        <ele>1119.59</ele>
        <time>2021-06-13T14:49:12Z</time>
      </trkpt>
      <trkpt lat="45.35402" lon="5.91356">
        <ele>1119.11</ele>
        <time>2021-06-13T14:49:21Z</time>
      </trkpt>
      <trkpt lat="45.35397" lon="5.91353">
        <ele>1118.63</ele>
        <time>2021-06-13T14:49:25Z</time>
      </trkpt>
      <trkpt lat="45.35389" lon="5.91344">
        <ele>1117.19</ele>
        <time>2021-06-13T14:49:40Z</time>
      </trkpt>
      <trkpt lat="45.35367" lon="5.91309">
        <ele>1115.27</ele>
        <time>2021-06-13T14:50:01Z</time>
      </trkpt>
      <trkpt lat="45.35353" lon="5.91295">
        <ele>1113.34</ele>
        <time>2021-06-13T14:50:20Z</time>
      </trkpt>
      <trkpt lat="45.35343" lon="5.91297">
        <ele>1112.38</ele>
        <time>2021-06-13T14:50:28Z</time>
      </trkpt>
      <trkpt lat="45.3534" lon="5.91302">
        <ele>1111.9</ele>
        <time>2021-06-13T14:50:31Z</time>
      </trkpt>
      <trkpt lat="45.35338" lon="5.91306">
        <ele>1111.42</ele>
        <time>2021-06-13T14:50:34Z</time>
      </trkpt>
      <trkpt lat="45.3534" lon="5.9132">
        <ele>1110.46</ele>
        <time>2021-06-13T14:50:43Z</time>
      </trkpt>
      <trkpt lat="45.35345" lon="5.91324">
        <ele>1109.5</ele>
        <time>2021-06-13T14:50:57Z</time>
      </trkpt>
      <trkpt lat="45.35352" lon="5.91337">
        <ele>1108.54</ele>
        <time>2021-06-13T14:51:09Z</time>
      </trkpt>
      <trkpt lat="45.35353" lon="5.91338">
        <ele>1108.54</ele>
        <time>2021-06-13T14:51:10Z</time>
      </trkpt>
      <trkpt lat="45.35363" lon="5.91351">
        <ele>1107.58</ele>
        <time>2021-06-13T14:51:23Z</time>
      </trkpt>
      <trkpt lat="45.35368" lon="5.91365">
        <ele>1106.61</ele>
        <time>2021-06-13T14:51:34Z</time>
      </trkpt>
      <trkpt lat="45.35373" lon="5.91386">
        <ele>1105.17</ele>
        <time>2021-06-13T14:51:47Z</time>
      </trkpt>
      <trkpt lat="45.35374" lon="5.91389">
        <ele>1105.17</ele>
        <time>2021-06-13T14:51:49Z</time>
      </trkpt>
      <trkpt lat="45.35374" lon="5.91402">
        <ele>1103.73</ele>
        <time>2021-06-13T14:52:03Z</time>
      </trkpt>
      <trkpt lat="45.35374" lon="5.91413">
        <ele>1103.25</ele>
        <time>2021-06-13T14:52:08Z</time>
      </trkpt>
      <trkpt lat="45.35374" lon="5.91416">
        <ele>1102.77</ele>
        <time>2021-06-13T14:52:10Z</time>
      </trkpt>
      <trkpt lat="45.35374" lon="5.9142">
        <ele>1102.29</ele>
        <time>2021-06-13T14:52:12Z</time>
      </trkpt>
      <trkpt lat="45.35375" lon="5.91429">
        <ele>1101.81</ele>
        <time>2021-06-13T14:52:16Z</time>
      </trkpt>
      <trkpt lat="45.35376" lon="5.91442">
        <ele>1100.85</ele>
        <time>2021-06-13T14:52:23Z</time>
      </trkpt>
      <trkpt lat="45.35377" lon="5.91452">
        <ele>1100.37</ele>
        <time>2021-06-13T14:52:28Z</time>
      </trkpt>
      <trkpt lat="45.35377" lon="5.91466">
        <ele>1098.92</ele>
        <time>2021-06-13T14:52:42Z</time>
      </trkpt>
      <trkpt lat="45.35379" lon="5.91473">
        <ele>1097.96</ele>
        <time>2021-06-13T14:52:49Z</time>
      </trkpt>
      <trkpt lat="45.35379" lon="5.9148">
        <ele>1097.48</ele>
        <time>2021-06-13T14:52:53Z</time>
      </trkpt>
      <trkpt lat="45.35383" lon="5.91491">
        <ele>1097</ele>
        <time>2021-06-13T14:52:58Z</time>
      </trkpt>
      <trkpt lat="45.35388" lon="5.91503">
        <ele>1095.08</ele>
        <time>2021-06-13T14:53:09Z</time>
      </trkpt>
      <trkpt lat="45.35398" lon="5.91527">
        <ele>1093.64</ele>
        <time>2021-06-13T14:53:21Z</time>
      </trkpt>
      <trkpt lat="45.35407" lon="5.91542">
        <ele>1092.2</ele>
        <time>2021-06-13T14:53:30Z</time>
      </trkpt>
      <trkpt lat="45.35418" lon="5.9156">
        <ele>1090.75</ele>
        <time>2021-06-13T14:53:43Z</time>
      </trkpt>
      <trkpt lat="45.35421" lon="5.91566">
        <ele>1090.75</ele>
        <time>2021-06-13T14:53:47Z</time>
      </trkpt>
      <trkpt lat="45.35434" lon="5.91584">
        <ele>1089.31</ele>
        <time>2021-06-13T14:54:01Z</time>
      </trkpt>
      <trkpt lat="45.35436" lon="5.91587">
        <ele>1089.31</ele>
        <time>2021-06-13T14:54:03Z</time>
      </trkpt>
      <trkpt lat="45.35444" lon="5.91605">
        <ele>1087.39</ele>
        <time>2021-06-13T14:54:16Z</time>
      </trkpt>
      <trkpt lat="45.35451" lon="5.91626">
        <ele>1085.47</ele>
        <time>2021-06-13T14:54:29Z</time>
      </trkpt>
      <trkpt lat="45.35456" lon="5.91638">
        <ele>1084.5</ele>
        <time>2021-06-13T14:54:36Z</time>
      </trkpt>
      <trkpt lat="45.35457" lon="5.91652">
        <ele>1084.02</ele>
        <time>2021-06-13T14:54:44Z</time>
      </trkpt>
      <trkpt lat="45.35462" lon="5.91665">
        <ele>1083.54</ele>
        <time>2021-06-13T14:54:52Z</time>
      </trkpt>
      <trkpt lat="45.35465" lon="5.91687">
        <ele>1082.58</ele>
        <time>2021-06-13T14:55:04Z</time>
      </trkpt>
      <trkpt lat="45.3547" lon="5.91695">
        <ele>1082.1</ele>
        <time>2021-06-13T14:55:20Z</time>
      </trkpt>
      <trkpt lat="45.3547" lon="5.91697">
        <ele>1082.1</ele>
        <time>2021-06-13T14:55:24Z</time>
      </trkpt>
      <trkpt lat="45.35472" lon="5.91726">
        <ele>1081.62</ele>
        <time>2021-06-13T14:55:38Z</time>
      </trkpt>
      <trkpt lat="45.35477" lon="5.91742">
        <ele>1081.14</ele>
        <time>2021-06-13T14:55:50Z</time>
      </trkpt>
      <trkpt lat="45.35482" lon="5.91755">
        <ele>1080.66</ele>
        <time>2021-06-13T14:56:02Z</time>
      </trkpt>
      <trkpt lat="45.35482" lon="5.91766">
        <ele>1080.66</ele>
        <time>2021-06-13T14:56:13Z</time>
      </trkpt>
      <trkpt lat="45.35488" lon="5.91784">
        <ele>1079.22</ele>
        <time>2021-06-13T14:56:24Z</time>
      </trkpt>
      <trkpt lat="45.35496" lon="5.91802">
        <ele>1078.26</ele>
        <time>2021-06-13T14:56:37Z</time>
      </trkpt>
      <trkpt lat="45.35505" lon="5.91821">
        <ele>1077.29</ele>
        <time>2021-06-13T14:56:49Z</time>
      </trkpt>
      <trkpt lat="45.35506" lon="5.91824">
        <ele>1077.29</ele>
        <time>2021-06-13T14:56:51Z</time>
      </trkpt>
      <trkpt lat="45.35504" lon="5.91842">
        <ele>1076.33</ele>
        <time>2021-06-13T14:56:59Z</time>
      </trkpt>
      <trkpt lat="45.35496" lon="5.91852">
        <ele>1075.85</ele>
        <time>2021-06-13T14:57:07Z</time>
      </trkpt>
      <trkpt lat="45.35492" lon="5.91859">
        <ele>1075.37</ele>
        <time>2021-06-13T14:57:13Z</time>
      </trkpt>
      <trkpt lat="45.35498" lon="5.91882">
        <ele>1074.41</ele>
        <time>2021-06-13T14:57:27Z</time>
      </trkpt>
      <trkpt lat="45.35499" lon="5.91885">
        <ele>1074.41</ele>
        <time>2021-06-13T14:57:29Z</time>
      </trkpt>
      <trkpt lat="45.35501" lon="5.91889">
        <ele>1073.93</ele>
        <time>2021-06-13T14:57:41Z</time>
      </trkpt>
      <trkpt lat="45.35501" lon="5.91889">
        <ele>1073.93</ele>
        <time>2021-06-13T14:57:54Z</time>
      </trkpt>
      <trkpt lat="45.355" lon="5.91889">
        <ele>1073.93</ele>
        <time>2021-06-13T14:58:08Z</time>
      </trkpt>
      <trkpt lat="45.355" lon="5.91889">
        <ele>1073.93</ele>
        <time>2021-06-13T14:58:25Z</time>
      </trkpt>
      <trkpt lat="45.355" lon="5.91889">
        <ele>1073.45</ele>
        <time>2021-06-13T14:58:27Z</time>
      </trkpt>
      <trkpt lat="45.35501" lon="5.91889">
        <ele>1073.93</ele>
        <time>2021-06-13T14:58:40Z</time>
      </trkpt>
    </trkseg>
  </trk>
</gpx>